<?xml version="1.0" encoding="UTF-8"?>
<gpx version="1.1" creator="RoadTrp.org" xmlns="http://www.topografix.com/GPX/1/1">
<trk><name>Candies Creek &amp; Back Nine #2 — Cleveland Bradley Greenways — August 13, 2026</name><trkseg>
<trkpt lat="35.198308" lon="-84.897385"><ele>221.6</ele><time>2026-08-13T18:26:18Z</time></trkpt>
<trkpt lat="35.198325" lon="-84.897355"><ele>221.0</ele><time>2026-08-13T18:26:20Z</time></trkpt>
<trkpt lat="35.19833" lon="-84.897317"><ele>221.0</ele><time>2026-08-13T18:26:22Z</time></trkpt>
<trkpt lat="35.198323" lon="-84.897274"><ele>221.6</ele><time>2026-08-13T18:26:24Z</time></trkpt>
<trkpt lat="35.198312" lon="-84.897234"><ele>221.6</ele><time>2026-08-13T18:26:26Z</time></trkpt>
<trkpt lat="35.198297" lon="-84.8972"><ele>221.9</ele><time>2026-08-13T18:26:28Z</time></trkpt>
<trkpt lat="35.198284" lon="-84.897169"><ele>222.2</ele><time>2026-08-13T18:26:30Z</time></trkpt>
<trkpt lat="35.198267" lon="-84.89713"><ele>222.2</ele><time>2026-08-13T18:26:32Z</time></trkpt>
<trkpt lat="35.198255" lon="-84.897093"><ele>222.2</ele><time>2026-08-13T18:26:34Z</time></trkpt>
<trkpt lat="35.198241" lon="-84.89706"><ele>222.2</ele><time>2026-08-13T18:26:36Z</time></trkpt>
<trkpt lat="35.198226" lon="-84.897028"><ele>221.6</ele><time>2026-08-13T18:26:38Z</time></trkpt>
<trkpt lat="35.198202" lon="-84.896989"><ele>222.2</ele><time>2026-08-13T18:26:41Z</time></trkpt>
<trkpt lat="35.198172" lon="-84.896954"><ele>223.4</ele><time>2026-08-13T18:26:44Z</time></trkpt>
<trkpt lat="35.198149" lon="-84.896932"><ele>222.8</ele><time>2026-08-13T18:26:46Z</time></trkpt>
<trkpt lat="35.198112" lon="-84.896914"><ele>222.5</ele><time>2026-08-13T18:26:49Z</time></trkpt>
<trkpt lat="35.198072" lon="-84.896931"><ele>222.5</ele><time>2026-08-13T18:26:52Z</time></trkpt>
<trkpt lat="35.198048" lon="-84.89695"><ele>221.9</ele><time>2026-08-13T18:26:54Z</time></trkpt>
<trkpt lat="35.198026" lon="-84.89697"><ele>221.3</ele><time>2026-08-13T18:26:56Z</time></trkpt>
<trkpt lat="35.197986" lon="-84.896984"><ele>221.3</ele><time>2026-08-13T18:26:59Z</time></trkpt>
<trkpt lat="35.197958" lon="-84.896963"><ele>220.1</ele><time>2026-08-13T18:27:02Z</time></trkpt>
<trkpt lat="35.197946" lon="-84.896933"><ele>220.4</ele><time>2026-08-13T18:27:04Z</time></trkpt>
<trkpt lat="35.197932" lon="-84.896904"><ele>220.1</ele><time>2026-08-13T18:27:06Z</time></trkpt>
<trkpt lat="35.197909" lon="-84.896879"><ele>220.7</ele><time>2026-08-13T18:27:08Z</time></trkpt>
<trkpt lat="35.19788" lon="-84.896866"><ele>220.1</ele><time>2026-08-13T18:27:10Z</time></trkpt>
<trkpt lat="35.197849" lon="-84.896866"><ele>219.8</ele><time>2026-08-13T18:27:12Z</time></trkpt>
<trkpt lat="35.19782" lon="-84.89688"><ele>219.2</ele><time>2026-08-13T18:27:14Z</time></trkpt>
<trkpt lat="35.197794" lon="-84.8969"><ele>219.2</ele><time>2026-08-13T18:27:16Z</time></trkpt>
<trkpt lat="35.197768" lon="-84.896916"><ele>219.5</ele><time>2026-08-13T18:27:18Z</time></trkpt>
<trkpt lat="35.197736" lon="-84.896943"><ele>219.5</ele><time>2026-08-13T18:27:21Z</time></trkpt>
<trkpt lat="35.197714" lon="-84.896984"><ele>218.8</ele><time>2026-08-13T18:27:24Z</time></trkpt>
<trkpt lat="35.197702" lon="-84.897021"><ele>219.8</ele><time>2026-08-13T18:27:26Z</time></trkpt>
<trkpt lat="35.197687" lon="-84.897058"><ele>219.5</ele><time>2026-08-13T18:27:28Z</time></trkpt>
<trkpt lat="35.197676" lon="-84.897097"><ele>219.2</ele><time>2026-08-13T18:27:30Z</time></trkpt>
<trkpt lat="35.197673" lon="-84.897135"><ele>219.8</ele><time>2026-08-13T18:27:32Z</time></trkpt>
<trkpt lat="35.197667" lon="-84.897171"><ele>219.2</ele><time>2026-08-13T18:27:34Z</time></trkpt>
<trkpt lat="35.197653" lon="-84.897214"><ele>218.8</ele><time>2026-08-13T18:27:37Z</time></trkpt>
<trkpt lat="35.197633" lon="-84.89724"><ele>218.5</ele><time>2026-08-13T18:27:39Z</time></trkpt>
<trkpt lat="35.19761" lon="-84.897261"><ele>218.8</ele><time>2026-08-13T18:27:41Z</time></trkpt>
<trkpt lat="35.197579" lon="-84.897283"><ele>219.2</ele><time>2026-08-13T18:27:44Z</time></trkpt>
<trkpt lat="35.197546" lon="-84.897308"><ele>219.2</ele><time>2026-08-13T18:27:47Z</time></trkpt>
<trkpt lat="35.197511" lon="-84.897332"><ele>220.1</ele><time>2026-08-13T18:27:50Z</time></trkpt>
<trkpt lat="35.197487" lon="-84.897357"><ele>220.4</ele><time>2026-08-13T18:27:52Z</time></trkpt>
<trkpt lat="35.197468" lon="-84.897385"><ele>221.0</ele><time>2026-08-13T18:27:54Z</time></trkpt>
<trkpt lat="35.197448" lon="-84.89741"><ele>221.6</ele><time>2026-08-13T18:27:56Z</time></trkpt>
<trkpt lat="35.197429" lon="-84.897438"><ele>221.6</ele><time>2026-08-13T18:27:58Z</time></trkpt>
<trkpt lat="35.197409" lon="-84.897462"><ele>221.9</ele><time>2026-08-13T18:28:00Z</time></trkpt>
<trkpt lat="35.197379" lon="-84.897494"><ele>221.9</ele><time>2026-08-13T18:28:03Z</time></trkpt>
<trkpt lat="35.197351" lon="-84.897529"><ele>222.2</ele><time>2026-08-13T18:28:06Z</time></trkpt>
<trkpt lat="35.197322" lon="-84.897556"><ele>222.8</ele><time>2026-08-13T18:28:09Z</time></trkpt>
<trkpt lat="35.19729" lon="-84.897585"><ele>222.5</ele><time>2026-08-13T18:28:12Z</time></trkpt>
<trkpt lat="35.197261" lon="-84.897583"><ele>225.9</ele><time>2026-08-13T18:28:14Z</time></trkpt>
<trkpt lat="35.19725" lon="-84.897547"><ele>230.1</ele><time>2026-08-13T18:28:16Z</time></trkpt>
<trkpt lat="35.197275" lon="-84.897533"><ele>227.7</ele><time>2026-08-13T18:28:18Z</time></trkpt>
<trkpt lat="35.197315" lon="-84.897541"><ele>229.2</ele><time>2026-08-13T18:28:21Z</time></trkpt>
<trkpt lat="35.197331" lon="-84.897573"><ele>228.3</ele><time>2026-08-13T18:28:23Z</time></trkpt>
<trkpt lat="35.197324" lon="-84.89762"><ele>226.2</ele><time>2026-08-13T18:28:25Z</time></trkpt>
<trkpt lat="35.197309" lon="-84.897656"><ele>224.6</ele><time>2026-08-13T18:28:27Z</time></trkpt>
<trkpt lat="35.197289" lon="-84.897684"><ele>223.7</ele><time>2026-08-13T18:28:29Z</time></trkpt>
<trkpt lat="35.197262" lon="-84.897714"><ele>222.8</ele><time>2026-08-13T18:28:31Z</time></trkpt>
<trkpt lat="35.197241" lon="-84.897749"><ele>222.2</ele><time>2026-08-13T18:28:33Z</time></trkpt>
<trkpt lat="35.197218" lon="-84.89778"><ele>222.5</ele><time>2026-08-13T18:28:35Z</time></trkpt>
<trkpt lat="35.197191" lon="-84.897805"><ele>223.1</ele><time>2026-08-13T18:28:37Z</time></trkpt>
<trkpt lat="35.197164" lon="-84.897828"><ele>222.5</ele><time>2026-08-13T18:28:39Z</time></trkpt>
<trkpt lat="35.197135" lon="-84.897856"><ele>222.8</ele><time>2026-08-13T18:28:41Z</time></trkpt>
<trkpt lat="35.197109" lon="-84.897882"><ele>223.1</ele><time>2026-08-13T18:28:43Z</time></trkpt>
<trkpt lat="35.197086" lon="-84.897908"><ele>223.1</ele><time>2026-08-13T18:28:45Z</time></trkpt>
<trkpt lat="35.197062" lon="-84.897931"><ele>222.8</ele><time>2026-08-13T18:28:47Z</time></trkpt>
<trkpt lat="35.197035" lon="-84.897953"><ele>221.9</ele><time>2026-08-13T18:28:49Z</time></trkpt>
<trkpt lat="35.197004" lon="-84.897973"><ele>221.3</ele><time>2026-08-13T18:28:51Z</time></trkpt>
<trkpt lat="35.196975" lon="-84.897993"><ele>221.0</ele><time>2026-08-13T18:28:53Z</time></trkpt>
<trkpt lat="35.196951" lon="-84.898018"><ele>220.4</ele><time>2026-08-13T18:28:55Z</time></trkpt>
<trkpt lat="35.196928" lon="-84.89804"><ele>220.7</ele><time>2026-08-13T18:28:57Z</time></trkpt>
<trkpt lat="35.196907" lon="-84.898065"><ele>220.4</ele><time>2026-08-13T18:28:59Z</time></trkpt>
<trkpt lat="35.196882" lon="-84.898082"><ele>220.1</ele><time>2026-08-13T18:29:01Z</time></trkpt>
<trkpt lat="35.196855" lon="-84.898098"><ele>219.8</ele><time>2026-08-13T18:29:03Z</time></trkpt>
<trkpt lat="35.196828" lon="-84.898113"><ele>219.8</ele><time>2026-08-13T18:29:05Z</time></trkpt>
<trkpt lat="35.196799" lon="-84.898124"><ele>220.1</ele><time>2026-08-13T18:29:07Z</time></trkpt>
<trkpt lat="35.196769" lon="-84.898135"><ele>219.5</ele><time>2026-08-13T18:29:09Z</time></trkpt>
<trkpt lat="35.19674" lon="-84.898147"><ele>219.8</ele><time>2026-08-13T18:29:11Z</time></trkpt>
<trkpt lat="35.196708" lon="-84.898148"><ele>219.8</ele><time>2026-08-13T18:29:13Z</time></trkpt>
<trkpt lat="35.19668" lon="-84.898137"><ele>218.8</ele><time>2026-08-13T18:29:15Z</time></trkpt>
<trkpt lat="35.196652" lon="-84.898123"><ele>219.2</ele><time>2026-08-13T18:29:17Z</time></trkpt>
<trkpt lat="35.196623" lon="-84.898113"><ele>219.8</ele><time>2026-08-13T18:29:19Z</time></trkpt>
<trkpt lat="35.196597" lon="-84.898094"><ele>219.5</ele><time>2026-08-13T18:29:21Z</time></trkpt>
<trkpt lat="35.196563" lon="-84.898071"><ele>217.3</ele><time>2026-08-13T18:29:24Z</time></trkpt>
<trkpt lat="35.196528" lon="-84.898042"><ele>217.0</ele><time>2026-08-13T18:29:27Z</time></trkpt>
<trkpt lat="35.196502" lon="-84.898022"><ele>218.2</ele><time>2026-08-13T18:29:29Z</time></trkpt>
<trkpt lat="35.196478" lon="-84.897998"><ele>217.0</ele><time>2026-08-13T18:29:31Z</time></trkpt>
<trkpt lat="35.196458" lon="-84.897971"><ele>216.1</ele><time>2026-08-13T18:29:33Z</time></trkpt>
<trkpt lat="35.196438" lon="-84.897945"><ele>215.8</ele><time>2026-08-13T18:29:35Z</time></trkpt>
<trkpt lat="35.196412" lon="-84.897921"><ele>215.5</ele><time>2026-08-13T18:29:37Z</time></trkpt>
<trkpt lat="35.196392" lon="-84.897889"><ele>215.2</ele><time>2026-08-13T18:29:39Z</time></trkpt>
<trkpt lat="35.196377" lon="-84.897853"><ele>215.5</ele><time>2026-08-13T18:29:41Z</time></trkpt>
<trkpt lat="35.196362" lon="-84.89782"><ele>215.2</ele><time>2026-08-13T18:29:43Z</time></trkpt>
<trkpt lat="35.19635" lon="-84.897784"><ele>215.5</ele><time>2026-08-13T18:29:45Z</time></trkpt>
<trkpt lat="35.19634" lon="-84.897748"><ele>215.5</ele><time>2026-08-13T18:29:47Z</time></trkpt>
<trkpt lat="35.196322" lon="-84.897719"><ele>215.8</ele><time>2026-08-13T18:29:49Z</time></trkpt>
<trkpt lat="35.196307" lon="-84.897688"><ele>216.4</ele><time>2026-08-13T18:29:51Z</time></trkpt>
<trkpt lat="35.196292" lon="-84.897658"><ele>216.4</ele><time>2026-08-13T18:29:53Z</time></trkpt>
<trkpt lat="35.196279" lon="-84.897627"><ele>216.7</ele><time>2026-08-13T18:29:55Z</time></trkpt>
<trkpt lat="35.196264" lon="-84.897596"><ele>216.7</ele><time>2026-08-13T18:29:57Z</time></trkpt>
<trkpt lat="35.196249" lon="-84.897565"><ele>217.6</ele><time>2026-08-13T18:29:59Z</time></trkpt>
<trkpt lat="35.196235" lon="-84.897536"><ele>217.9</ele><time>2026-08-13T18:30:01Z</time></trkpt>
<trkpt lat="35.19622" lon="-84.897508"><ele>218.5</ele><time>2026-08-13T18:30:03Z</time></trkpt>
<trkpt lat="35.196203" lon="-84.897481"><ele>219.2</ele><time>2026-08-13T18:30:05Z</time></trkpt>
<trkpt lat="35.196213" lon="-84.897449"><ele>219.2</ele><time>2026-08-13T18:30:06Z</time></trkpt>
<trkpt lat="35.196198" lon="-84.89742"><ele>218.8</ele><time>2026-08-13T18:30:08Z</time></trkpt>
<trkpt lat="35.196172" lon="-84.897385"><ele>218.2</ele><time>2026-08-13T18:30:11Z</time></trkpt>
<trkpt lat="35.196153" lon="-84.897358"><ele>218.2</ele><time>2026-08-13T18:30:13Z</time></trkpt>
<trkpt lat="35.196135" lon="-84.897332"><ele>217.9</ele><time>2026-08-13T18:30:15Z</time></trkpt>
<trkpt lat="35.196116" lon="-84.897306"><ele>218.2</ele><time>2026-08-13T18:30:17Z</time></trkpt>
<trkpt lat="35.196101" lon="-84.897276"><ele>218.8</ele><time>2026-08-13T18:30:19Z</time></trkpt>
<trkpt lat="35.196077" lon="-84.897235"><ele>218.5</ele><time>2026-08-13T18:30:22Z</time></trkpt>
<trkpt lat="35.19606" lon="-84.897205"><ele>218.5</ele><time>2026-08-13T18:30:24Z</time></trkpt>
<trkpt lat="35.196041" lon="-84.897177"><ele>220.4</ele><time>2026-08-13T18:30:26Z</time></trkpt>
<trkpt lat="35.196025" lon="-84.897146"><ele>219.5</ele><time>2026-08-13T18:30:28Z</time></trkpt>
<trkpt lat="35.196006" lon="-84.897102"><ele>218.5</ele><time>2026-08-13T18:30:31Z</time></trkpt>
<trkpt lat="35.195987" lon="-84.897077"><ele>218.8</ele><time>2026-08-13T18:30:33Z</time></trkpt>
<trkpt lat="35.195963" lon="-84.897038"><ele>218.8</ele><time>2026-08-13T18:30:36Z</time></trkpt>
<trkpt lat="35.195934" lon="-84.897002"><ele>219.5</ele><time>2026-08-13T18:30:39Z</time></trkpt>
<trkpt lat="35.195911" lon="-84.896978"><ele>219.5</ele><time>2026-08-13T18:30:41Z</time></trkpt>
<trkpt lat="35.195885" lon="-84.89696"><ele>219.5</ele><time>2026-08-13T18:30:43Z</time></trkpt>
<trkpt lat="35.195848" lon="-84.896941"><ele>219.5</ele><time>2026-08-13T18:30:46Z</time></trkpt>
<trkpt lat="35.195819" lon="-84.896932"><ele>219.2</ele><time>2026-08-13T18:30:48Z</time></trkpt>
<trkpt lat="35.195793" lon="-84.896916"><ele>218.5</ele><time>2026-08-13T18:30:50Z</time></trkpt>
<trkpt lat="35.195769" lon="-84.896901"><ele>218.2</ele><time>2026-08-13T18:30:52Z</time></trkpt>
<trkpt lat="35.19574" lon="-84.896892"><ele>218.2</ele><time>2026-08-13T18:30:54Z</time></trkpt>
<trkpt lat="35.195712" lon="-84.896882"><ele>218.2</ele><time>2026-08-13T18:30:56Z</time></trkpt>
<trkpt lat="35.195685" lon="-84.896869"><ele>218.2</ele><time>2026-08-13T18:30:58Z</time></trkpt>
<trkpt lat="35.195656" lon="-84.896859"><ele>218.5</ele><time>2026-08-13T18:31:00Z</time></trkpt>
<trkpt lat="35.195627" lon="-84.896851"><ele>218.8</ele><time>2026-08-13T18:31:02Z</time></trkpt>
<trkpt lat="35.195599" lon="-84.896841"><ele>219.2</ele><time>2026-08-13T18:31:04Z</time></trkpt>
<trkpt lat="35.195573" lon="-84.896826"><ele>219.2</ele><time>2026-08-13T18:31:06Z</time></trkpt>
<trkpt lat="35.195546" lon="-84.896815"><ele>219.2</ele><time>2026-08-13T18:31:08Z</time></trkpt>
<trkpt lat="35.195518" lon="-84.896808"><ele>219.5</ele><time>2026-08-13T18:31:10Z</time></trkpt>
<trkpt lat="35.195479" lon="-84.896796"><ele>219.2</ele><time>2026-08-13T18:31:13Z</time></trkpt>
<trkpt lat="35.195439" lon="-84.896785"><ele>219.2</ele><time>2026-08-13T18:31:16Z</time></trkpt>
<trkpt lat="35.19541" lon="-84.896784"><ele>218.2</ele><time>2026-08-13T18:31:18Z</time></trkpt>
<trkpt lat="35.19537" lon="-84.89679"><ele>218.2</ele><time>2026-08-13T18:31:21Z</time></trkpt>
<trkpt lat="35.195339" lon="-84.896796"><ele>218.5</ele><time>2026-08-13T18:31:23Z</time></trkpt>
<trkpt lat="35.195311" lon="-84.896802"><ele>218.2</ele><time>2026-08-13T18:31:25Z</time></trkpt>
<trkpt lat="35.195275" lon="-84.896825"><ele>217.9</ele><time>2026-08-13T18:31:28Z</time></trkpt>
<trkpt lat="35.19525" lon="-84.896847"><ele>217.3</ele><time>2026-08-13T18:31:30Z</time></trkpt>
<trkpt lat="35.195226" lon="-84.896865"><ele>217.6</ele><time>2026-08-13T18:31:32Z</time></trkpt>
<trkpt lat="35.195201" lon="-84.89688"><ele>217.9</ele><time>2026-08-13T18:31:34Z</time></trkpt>
<trkpt lat="35.195169" lon="-84.896906"><ele>217.6</ele><time>2026-08-13T18:31:37Z</time></trkpt>
<trkpt lat="35.195136" lon="-84.896932"><ele>218.5</ele><time>2026-08-13T18:31:40Z</time></trkpt>
<trkpt lat="35.195113" lon="-84.896952"><ele>218.5</ele><time>2026-08-13T18:31:42Z</time></trkpt>
<trkpt lat="35.195089" lon="-84.896973"><ele>218.8</ele><time>2026-08-13T18:31:44Z</time></trkpt>
<trkpt lat="35.195056" lon="-84.897002"><ele>217.9</ele><time>2026-08-13T18:31:47Z</time></trkpt>
<trkpt lat="35.195031" lon="-84.897024"><ele>218.5</ele><time>2026-08-13T18:31:49Z</time></trkpt>
<trkpt lat="35.195007" lon="-84.897048"><ele>218.8</ele><time>2026-08-13T18:31:51Z</time></trkpt>
<trkpt lat="35.194982" lon="-84.897067"><ele>219.2</ele><time>2026-08-13T18:31:53Z</time></trkpt>
<trkpt lat="35.194949" lon="-84.897092"><ele>219.5</ele><time>2026-08-13T18:31:56Z</time></trkpt>
<trkpt lat="35.194915" lon="-84.897115"><ele>220.1</ele><time>2026-08-13T18:31:59Z</time></trkpt>
<trkpt lat="35.194882" lon="-84.897144"><ele>219.8</ele><time>2026-08-13T18:32:02Z</time></trkpt>
<trkpt lat="35.19486" lon="-84.897165"><ele>219.8</ele><time>2026-08-13T18:32:04Z</time></trkpt>
<trkpt lat="35.194836" lon="-84.897188"><ele>220.1</ele><time>2026-08-13T18:32:06Z</time></trkpt>
<trkpt lat="35.194811" lon="-84.897207"><ele>220.1</ele><time>2026-08-13T18:32:08Z</time></trkpt>
<trkpt lat="35.194788" lon="-84.89723"><ele>220.4</ele><time>2026-08-13T18:32:10Z</time></trkpt>
<trkpt lat="35.194763" lon="-84.897252"><ele>219.8</ele><time>2026-08-13T18:32:12Z</time></trkpt>
<trkpt lat="35.19474" lon="-84.897273"><ele>219.8</ele><time>2026-08-13T18:32:14Z</time></trkpt>
<trkpt lat="35.194706" lon="-84.897295"><ele>220.1</ele><time>2026-08-13T18:32:17Z</time></trkpt>
<trkpt lat="35.194672" lon="-84.89732"><ele>220.4</ele><time>2026-08-13T18:32:20Z</time></trkpt>
<trkpt lat="35.194637" lon="-84.897343"><ele>219.8</ele><time>2026-08-13T18:32:23Z</time></trkpt>
<trkpt lat="35.194606" lon="-84.897369"><ele>220.1</ele><time>2026-08-13T18:32:26Z</time></trkpt>
<trkpt lat="35.194582" lon="-84.89739"><ele>220.4</ele><time>2026-08-13T18:32:28Z</time></trkpt>
<trkpt lat="35.194557" lon="-84.897409"><ele>220.7</ele><time>2026-08-13T18:32:30Z</time></trkpt>
<trkpt lat="35.194522" lon="-84.897439"><ele>220.1</ele><time>2026-08-13T18:32:33Z</time></trkpt>
<trkpt lat="35.194497" lon="-84.897457"><ele>219.8</ele><time>2026-08-13T18:32:35Z</time></trkpt>
<trkpt lat="35.194462" lon="-84.897483"><ele>221.0</ele><time>2026-08-13T18:32:38Z</time></trkpt>
<trkpt lat="35.194436" lon="-84.897496"><ele>220.7</ele><time>2026-08-13T18:32:40Z</time></trkpt>
<trkpt lat="35.194411" lon="-84.897512"><ele>220.7</ele><time>2026-08-13T18:32:42Z</time></trkpt>
<trkpt lat="35.194379" lon="-84.897535"><ele>221.3</ele><time>2026-08-13T18:32:45Z</time></trkpt>
<trkpt lat="35.194343" lon="-84.897561"><ele>220.7</ele><time>2026-08-13T18:32:48Z</time></trkpt>
<trkpt lat="35.194319" lon="-84.89758"><ele>220.4</ele><time>2026-08-13T18:32:50Z</time></trkpt>
<trkpt lat="35.194282" lon="-84.897603"><ele>220.1</ele><time>2026-08-13T18:32:53Z</time></trkpt>
<trkpt lat="35.194255" lon="-84.89762"><ele>220.4</ele><time>2026-08-13T18:32:55Z</time></trkpt>
<trkpt lat="35.19422" lon="-84.897641"><ele>220.4</ele><time>2026-08-13T18:32:58Z</time></trkpt>
<trkpt lat="35.194194" lon="-84.897657"><ele>219.5</ele><time>2026-08-13T18:33:00Z</time></trkpt>
<trkpt lat="35.194159" lon="-84.897678"><ele>219.2</ele><time>2026-08-13T18:33:03Z</time></trkpt>
<trkpt lat="35.194134" lon="-84.897694"><ele>219.5</ele><time>2026-08-13T18:33:05Z</time></trkpt>
<trkpt lat="35.194106" lon="-84.897708"><ele>219.8</ele><time>2026-08-13T18:33:07Z</time></trkpt>
<trkpt lat="35.194079" lon="-84.897719"><ele>219.8</ele><time>2026-08-13T18:33:09Z</time></trkpt>
<trkpt lat="35.194052" lon="-84.897728"><ele>219.5</ele><time>2026-08-13T18:33:11Z</time></trkpt>
<trkpt lat="35.194024" lon="-84.897734"><ele>218.8</ele><time>2026-08-13T18:33:13Z</time></trkpt>
<trkpt lat="35.193985" lon="-84.897738"><ele>219.2</ele><time>2026-08-13T18:33:16Z</time></trkpt>
<trkpt lat="35.193945" lon="-84.897741"><ele>219.5</ele><time>2026-08-13T18:33:19Z</time></trkpt>
<trkpt lat="35.193917" lon="-84.897743"><ele>219.5</ele><time>2026-08-13T18:33:21Z</time></trkpt>
<trkpt lat="35.193878" lon="-84.897753"><ele>219.5</ele><time>2026-08-13T18:33:24Z</time></trkpt>
<trkpt lat="35.193849" lon="-84.897757"><ele>220.1</ele><time>2026-08-13T18:33:26Z</time></trkpt>
<trkpt lat="35.193822" lon="-84.897769"><ele>219.5</ele><time>2026-08-13T18:33:28Z</time></trkpt>
<trkpt lat="35.193794" lon="-84.89778"><ele>219.2</ele><time>2026-08-13T18:33:30Z</time></trkpt>
<trkpt lat="35.19377" lon="-84.897801"><ele>218.2</ele><time>2026-08-13T18:33:32Z</time></trkpt>
<trkpt lat="35.193741" lon="-84.897837"><ele>217.6</ele><time>2026-08-13T18:33:35Z</time></trkpt>
<trkpt lat="35.193708" lon="-84.897866"><ele>217.6</ele><time>2026-08-13T18:33:38Z</time></trkpt>
<trkpt lat="35.193685" lon="-84.897885"><ele>217.9</ele><time>2026-08-13T18:33:40Z</time></trkpt>
<trkpt lat="35.193663" lon="-84.897907"><ele>218.8</ele><time>2026-08-13T18:33:42Z</time></trkpt>
<trkpt lat="35.193629" lon="-84.897933"><ele>218.8</ele><time>2026-08-13T18:33:45Z</time></trkpt>
<trkpt lat="35.193602" lon="-84.897945"><ele>218.8</ele><time>2026-08-13T18:33:47Z</time></trkpt>
<trkpt lat="35.193566" lon="-84.897968"><ele>218.2</ele><time>2026-08-13T18:33:50Z</time></trkpt>
<trkpt lat="35.193537" lon="-84.897978"><ele>218.5</ele><time>2026-08-13T18:33:52Z</time></trkpt>
<trkpt lat="35.193508" lon="-84.897987"><ele>218.8</ele><time>2026-08-13T18:33:54Z</time></trkpt>
<trkpt lat="35.193477" lon="-84.897995"><ele>219.2</ele><time>2026-08-13T18:33:56Z</time></trkpt>
<trkpt lat="35.19345" lon="-84.898006"><ele>219.2</ele><time>2026-08-13T18:33:58Z</time></trkpt>
<trkpt lat="35.193413" lon="-84.898017"><ele>219.5</ele><time>2026-08-13T18:34:01Z</time></trkpt>
<trkpt lat="35.193376" lon="-84.898032"><ele>219.5</ele><time>2026-08-13T18:34:04Z</time></trkpt>
<trkpt lat="35.193339" lon="-84.898044"><ele>219.5</ele><time>2026-08-13T18:34:07Z</time></trkpt>
<trkpt lat="35.19331" lon="-84.898056"><ele>220.4</ele><time>2026-08-13T18:34:09Z</time></trkpt>
<trkpt lat="35.193284" lon="-84.898067"><ele>220.7</ele><time>2026-08-13T18:34:11Z</time></trkpt>
<trkpt lat="35.193257" lon="-84.898077"><ele>220.4</ele><time>2026-08-13T18:34:13Z</time></trkpt>
<trkpt lat="35.193229" lon="-84.898087"><ele>219.2</ele><time>2026-08-13T18:34:15Z</time></trkpt>
<trkpt lat="35.193201" lon="-84.898096"><ele>218.2</ele><time>2026-08-13T18:34:17Z</time></trkpt>
<trkpt lat="35.193172" lon="-84.898105"><ele>218.2</ele><time>2026-08-13T18:34:19Z</time></trkpt>
<trkpt lat="35.193133" lon="-84.898119"><ele>219.2</ele><time>2026-08-13T18:34:22Z</time></trkpt>
<trkpt lat="35.193093" lon="-84.898131"><ele>219.2</ele><time>2026-08-13T18:34:25Z</time></trkpt>
<trkpt lat="35.193055" lon="-84.89814"><ele>218.5</ele><time>2026-08-13T18:34:28Z</time></trkpt>
<trkpt lat="35.193016" lon="-84.898154"><ele>218.5</ele><time>2026-08-13T18:34:31Z</time></trkpt>
<trkpt lat="35.19299" lon="-84.898166"><ele>219.2</ele><time>2026-08-13T18:34:33Z</time></trkpt>
<trkpt lat="35.19296" lon="-84.898177"><ele>218.8</ele><time>2026-08-13T18:34:35Z</time></trkpt>
<trkpt lat="35.19293" lon="-84.898187"><ele>218.5</ele><time>2026-08-13T18:34:37Z</time></trkpt>
<trkpt lat="35.1929" lon="-84.898193"><ele>218.5</ele><time>2026-08-13T18:34:39Z</time></trkpt>
<trkpt lat="35.192874" lon="-84.898206"><ele>218.5</ele><time>2026-08-13T18:34:41Z</time></trkpt>
<trkpt lat="35.192841" lon="-84.898223"><ele>218.8</ele><time>2026-08-13T18:34:44Z</time></trkpt>
<trkpt lat="35.192806" lon="-84.898236"><ele>218.5</ele><time>2026-08-13T18:34:47Z</time></trkpt>
<trkpt lat="35.192782" lon="-84.898256"><ele>218.8</ele><time>2026-08-13T18:34:49Z</time></trkpt>
<trkpt lat="35.192759" lon="-84.898277"><ele>218.8</ele><time>2026-08-13T18:34:51Z</time></trkpt>
<trkpt lat="35.19274" lon="-84.898302"><ele>218.8</ele><time>2026-08-13T18:34:53Z</time></trkpt>
<trkpt lat="35.192722" lon="-84.898333"><ele>218.8</ele><time>2026-08-13T18:34:55Z</time></trkpt>
<trkpt lat="35.192703" lon="-84.898363"><ele>218.5</ele><time>2026-08-13T18:34:57Z</time></trkpt>
<trkpt lat="35.192687" lon="-84.89839"><ele>218.8</ele><time>2026-08-13T18:34:59Z</time></trkpt>
<trkpt lat="35.192673" lon="-84.89842"><ele>219.2</ele><time>2026-08-13T18:35:01Z</time></trkpt>
<trkpt lat="35.192656" lon="-84.898463"><ele>218.8</ele><time>2026-08-13T18:35:04Z</time></trkpt>
<trkpt lat="35.192632" lon="-84.898498"><ele>219.2</ele><time>2026-08-13T18:35:07Z</time></trkpt>
<trkpt lat="35.192603" lon="-84.898533"><ele>219.5</ele><time>2026-08-13T18:35:10Z</time></trkpt>
<trkpt lat="35.192579" lon="-84.898554"><ele>219.5</ele><time>2026-08-13T18:35:12Z</time></trkpt>
<trkpt lat="35.192554" lon="-84.898572"><ele>220.1</ele><time>2026-08-13T18:35:14Z</time></trkpt>
<trkpt lat="35.192518" lon="-84.898586"><ele>220.1</ele><time>2026-08-13T18:35:17Z</time></trkpt>
<trkpt lat="35.192482" lon="-84.898595"><ele>219.5</ele><time>2026-08-13T18:35:20Z</time></trkpt>
<trkpt lat="35.192445" lon="-84.89861"><ele>220.1</ele><time>2026-08-13T18:35:23Z</time></trkpt>
<trkpt lat="35.192419" lon="-84.898624"><ele>220.1</ele><time>2026-08-13T18:35:25Z</time></trkpt>
<trkpt lat="35.192393" lon="-84.89864"><ele>220.4</ele><time>2026-08-13T18:35:27Z</time></trkpt>
<trkpt lat="35.192369" lon="-84.898657"><ele>221.3</ele><time>2026-08-13T18:35:29Z</time></trkpt>
<trkpt lat="35.192344" lon="-84.898692"><ele>221.3</ele><time>2026-08-13T18:35:32Z</time></trkpt>
<trkpt lat="35.192328" lon="-84.898731"><ele>220.7</ele><time>2026-08-13T18:35:35Z</time></trkpt>
<trkpt lat="35.192313" lon="-84.898777"><ele>220.7</ele><time>2026-08-13T18:35:38Z</time></trkpt>
<trkpt lat="35.192302" lon="-84.898812"><ele>220.4</ele><time>2026-08-13T18:35:40Z</time></trkpt>
<trkpt lat="35.19229" lon="-84.898846"><ele>220.4</ele><time>2026-08-13T18:35:42Z</time></trkpt>
<trkpt lat="35.192276" lon="-84.898879"><ele>220.1</ele><time>2026-08-13T18:35:44Z</time></trkpt>
<trkpt lat="35.192264" lon="-84.898912"><ele>220.1</ele><time>2026-08-13T18:35:46Z</time></trkpt>
<trkpt lat="35.192252" lon="-84.898943"><ele>220.4</ele><time>2026-08-13T18:35:48Z</time></trkpt>
<trkpt lat="35.192238" lon="-84.898986"><ele>220.7</ele><time>2026-08-13T18:35:51Z</time></trkpt>
<trkpt lat="35.192225" lon="-84.89903"><ele>220.7</ele><time>2026-08-13T18:35:54Z</time></trkpt>
<trkpt lat="35.192212" lon="-84.899075"><ele>220.4</ele><time>2026-08-13T18:35:57Z</time></trkpt>
<trkpt lat="35.192205" lon="-84.899109"><ele>219.5</ele><time>2026-08-13T18:35:59Z</time></trkpt>
<trkpt lat="35.192193" lon="-84.899141"><ele>219.2</ele><time>2026-08-13T18:36:01Z</time></trkpt>
<trkpt lat="35.192181" lon="-84.899176"><ele>219.2</ele><time>2026-08-13T18:36:03Z</time></trkpt>
<trkpt lat="35.19217" lon="-84.899211"><ele>219.2</ele><time>2026-08-13T18:36:05Z</time></trkpt>
<trkpt lat="35.192162" lon="-84.899243"><ele>219.2</ele><time>2026-08-13T18:36:07Z</time></trkpt>
<trkpt lat="35.192148" lon="-84.899289"><ele>218.8</ele><time>2026-08-13T18:36:10Z</time></trkpt>
<trkpt lat="35.192134" lon="-84.899317"><ele>218.2</ele><time>2026-08-13T18:36:12Z</time></trkpt>
<trkpt lat="35.19212" lon="-84.899361"><ele>218.2</ele><time>2026-08-13T18:36:15Z</time></trkpt>
<trkpt lat="35.192109" lon="-84.899411"><ele>218.2</ele><time>2026-08-13T18:36:18Z</time></trkpt>
<trkpt lat="35.192102" lon="-84.899445"><ele>218.2</ele><time>2026-08-13T18:36:20Z</time></trkpt>
<trkpt lat="35.192094" lon="-84.899479"><ele>218.5</ele><time>2026-08-13T18:36:22Z</time></trkpt>
<trkpt lat="35.19209" lon="-84.899514"><ele>219.5</ele><time>2026-08-13T18:36:24Z</time></trkpt>
<trkpt lat="35.192084" lon="-84.89955"><ele>219.2</ele><time>2026-08-13T18:36:26Z</time></trkpt>
<trkpt lat="35.192081" lon="-84.899584"><ele>219.5</ele><time>2026-08-13T18:36:28Z</time></trkpt>
<trkpt lat="35.192098" lon="-84.899613"><ele>219.2</ele><time>2026-08-13T18:36:30Z</time></trkpt>
<trkpt lat="35.192122" lon="-84.899633"><ele>219.5</ele><time>2026-08-13T18:36:32Z</time></trkpt>
<trkpt lat="35.192155" lon="-84.899659"><ele>218.8</ele><time>2026-08-13T18:36:35Z</time></trkpt>
<trkpt lat="35.19219" lon="-84.899679"><ele>218.2</ele><time>2026-08-13T18:36:38Z</time></trkpt>
<trkpt lat="35.192217" lon="-84.899688"><ele>217.9</ele><time>2026-08-13T18:36:40Z</time></trkpt>
<trkpt lat="35.192245" lon="-84.899694"><ele>217.9</ele><time>2026-08-13T18:36:42Z</time></trkpt>
<trkpt lat="35.192274" lon="-84.899699"><ele>218.2</ele><time>2026-08-13T18:36:44Z</time></trkpt>
<trkpt lat="35.192303" lon="-84.899702"><ele>218.8</ele><time>2026-08-13T18:36:46Z</time></trkpt>
<trkpt lat="35.19233" lon="-84.899699"><ele>219.5</ele><time>2026-08-13T18:36:48Z</time></trkpt>
<trkpt lat="35.192372" lon="-84.899695"><ele>219.8</ele><time>2026-08-13T18:36:51Z</time></trkpt>
<trkpt lat="35.192401" lon="-84.899691"><ele>219.5</ele><time>2026-08-13T18:36:53Z</time></trkpt>
<trkpt lat="35.192438" lon="-84.899677"><ele>219.2</ele><time>2026-08-13T18:36:56Z</time></trkpt>
<trkpt lat="35.192475" lon="-84.899664"><ele>219.2</ele><time>2026-08-13T18:36:59Z</time></trkpt>
<trkpt lat="35.19251" lon="-84.899645"><ele>218.8</ele><time>2026-08-13T18:37:02Z</time></trkpt>
<trkpt lat="35.192547" lon="-84.899626"><ele>218.5</ele><time>2026-08-13T18:37:05Z</time></trkpt>
<trkpt lat="35.192575" lon="-84.899617"><ele>218.2</ele><time>2026-08-13T18:37:07Z</time></trkpt>
<trkpt lat="35.192602" lon="-84.899605"><ele>218.5</ele><time>2026-08-13T18:37:09Z</time></trkpt>
<trkpt lat="35.192629" lon="-84.899593"><ele>218.8</ele><time>2026-08-13T18:37:11Z</time></trkpt>
<trkpt lat="35.192658" lon="-84.899581"><ele>219.2</ele><time>2026-08-13T18:37:13Z</time></trkpt>
<trkpt lat="35.192685" lon="-84.899574"><ele>219.5</ele><time>2026-08-13T18:37:15Z</time></trkpt>
<trkpt lat="35.192713" lon="-84.899565"><ele>220.1</ele><time>2026-08-13T18:37:17Z</time></trkpt>
<trkpt lat="35.192741" lon="-84.899551"><ele>220.1</ele><time>2026-08-13T18:37:19Z</time></trkpt>
<trkpt lat="35.19277" lon="-84.899538"><ele>220.1</ele><time>2026-08-13T18:37:21Z</time></trkpt>
<trkpt lat="35.192799" lon="-84.899527"><ele>219.8</ele><time>2026-08-13T18:37:23Z</time></trkpt>
<trkpt lat="35.192828" lon="-84.899514"><ele>219.8</ele><time>2026-08-13T18:37:25Z</time></trkpt>
<trkpt lat="35.192857" lon="-84.899503"><ele>220.1</ele><time>2026-08-13T18:37:27Z</time></trkpt>
<trkpt lat="35.192894" lon="-84.899487"><ele>220.4</ele><time>2026-08-13T18:37:30Z</time></trkpt>
<trkpt lat="35.192933" lon="-84.89947"><ele>220.7</ele><time>2026-08-13T18:37:33Z</time></trkpt>
<trkpt lat="35.19296" lon="-84.899459"><ele>220.7</ele><time>2026-08-13T18:37:35Z</time></trkpt>
<trkpt lat="35.192998" lon="-84.899443"><ele>220.1</ele><time>2026-08-13T18:37:38Z</time></trkpt>
<trkpt lat="35.193036" lon="-84.899422"><ele>220.1</ele><time>2026-08-13T18:37:41Z</time></trkpt>
<trkpt lat="35.193071" lon="-84.8994"><ele>219.5</ele><time>2026-08-13T18:37:44Z</time></trkpt>
<trkpt lat="35.193098" lon="-84.899384"><ele>219.8</ele><time>2026-08-13T18:37:46Z</time></trkpt>
<trkpt lat="35.193125" lon="-84.89937"><ele>219.5</ele><time>2026-08-13T18:37:48Z</time></trkpt>
<trkpt lat="35.193155" lon="-84.899356"><ele>219.5</ele><time>2026-08-13T18:37:50Z</time></trkpt>
<trkpt lat="35.193179" lon="-84.899338"><ele>219.8</ele><time>2026-08-13T18:37:52Z</time></trkpt>
<trkpt lat="35.193217" lon="-84.899316"><ele>219.8</ele><time>2026-08-13T18:37:55Z</time></trkpt>
<trkpt lat="35.193246" lon="-84.899305"><ele>219.8</ele><time>2026-08-13T18:37:57Z</time></trkpt>
<trkpt lat="35.193275" lon="-84.89929"><ele>219.8</ele><time>2026-08-13T18:37:59Z</time></trkpt>
<trkpt lat="35.193302" lon="-84.899275"><ele>220.1</ele><time>2026-08-13T18:38:01Z</time></trkpt>
<trkpt lat="35.193328" lon="-84.899261"><ele>219.8</ele><time>2026-08-13T18:38:03Z</time></trkpt>
<trkpt lat="35.193357" lon="-84.899247"><ele>220.1</ele><time>2026-08-13T18:38:05Z</time></trkpt>
<trkpt lat="35.193385" lon="-84.899233"><ele>219.8</ele><time>2026-08-13T18:38:07Z</time></trkpt>
<trkpt lat="35.193412" lon="-84.899217"><ele>220.1</ele><time>2026-08-13T18:38:09Z</time></trkpt>
<trkpt lat="35.193438" lon="-84.899201"><ele>220.1</ele><time>2026-08-13T18:38:11Z</time></trkpt>
<trkpt lat="35.193465" lon="-84.899185"><ele>220.4</ele><time>2026-08-13T18:38:13Z</time></trkpt>
<trkpt lat="35.193493" lon="-84.899171"><ele>220.4</ele><time>2026-08-13T18:38:15Z</time></trkpt>
<trkpt lat="35.19352" lon="-84.899155"><ele>220.4</ele><time>2026-08-13T18:38:17Z</time></trkpt>
<trkpt lat="35.193546" lon="-84.899141"><ele>220.4</ele><time>2026-08-13T18:38:19Z</time></trkpt>
<trkpt lat="35.193571" lon="-84.899128"><ele>220.4</ele><time>2026-08-13T18:38:21Z</time></trkpt>
<trkpt lat="35.193596" lon="-84.899112"><ele>220.4</ele><time>2026-08-13T18:38:23Z</time></trkpt>
<trkpt lat="35.193621" lon="-84.899097"><ele>220.4</ele><time>2026-08-13T18:38:25Z</time></trkpt>
<trkpt lat="35.193659" lon="-84.899076"><ele>220.4</ele><time>2026-08-13T18:38:28Z</time></trkpt>
<trkpt lat="35.193696" lon="-84.899055"><ele>220.4</ele><time>2026-08-13T18:38:31Z</time></trkpt>
<trkpt lat="35.193722" lon="-84.89904"><ele>220.4</ele><time>2026-08-13T18:38:33Z</time></trkpt>
<trkpt lat="35.193757" lon="-84.899014"><ele>220.4</ele><time>2026-08-13T18:38:36Z</time></trkpt>
<trkpt lat="35.193782" lon="-84.898998"><ele>220.4</ele><time>2026-08-13T18:38:38Z</time></trkpt>
<trkpt lat="35.193809" lon="-84.898984"><ele>219.8</ele><time>2026-08-13T18:38:40Z</time></trkpt>
<trkpt lat="35.193835" lon="-84.898969"><ele>219.5</ele><time>2026-08-13T18:38:42Z</time></trkpt>
<trkpt lat="35.193862" lon="-84.898956"><ele>219.5</ele><time>2026-08-13T18:38:44Z</time></trkpt>
<trkpt lat="35.193888" lon="-84.898942"><ele>219.5</ele><time>2026-08-13T18:38:46Z</time></trkpt>
<trkpt lat="35.193914" lon="-84.898927"><ele>219.2</ele><time>2026-08-13T18:38:48Z</time></trkpt>
<trkpt lat="35.193939" lon="-84.89891"><ele>219.2</ele><time>2026-08-13T18:38:50Z</time></trkpt>
<trkpt lat="35.193967" lon="-84.898894"><ele>219.5</ele><time>2026-08-13T18:38:52Z</time></trkpt>
<trkpt lat="35.193994" lon="-84.898881"><ele>218.8</ele><time>2026-08-13T18:38:54Z</time></trkpt>
<trkpt lat="35.194034" lon="-84.898862"><ele>218.8</ele><time>2026-08-13T18:38:57Z</time></trkpt>
<trkpt lat="35.194069" lon="-84.898835"><ele>218.5</ele><time>2026-08-13T18:39:00Z</time></trkpt>
<trkpt lat="35.194093" lon="-84.898818"><ele>218.5</ele><time>2026-08-13T18:39:02Z</time></trkpt>
<trkpt lat="35.194119" lon="-84.898802"><ele>218.8</ele><time>2026-08-13T18:39:04Z</time></trkpt>
<trkpt lat="35.194146" lon="-84.898788"><ele>218.8</ele><time>2026-08-13T18:39:06Z</time></trkpt>
<trkpt lat="35.194176" lon="-84.898776"><ele>218.8</ele><time>2026-08-13T18:39:08Z</time></trkpt>
<trkpt lat="35.194204" lon="-84.898761"><ele>219.2</ele><time>2026-08-13T18:39:10Z</time></trkpt>
<trkpt lat="35.194233" lon="-84.898747"><ele>219.5</ele><time>2026-08-13T18:39:12Z</time></trkpt>
<trkpt lat="35.194258" lon="-84.898731"><ele>219.5</ele><time>2026-08-13T18:39:14Z</time></trkpt>
<trkpt lat="35.194293" lon="-84.898713"><ele>219.8</ele><time>2026-08-13T18:39:17Z</time></trkpt>
<trkpt lat="35.194324" lon="-84.898692"><ele>220.1</ele><time>2026-08-13T18:39:20Z</time></trkpt>
<trkpt lat="35.194359" lon="-84.898673"><ele>219.8</ele><time>2026-08-13T18:39:23Z</time></trkpt>
<trkpt lat="35.194383" lon="-84.898655"><ele>219.8</ele><time>2026-08-13T18:39:25Z</time></trkpt>
<trkpt lat="35.194407" lon="-84.898638"><ele>219.8</ele><time>2026-08-13T18:39:27Z</time></trkpt>
<trkpt lat="35.194435" lon="-84.898622"><ele>220.1</ele><time>2026-08-13T18:39:29Z</time></trkpt>
<trkpt lat="35.194461" lon="-84.898605"><ele>220.7</ele><time>2026-08-13T18:39:31Z</time></trkpt>
<trkpt lat="35.194491" lon="-84.898587"><ele>220.7</ele><time>2026-08-13T18:39:33Z</time></trkpt>
<trkpt lat="35.194518" lon="-84.898578"><ele>220.1</ele><time>2026-08-13T18:39:35Z</time></trkpt>
<trkpt lat="35.194544" lon="-84.898562"><ele>220.4</ele><time>2026-08-13T18:39:37Z</time></trkpt>
<trkpt lat="35.19457" lon="-84.898548"><ele>220.4</ele><time>2026-08-13T18:39:39Z</time></trkpt>
<trkpt lat="35.194607" lon="-84.898527"><ele>220.7</ele><time>2026-08-13T18:39:42Z</time></trkpt>
<trkpt lat="35.194644" lon="-84.898509"><ele>220.4</ele><time>2026-08-13T18:39:45Z</time></trkpt>
<trkpt lat="35.19468" lon="-84.898491"><ele>219.8</ele><time>2026-08-13T18:39:48Z</time></trkpt>
<trkpt lat="35.194717" lon="-84.89847"><ele>219.8</ele><time>2026-08-13T18:39:51Z</time></trkpt>
<trkpt lat="35.194742" lon="-84.898455"><ele>219.5</ele><time>2026-08-13T18:39:53Z</time></trkpt>
<trkpt lat="35.194768" lon="-84.898439"><ele>220.1</ele><time>2026-08-13T18:39:55Z</time></trkpt>
<trkpt lat="35.194796" lon="-84.898423"><ele>220.1</ele><time>2026-08-13T18:39:57Z</time></trkpt>
<trkpt lat="35.194825" lon="-84.898408"><ele>220.1</ele><time>2026-08-13T18:39:59Z</time></trkpt>
<trkpt lat="35.194853" lon="-84.898392"><ele>220.4</ele><time>2026-08-13T18:40:01Z</time></trkpt>
<trkpt lat="35.19488" lon="-84.898375"><ele>220.1</ele><time>2026-08-13T18:40:03Z</time></trkpt>
<trkpt lat="35.194907" lon="-84.898361"><ele>220.1</ele><time>2026-08-13T18:40:05Z</time></trkpt>
<trkpt lat="35.194932" lon="-84.898343"><ele>220.1</ele><time>2026-08-13T18:40:07Z</time></trkpt>
<trkpt lat="35.194959" lon="-84.898328"><ele>220.1</ele><time>2026-08-13T18:40:09Z</time></trkpt>
<trkpt lat="35.194987" lon="-84.898314"><ele>220.1</ele><time>2026-08-13T18:40:11Z</time></trkpt>
<trkpt lat="35.195015" lon="-84.898301"><ele>220.7</ele><time>2026-08-13T18:40:13Z</time></trkpt>
<trkpt lat="35.195041" lon="-84.898285"><ele>221.0</ele><time>2026-08-13T18:40:15Z</time></trkpt>
<trkpt lat="35.195068" lon="-84.898269"><ele>221.0</ele><time>2026-08-13T18:40:17Z</time></trkpt>
<trkpt lat="35.195095" lon="-84.898254"><ele>221.0</ele><time>2026-08-13T18:40:19Z</time></trkpt>
<trkpt lat="35.195122" lon="-84.898241"><ele>221.0</ele><time>2026-08-13T18:40:21Z</time></trkpt>
<trkpt lat="35.195151" lon="-84.898227"><ele>221.0</ele><time>2026-08-13T18:40:23Z</time></trkpt>
<trkpt lat="35.195179" lon="-84.898213"><ele>221.3</ele><time>2026-08-13T18:40:25Z</time></trkpt>
<trkpt lat="35.195206" lon="-84.898197"><ele>221.0</ele><time>2026-08-13T18:40:27Z</time></trkpt>
<trkpt lat="35.195234" lon="-84.898183"><ele>221.0</ele><time>2026-08-13T18:40:29Z</time></trkpt>
<trkpt lat="35.195261" lon="-84.898172"><ele>221.3</ele><time>2026-08-13T18:40:31Z</time></trkpt>
<trkpt lat="35.19529" lon="-84.898163"><ele>221.0</ele><time>2026-08-13T18:40:33Z</time></trkpt>
<trkpt lat="35.19532" lon="-84.898149"><ele>221.0</ele><time>2026-08-13T18:40:35Z</time></trkpt>
<trkpt lat="35.195346" lon="-84.898135"><ele>220.7</ele><time>2026-08-13T18:40:37Z</time></trkpt>
<trkpt lat="35.195382" lon="-84.898112"><ele>221.0</ele><time>2026-08-13T18:40:40Z</time></trkpt>
<trkpt lat="35.195414" lon="-84.898093"><ele>220.7</ele><time>2026-08-13T18:40:43Z</time></trkpt>
<trkpt lat="35.19545" lon="-84.898068"><ele>220.4</ele><time>2026-08-13T18:40:46Z</time></trkpt>
<trkpt lat="35.195477" lon="-84.898057"><ele>220.1</ele><time>2026-08-13T18:40:48Z</time></trkpt>
<trkpt lat="35.195502" lon="-84.898042"><ele>220.1</ele><time>2026-08-13T18:40:50Z</time></trkpt>
<trkpt lat="35.195529" lon="-84.898026"><ele>220.1</ele><time>2026-08-13T18:40:52Z</time></trkpt>
<trkpt lat="35.195557" lon="-84.898011"><ele>220.1</ele><time>2026-08-13T18:40:54Z</time></trkpt>
<trkpt lat="35.195585" lon="-84.897996"><ele>220.1</ele><time>2026-08-13T18:40:56Z</time></trkpt>
<trkpt lat="35.195611" lon="-84.897981"><ele>220.4</ele><time>2026-08-13T18:40:58Z</time></trkpt>
<trkpt lat="35.195646" lon="-84.897965"><ele>220.4</ele><time>2026-08-13T18:41:01Z</time></trkpt>
<trkpt lat="35.19568" lon="-84.897947"><ele>219.5</ele><time>2026-08-13T18:41:04Z</time></trkpt>
<trkpt lat="35.195717" lon="-84.897926"><ele>219.2</ele><time>2026-08-13T18:41:07Z</time></trkpt>
<trkpt lat="35.195753" lon="-84.897906"><ele>219.5</ele><time>2026-08-13T18:41:10Z</time></trkpt>
<trkpt lat="35.195779" lon="-84.89789"><ele>219.8</ele><time>2026-08-13T18:41:12Z</time></trkpt>
<trkpt lat="35.195809" lon="-84.897882"><ele>219.8</ele><time>2026-08-13T18:41:14Z</time></trkpt>
<trkpt lat="35.19584" lon="-84.897872"><ele>220.1</ele><time>2026-08-13T18:41:16Z</time></trkpt>
<trkpt lat="35.195869" lon="-84.897857"><ele>220.4</ele><time>2026-08-13T18:41:18Z</time></trkpt>
<trkpt lat="35.195898" lon="-84.897844"><ele>220.4</ele><time>2026-08-13T18:41:20Z</time></trkpt>
<trkpt lat="35.195926" lon="-84.897835"><ele>220.4</ele><time>2026-08-13T18:41:22Z</time></trkpt>
<trkpt lat="35.195952" lon="-84.897824"><ele>220.7</ele><time>2026-08-13T18:41:24Z</time></trkpt>
<trkpt lat="35.195992" lon="-84.897817"><ele>221.0</ele><time>2026-08-13T18:41:27Z</time></trkpt>
<trkpt lat="35.196028" lon="-84.897826"><ele>221.0</ele><time>2026-08-13T18:41:30Z</time></trkpt>
<trkpt lat="35.196066" lon="-84.897845"><ele>220.4</ele><time>2026-08-13T18:41:33Z</time></trkpt>
<trkpt lat="35.196095" lon="-84.897851"><ele>220.4</ele><time>2026-08-13T18:41:35Z</time></trkpt>
<trkpt lat="35.196123" lon="-84.897857"><ele>220.7</ele><time>2026-08-13T18:41:37Z</time></trkpt>
<trkpt lat="35.196149" lon="-84.897869"><ele>220.1</ele><time>2026-08-13T18:41:39Z</time></trkpt>
<trkpt lat="35.196177" lon="-84.897882"><ele>220.4</ele><time>2026-08-13T18:41:41Z</time></trkpt>
<trkpt lat="35.196205" lon="-84.897892"><ele>220.4</ele><time>2026-08-13T18:41:43Z</time></trkpt>
<trkpt lat="35.196226" lon="-84.897915"><ele>220.4</ele><time>2026-08-13T18:41:45Z</time></trkpt>
<trkpt lat="35.196248" lon="-84.897942"><ele>220.7</ele><time>2026-08-13T18:41:47Z</time></trkpt>
<trkpt lat="35.196271" lon="-84.897965"><ele>221.3</ele><time>2026-08-13T18:41:49Z</time></trkpt>
<trkpt lat="35.196296" lon="-84.897986"><ele>221.3</ele><time>2026-08-13T18:41:51Z</time></trkpt>
<trkpt lat="35.196319" lon="-84.898004"><ele>221.0</ele><time>2026-08-13T18:41:53Z</time></trkpt>
<trkpt lat="35.196344" lon="-84.898023"><ele>221.3</ele><time>2026-08-13T18:41:55Z</time></trkpt>
<trkpt lat="35.196378" lon="-84.898049"><ele>221.9</ele><time>2026-08-13T18:41:58Z</time></trkpt>
<trkpt lat="35.196402" lon="-84.898068"><ele>221.9</ele><time>2026-08-13T18:42:00Z</time></trkpt>
<trkpt lat="35.196426" lon="-84.898086"><ele>221.9</ele><time>2026-08-13T18:42:02Z</time></trkpt>
<trkpt lat="35.196459" lon="-84.898118"><ele>222.2</ele><time>2026-08-13T18:42:05Z</time></trkpt>
<trkpt lat="35.196477" lon="-84.898145"><ele>222.2</ele><time>2026-08-13T18:42:07Z</time></trkpt>
<trkpt lat="35.196483" lon="-84.898182"><ele>222.2</ele><time>2026-08-13T18:42:09Z</time></trkpt>
<trkpt lat="35.196478" lon="-84.898217"><ele>222.2</ele><time>2026-08-13T18:42:11Z</time></trkpt>
<trkpt lat="35.196475" lon="-84.898252"><ele>221.6</ele><time>2026-08-13T18:42:13Z</time></trkpt>
<trkpt lat="35.196471" lon="-84.898289"><ele>221.6</ele><time>2026-08-13T18:42:15Z</time></trkpt>
<trkpt lat="35.196463" lon="-84.898322"><ele>221.9</ele><time>2026-08-13T18:42:17Z</time></trkpt>
<trkpt lat="35.196449" lon="-84.898368"><ele>221.0</ele><time>2026-08-13T18:42:20Z</time></trkpt>
<trkpt lat="35.19642" lon="-84.898403"><ele>221.6</ele><time>2026-08-13T18:42:23Z</time></trkpt>
<trkpt lat="35.196389" lon="-84.898437"><ele>221.6</ele><time>2026-08-13T18:42:26Z</time></trkpt>
<trkpt lat="35.196366" lon="-84.898455"><ele>221.6</ele><time>2026-08-13T18:42:28Z</time></trkpt>
<trkpt lat="35.196328" lon="-84.898475"><ele>221.9</ele><time>2026-08-13T18:42:31Z</time></trkpt>
<trkpt lat="35.196299" lon="-84.898485"><ele>221.3</ele><time>2026-08-13T18:42:33Z</time></trkpt>
<trkpt lat="35.19627" lon="-84.898498"><ele>221.3</ele><time>2026-08-13T18:42:35Z</time></trkpt>
<trkpt lat="35.196237" lon="-84.898496"><ele>221.3</ele><time>2026-08-13T18:42:37Z</time></trkpt>
<trkpt lat="35.196205" lon="-84.898495"><ele>221.6</ele><time>2026-08-13T18:42:39Z</time></trkpt>
<trkpt lat="35.196175" lon="-84.898494"><ele>221.6</ele><time>2026-08-13T18:42:41Z</time></trkpt>
<trkpt lat="35.196147" lon="-84.898489"><ele>221.9</ele><time>2026-08-13T18:42:43Z</time></trkpt>
<trkpt lat="35.196117" lon="-84.898484"><ele>221.9</ele><time>2026-08-13T18:42:45Z</time></trkpt>
<trkpt lat="35.196087" lon="-84.898477"><ele>222.2</ele><time>2026-08-13T18:42:47Z</time></trkpt>
<trkpt lat="35.196047" lon="-84.898477"><ele>222.2</ele><time>2026-08-13T18:42:50Z</time></trkpt>
<trkpt lat="35.196005" lon="-84.898482"><ele>222.5</ele><time>2026-08-13T18:42:53Z</time></trkpt>
<trkpt lat="35.195975" lon="-84.898489"><ele>222.2</ele><time>2026-08-13T18:42:55Z</time></trkpt>
<trkpt lat="35.195945" lon="-84.898495"><ele>222.5</ele><time>2026-08-13T18:42:57Z</time></trkpt>
<trkpt lat="35.195915" lon="-84.898501"><ele>222.8</ele><time>2026-08-13T18:42:59Z</time></trkpt>
<trkpt lat="35.195877" lon="-84.898512"><ele>223.1</ele><time>2026-08-13T18:43:02Z</time></trkpt>
<trkpt lat="35.195851" lon="-84.898525"><ele>223.1</ele><time>2026-08-13T18:43:04Z</time></trkpt>
<trkpt lat="35.195826" lon="-84.898542"><ele>222.5</ele><time>2026-08-13T18:43:06Z</time></trkpt>
<trkpt lat="35.195798" lon="-84.898557"><ele>222.5</ele><time>2026-08-13T18:43:08Z</time></trkpt>
<trkpt lat="35.195761" lon="-84.898581"><ele>222.8</ele><time>2026-08-13T18:43:11Z</time></trkpt>
<trkpt lat="35.195734" lon="-84.898596"><ele>222.8</ele><time>2026-08-13T18:43:13Z</time></trkpt>
<trkpt lat="35.195704" lon="-84.898607"><ele>223.1</ele><time>2026-08-13T18:43:15Z</time></trkpt>
<trkpt lat="35.195676" lon="-84.898619"><ele>223.1</ele><time>2026-08-13T18:43:17Z</time></trkpt>
<trkpt lat="35.195647" lon="-84.898633"><ele>222.2</ele><time>2026-08-13T18:43:19Z</time></trkpt>
<trkpt lat="35.195618" lon="-84.898651"><ele>222.2</ele><time>2026-08-13T18:43:21Z</time></trkpt>
<trkpt lat="35.195591" lon="-84.898667"><ele>221.9</ele><time>2026-08-13T18:43:23Z</time></trkpt>
<trkpt lat="35.195563" lon="-84.898683"><ele>222.2</ele><time>2026-08-13T18:43:25Z</time></trkpt>
<trkpt lat="35.195537" lon="-84.898699"><ele>221.9</ele><time>2026-08-13T18:43:27Z</time></trkpt>
<trkpt lat="35.195511" lon="-84.898713"><ele>222.2</ele><time>2026-08-13T18:43:29Z</time></trkpt>
<trkpt lat="35.195486" lon="-84.898731"><ele>221.9</ele><time>2026-08-13T18:43:31Z</time></trkpt>
<trkpt lat="35.195456" lon="-84.898759"><ele>221.9</ele><time>2026-08-13T18:43:34Z</time></trkpt>
<trkpt lat="35.195424" lon="-84.898787"><ele>222.2</ele><time>2026-08-13T18:43:37Z</time></trkpt>
<trkpt lat="35.195402" lon="-84.898813"><ele>221.9</ele><time>2026-08-13T18:43:39Z</time></trkpt>
<trkpt lat="35.195377" lon="-84.898833"><ele>221.6</ele><time>2026-08-13T18:43:41Z</time></trkpt>
<trkpt lat="35.195353" lon="-84.898853"><ele>221.9</ele><time>2026-08-13T18:43:43Z</time></trkpt>
<trkpt lat="35.195328" lon="-84.898872"><ele>221.9</ele><time>2026-08-13T18:43:45Z</time></trkpt>
<trkpt lat="35.195302" lon="-84.89889"><ele>221.9</ele><time>2026-08-13T18:43:47Z</time></trkpt>
<trkpt lat="35.195275" lon="-84.898906"><ele>222.2</ele><time>2026-08-13T18:43:49Z</time></trkpt>
<trkpt lat="35.195247" lon="-84.898921"><ele>222.2</ele><time>2026-08-13T18:43:51Z</time></trkpt>
<trkpt lat="35.195222" lon="-84.898937"><ele>222.2</ele><time>2026-08-13T18:43:53Z</time></trkpt>
<trkpt lat="35.195194" lon="-84.898955"><ele>222.2</ele><time>2026-08-13T18:43:55Z</time></trkpt>
<trkpt lat="35.195167" lon="-84.898975"><ele>222.5</ele><time>2026-08-13T18:43:57Z</time></trkpt>
<trkpt lat="35.19514" lon="-84.898985"><ele>222.8</ele><time>2026-08-13T18:43:59Z</time></trkpt>
<trkpt lat="35.195114" lon="-84.898999"><ele>222.5</ele><time>2026-08-13T18:44:01Z</time></trkpt>
<trkpt lat="35.195077" lon="-84.899013"><ele>222.8</ele><time>2026-08-13T18:44:04Z</time></trkpt>
<trkpt lat="35.195041" lon="-84.899029"><ele>222.8</ele><time>2026-08-13T18:44:07Z</time></trkpt>
<trkpt lat="35.195016" lon="-84.899046"><ele>222.5</ele><time>2026-08-13T18:44:09Z</time></trkpt>
<trkpt lat="35.194991" lon="-84.899063"><ele>222.8</ele><time>2026-08-13T18:44:11Z</time></trkpt>
<trkpt lat="35.194964" lon="-84.899079"><ele>222.5</ele><time>2026-08-13T18:44:13Z</time></trkpt>
<trkpt lat="35.194936" lon="-84.899098"><ele>222.5</ele><time>2026-08-13T18:44:15Z</time></trkpt>
<trkpt lat="35.194907" lon="-84.899115"><ele>222.5</ele><time>2026-08-13T18:44:17Z</time></trkpt>
<trkpt lat="35.194878" lon="-84.89913"><ele>222.8</ele><time>2026-08-13T18:44:19Z</time></trkpt>
<trkpt lat="35.194852" lon="-84.899145"><ele>223.1</ele><time>2026-08-13T18:44:21Z</time></trkpt>
<trkpt lat="35.194822" lon="-84.899158"><ele>223.1</ele><time>2026-08-13T18:44:23Z</time></trkpt>
<trkpt lat="35.194795" lon="-84.899172"><ele>223.4</ele><time>2026-08-13T18:44:25Z</time></trkpt>
<trkpt lat="35.194769" lon="-84.899184"><ele>223.1</ele><time>2026-08-13T18:44:27Z</time></trkpt>
<trkpt lat="35.194732" lon="-84.899203"><ele>223.1</ele><time>2026-08-13T18:44:30Z</time></trkpt>
<trkpt lat="35.194705" lon="-84.899216"><ele>223.1</ele><time>2026-08-13T18:44:32Z</time></trkpt>
<trkpt lat="35.194679" lon="-84.899229"><ele>223.1</ele><time>2026-08-13T18:44:34Z</time></trkpt>
<trkpt lat="35.194651" lon="-84.899242"><ele>223.1</ele><time>2026-08-13T18:44:36Z</time></trkpt>
<trkpt lat="35.194627" lon="-84.899259"><ele>222.8</ele><time>2026-08-13T18:44:38Z</time></trkpt>
<trkpt lat="35.194602" lon="-84.899272"><ele>222.8</ele><time>2026-08-13T18:44:40Z</time></trkpt>
<trkpt lat="35.194562" lon="-84.899291"><ele>222.8</ele><time>2026-08-13T18:44:43Z</time></trkpt>
<trkpt lat="35.194536" lon="-84.899308"><ele>223.1</ele><time>2026-08-13T18:44:45Z</time></trkpt>
<trkpt lat="35.194508" lon="-84.899322"><ele>223.4</ele><time>2026-08-13T18:44:47Z</time></trkpt>
<trkpt lat="35.194481" lon="-84.899335"><ele>223.4</ele><time>2026-08-13T18:44:49Z</time></trkpt>
<trkpt lat="35.194455" lon="-84.899348"><ele>223.7</ele><time>2026-08-13T18:44:51Z</time></trkpt>
<trkpt lat="35.194427" lon="-84.89936"><ele>223.4</ele><time>2026-08-13T18:44:53Z</time></trkpt>
<trkpt lat="35.194391" lon="-84.899379"><ele>223.4</ele><time>2026-08-13T18:44:56Z</time></trkpt>
<trkpt lat="35.194355" lon="-84.899395"><ele>223.4</ele><time>2026-08-13T18:44:59Z</time></trkpt>
<trkpt lat="35.194315" lon="-84.899412"><ele>223.7</ele><time>2026-08-13T18:45:02Z</time></trkpt>
<trkpt lat="35.194278" lon="-84.899435"><ele>223.7</ele><time>2026-08-13T18:45:05Z</time></trkpt>
<trkpt lat="35.194241" lon="-84.899454"><ele>224.0</ele><time>2026-08-13T18:45:08Z</time></trkpt>
<trkpt lat="35.194216" lon="-84.89947"><ele>224.0</ele><time>2026-08-13T18:45:10Z</time></trkpt>
<trkpt lat="35.19419" lon="-84.899486"><ele>224.0</ele><time>2026-08-13T18:45:12Z</time></trkpt>
<trkpt lat="35.19416" lon="-84.899501"><ele>224.0</ele><time>2026-08-13T18:45:14Z</time></trkpt>
<trkpt lat="35.194132" lon="-84.899515"><ele>224.6</ele><time>2026-08-13T18:45:16Z</time></trkpt>
<trkpt lat="35.194103" lon="-84.899529"><ele>224.9</ele><time>2026-08-13T18:45:18Z</time></trkpt>
<trkpt lat="35.194074" lon="-84.899541"><ele>225.2</ele><time>2026-08-13T18:45:20Z</time></trkpt>
<trkpt lat="35.194043" lon="-84.899554"><ele>225.2</ele><time>2026-08-13T18:45:22Z</time></trkpt>
<trkpt lat="35.194013" lon="-84.899569"><ele>225.6</ele><time>2026-08-13T18:45:24Z</time></trkpt>
<trkpt lat="35.193984" lon="-84.89958"><ele>225.6</ele><time>2026-08-13T18:45:26Z</time></trkpt>
<trkpt lat="35.193954" lon="-84.899593"><ele>226.2</ele><time>2026-08-13T18:45:28Z</time></trkpt>
<trkpt lat="35.193925" lon="-84.899607"><ele>226.2</ele><time>2026-08-13T18:45:30Z</time></trkpt>
<trkpt lat="35.193899" lon="-84.899619"><ele>226.2</ele><time>2026-08-13T18:45:32Z</time></trkpt>
<trkpt lat="35.193861" lon="-84.899629"><ele>226.2</ele><time>2026-08-13T18:45:35Z</time></trkpt>
<trkpt lat="35.193832" lon="-84.899637"><ele>225.9</ele><time>2026-08-13T18:45:37Z</time></trkpt>
<trkpt lat="35.193805" lon="-84.899653"><ele>225.9</ele><time>2026-08-13T18:45:39Z</time></trkpt>
<trkpt lat="35.193767" lon="-84.899665"><ele>225.2</ele><time>2026-08-13T18:45:42Z</time></trkpt>
<trkpt lat="35.193729" lon="-84.899676"><ele>224.9</ele><time>2026-08-13T18:45:45Z</time></trkpt>
<trkpt lat="35.193689" lon="-84.899677"><ele>224.6</ele><time>2026-08-13T18:45:48Z</time></trkpt>
<trkpt lat="35.19366" lon="-84.899675"><ele>224.6</ele><time>2026-08-13T18:45:50Z</time></trkpt>
<trkpt lat="35.19363" lon="-84.899672"><ele>224.6</ele><time>2026-08-13T18:45:52Z</time></trkpt>
<trkpt lat="35.193599" lon="-84.899671"><ele>224.9</ele><time>2026-08-13T18:45:54Z</time></trkpt>
<trkpt lat="35.193569" lon="-84.899667"><ele>224.9</ele><time>2026-08-13T18:45:56Z</time></trkpt>
<trkpt lat="35.193539" lon="-84.899668"><ele>224.9</ele><time>2026-08-13T18:45:58Z</time></trkpt>
<trkpt lat="35.193507" lon="-84.899669"><ele>224.6</ele><time>2026-08-13T18:46:00Z</time></trkpt>
<trkpt lat="35.193478" lon="-84.899675"><ele>224.6</ele><time>2026-08-13T18:46:02Z</time></trkpt>
<trkpt lat="35.19345" lon="-84.899683"><ele>224.6</ele><time>2026-08-13T18:46:04Z</time></trkpt>
<trkpt lat="35.193422" lon="-84.899696"><ele>224.6</ele><time>2026-08-13T18:46:06Z</time></trkpt>
<trkpt lat="35.193395" lon="-84.899709"><ele>224.6</ele><time>2026-08-13T18:46:08Z</time></trkpt>
<trkpt lat="35.193367" lon="-84.899722"><ele>224.3</ele><time>2026-08-13T18:46:10Z</time></trkpt>
<trkpt lat="35.193341" lon="-84.899736"><ele>224.6</ele><time>2026-08-13T18:46:12Z</time></trkpt>
<trkpt lat="35.193304" lon="-84.899756"><ele>224.3</ele><time>2026-08-13T18:46:15Z</time></trkpt>
<trkpt lat="35.193279" lon="-84.89977"><ele>224.6</ele><time>2026-08-13T18:46:17Z</time></trkpt>
<trkpt lat="35.193253" lon="-84.899786"><ele>224.9</ele><time>2026-08-13T18:46:19Z</time></trkpt>
<trkpt lat="35.193217" lon="-84.899802"><ele>224.0</ele><time>2026-08-13T18:46:22Z</time></trkpt>
<trkpt lat="35.193182" lon="-84.899823"><ele>223.7</ele><time>2026-08-13T18:46:25Z</time></trkpt>
<trkpt lat="35.193146" lon="-84.899848"><ele>223.4</ele><time>2026-08-13T18:46:28Z</time></trkpt>
<trkpt lat="35.19312" lon="-84.899868"><ele>223.1</ele><time>2026-08-13T18:46:30Z</time></trkpt>
<trkpt lat="35.193093" lon="-84.899883"><ele>223.4</ele><time>2026-08-13T18:46:32Z</time></trkpt>
<trkpt lat="35.193064" lon="-84.899891"><ele>223.4</ele><time>2026-08-13T18:46:34Z</time></trkpt>
<trkpt lat="35.193033" lon="-84.899896"><ele>223.4</ele><time>2026-08-13T18:46:36Z</time></trkpt>
<trkpt lat="35.193002" lon="-84.899896"><ele>223.7</ele><time>2026-08-13T18:46:38Z</time></trkpt>
<trkpt lat="35.192973" lon="-84.899892"><ele>223.7</ele><time>2026-08-13T18:46:40Z</time></trkpt>
<trkpt lat="35.192943" lon="-84.899886"><ele>223.1</ele><time>2026-08-13T18:46:42Z</time></trkpt>
<trkpt lat="35.19291" lon="-84.899887"><ele>223.4</ele><time>2026-08-13T18:46:44Z</time></trkpt>
<trkpt lat="35.192878" lon="-84.899898"><ele>223.4</ele><time>2026-08-13T18:46:46Z</time></trkpt>
<trkpt lat="35.192849" lon="-84.89991"><ele>223.7</ele><time>2026-08-13T18:46:48Z</time></trkpt>
<trkpt lat="35.192823" lon="-84.899929"><ele>223.7</ele><time>2026-08-13T18:46:50Z</time></trkpt>
<trkpt lat="35.192798" lon="-84.899946"><ele>223.7</ele><time>2026-08-13T18:46:52Z</time></trkpt>
<trkpt lat="35.192772" lon="-84.899964"><ele>223.7</ele><time>2026-08-13T18:46:54Z</time></trkpt>
<trkpt lat="35.192747" lon="-84.899983"><ele>224.3</ele><time>2026-08-13T18:46:56Z</time></trkpt>
<trkpt lat="35.19272" lon="-84.899995"><ele>223.7</ele><time>2026-08-13T18:46:58Z</time></trkpt>
<trkpt lat="35.192694" lon="-84.900008"><ele>224.0</ele><time>2026-08-13T18:47:00Z</time></trkpt>
<trkpt lat="35.192669" lon="-84.900023"><ele>223.7</ele><time>2026-08-13T18:47:02Z</time></trkpt>
<trkpt lat="35.192646" lon="-84.90004"><ele>222.8</ele><time>2026-08-13T18:47:04Z</time></trkpt>
<trkpt lat="35.192612" lon="-84.900065"><ele>222.2</ele><time>2026-08-13T18:47:07Z</time></trkpt>
<trkpt lat="35.192587" lon="-84.900079"><ele>221.9</ele><time>2026-08-13T18:47:09Z</time></trkpt>
<trkpt lat="35.192563" lon="-84.900095"><ele>222.2</ele><time>2026-08-13T18:47:11Z</time></trkpt>
<trkpt lat="35.192535" lon="-84.900113"><ele>222.2</ele><time>2026-08-13T18:47:13Z</time></trkpt>
<trkpt lat="35.192509" lon="-84.900134"><ele>222.5</ele><time>2026-08-13T18:47:15Z</time></trkpt>
<trkpt lat="35.192475" lon="-84.900162"><ele>222.2</ele><time>2026-08-13T18:47:18Z</time></trkpt>
<trkpt lat="35.19245" lon="-84.900187"><ele>222.2</ele><time>2026-08-13T18:47:20Z</time></trkpt>
<trkpt lat="35.192428" lon="-84.900211"><ele>222.2</ele><time>2026-08-13T18:47:22Z</time></trkpt>
<trkpt lat="35.192407" lon="-84.900233"><ele>221.9</ele><time>2026-08-13T18:47:24Z</time></trkpt>
<trkpt lat="35.192383" lon="-84.900256"><ele>221.9</ele><time>2026-08-13T18:47:26Z</time></trkpt>
<trkpt lat="35.192352" lon="-84.900286"><ele>221.3</ele><time>2026-08-13T18:47:29Z</time></trkpt>
<trkpt lat="35.192337" lon="-84.900317"><ele>220.7</ele><time>2026-08-13T18:47:31Z</time></trkpt>
<trkpt lat="35.192311" lon="-84.900353"><ele>220.1</ele><time>2026-08-13T18:47:34Z</time></trkpt>
<trkpt lat="35.192287" lon="-84.900374"><ele>219.5</ele><time>2026-08-13T18:47:36Z</time></trkpt>
<trkpt lat="35.192263" lon="-84.900393"><ele>219.5</ele><time>2026-08-13T18:47:38Z</time></trkpt>
<trkpt lat="35.192237" lon="-84.900414"><ele>219.8</ele><time>2026-08-13T18:47:40Z</time></trkpt>
<trkpt lat="35.192211" lon="-84.900434"><ele>220.1</ele><time>2026-08-13T18:47:42Z</time></trkpt>
<trkpt lat="35.192184" lon="-84.900456"><ele>219.8</ele><time>2026-08-13T18:47:44Z</time></trkpt>
<trkpt lat="35.192153" lon="-84.900474"><ele>219.5</ele><time>2026-08-13T18:47:46Z</time></trkpt>
<trkpt lat="35.192127" lon="-84.900489"><ele>219.2</ele><time>2026-08-13T18:47:48Z</time></trkpt>
<trkpt lat="35.192103" lon="-84.900507"><ele>218.8</ele><time>2026-08-13T18:47:50Z</time></trkpt>
<trkpt lat="35.192078" lon="-84.900521"><ele>218.5</ele><time>2026-08-13T18:47:52Z</time></trkpt>
<trkpt lat="35.19205" lon="-84.900532"><ele>218.5</ele><time>2026-08-13T18:47:54Z</time></trkpt>
<trkpt lat="35.192021" lon="-84.900537"><ele>218.2</ele><time>2026-08-13T18:47:56Z</time></trkpt>
<trkpt lat="35.191994" lon="-84.90053"><ele>218.2</ele><time>2026-08-13T18:47:58Z</time></trkpt>
<trkpt lat="35.191973" lon="-84.900507"><ele>218.8</ele><time>2026-08-13T18:48:00Z</time></trkpt>
<trkpt lat="35.191958" lon="-84.900461"><ele>218.8</ele><time>2026-08-13T18:48:03Z</time></trkpt>
<trkpt lat="35.191955" lon="-84.900421"><ele>219.2</ele><time>2026-08-13T18:48:05Z</time></trkpt>
<trkpt lat="35.191949" lon="-84.900384"><ele>219.5</ele><time>2026-08-13T18:48:07Z</time></trkpt>
<trkpt lat="35.191952" lon="-84.900344"><ele>220.4</ele><time>2026-08-13T18:48:09Z</time></trkpt>
<trkpt lat="35.191949" lon="-84.900309"><ele>221.0</ele><time>2026-08-13T18:48:11Z</time></trkpt>
<trkpt lat="35.191941" lon="-84.900276"><ele>221.0</ele><time>2026-08-13T18:48:13Z</time></trkpt>
<trkpt lat="35.191931" lon="-84.900243"><ele>221.3</ele><time>2026-08-13T18:48:15Z</time></trkpt>
<trkpt lat="35.191913" lon="-84.900215"><ele>221.0</ele><time>2026-08-13T18:48:17Z</time></trkpt>
<trkpt lat="35.19189" lon="-84.900192"><ele>221.3</ele><time>2026-08-13T18:48:19Z</time></trkpt>
<trkpt lat="35.191865" lon="-84.900173"><ele>221.3</ele><time>2026-08-13T18:48:21Z</time></trkpt>
<trkpt lat="35.191836" lon="-84.900158"><ele>221.0</ele><time>2026-08-13T18:48:23Z</time></trkpt>
<trkpt lat="35.191809" lon="-84.90014"><ele>220.7</ele><time>2026-08-13T18:48:25Z</time></trkpt>
<trkpt lat="35.191782" lon="-84.900129"><ele>220.4</ele><time>2026-08-13T18:48:27Z</time></trkpt>
<trkpt lat="35.191755" lon="-84.900115"><ele>220.1</ele><time>2026-08-13T18:48:29Z</time></trkpt>
<trkpt lat="35.191726" lon="-84.900104"><ele>219.8</ele><time>2026-08-13T18:48:31Z</time></trkpt>
<trkpt lat="35.1917" lon="-84.900088"><ele>220.1</ele><time>2026-08-13T18:48:33Z</time></trkpt>
<trkpt lat="35.191674" lon="-84.900074"><ele>221.0</ele><time>2026-08-13T18:48:35Z</time></trkpt>
<trkpt lat="35.191649" lon="-84.900059"><ele>220.7</ele><time>2026-08-13T18:48:37Z</time></trkpt>
<trkpt lat="35.191621" lon="-84.900048"><ele>219.5</ele><time>2026-08-13T18:48:39Z</time></trkpt>
<trkpt lat="35.191595" lon="-84.900033"><ele>219.8</ele><time>2026-08-13T18:48:41Z</time></trkpt>
<trkpt lat="35.191567" lon="-84.900023"><ele>219.2</ele><time>2026-08-13T18:48:43Z</time></trkpt>
<trkpt lat="35.191541" lon="-84.900009"><ele>220.4</ele><time>2026-08-13T18:48:45Z</time></trkpt>
<trkpt lat="35.191517" lon="-84.899994"><ele>220.7</ele><time>2026-08-13T18:48:47Z</time></trkpt>
<trkpt lat="35.19149" lon="-84.899984"><ele>220.7</ele><time>2026-08-13T18:48:49Z</time></trkpt>
<trkpt lat="35.191462" lon="-84.899986"><ele>220.7</ele><time>2026-08-13T18:48:51Z</time></trkpt>
<trkpt lat="35.191443" lon="-84.900012"><ele>221.0</ele><time>2026-08-13T18:48:53Z</time></trkpt>
<trkpt lat="35.191429" lon="-84.900042"><ele>221.9</ele><time>2026-08-13T18:48:55Z</time></trkpt>
<trkpt lat="35.191417" lon="-84.90009"><ele>221.6</ele><time>2026-08-13T18:48:58Z</time></trkpt>
<trkpt lat="35.191414" lon="-84.900124"><ele>221.6</ele><time>2026-08-13T18:49:00Z</time></trkpt>
<trkpt lat="35.191401" lon="-84.90017"><ele>220.4</ele><time>2026-08-13T18:49:03Z</time></trkpt>
<trkpt lat="35.191391" lon="-84.900202"><ele>219.5</ele><time>2026-08-13T18:49:05Z</time></trkpt>
<trkpt lat="35.191379" lon="-84.900251"><ele>219.8</ele><time>2026-08-13T18:49:08Z</time></trkpt>
<trkpt lat="35.191365" lon="-84.900282"><ele>220.1</ele><time>2026-08-13T18:49:10Z</time></trkpt>
<trkpt lat="35.191352" lon="-84.900312"><ele>221.0</ele><time>2026-08-13T18:49:12Z</time></trkpt>
<trkpt lat="35.191337" lon="-84.900343"><ele>221.3</ele><time>2026-08-13T18:49:14Z</time></trkpt>
<trkpt lat="35.191321" lon="-84.900373"><ele>222.2</ele><time>2026-08-13T18:49:16Z</time></trkpt>
<trkpt lat="35.191306" lon="-84.900403"><ele>220.7</ele><time>2026-08-13T18:49:18Z</time></trkpt>
<trkpt lat="35.191289" lon="-84.900432"><ele>220.4</ele><time>2026-08-13T18:49:20Z</time></trkpt>
<trkpt lat="35.191272" lon="-84.900462"><ele>219.5</ele><time>2026-08-13T18:49:22Z</time></trkpt>
<trkpt lat="35.191258" lon="-84.900492"><ele>220.7</ele><time>2026-08-13T18:49:24Z</time></trkpt>
<trkpt lat="35.191248" lon="-84.900526"><ele>220.4</ele><time>2026-08-13T18:49:26Z</time></trkpt>
<trkpt lat="35.19123" lon="-84.900569"><ele>221.6</ele><time>2026-08-13T18:49:29Z</time></trkpt>
<trkpt lat="35.191212" lon="-84.900597"><ele>220.7</ele><time>2026-08-13T18:49:31Z</time></trkpt>
<trkpt lat="35.191197" lon="-84.900627"><ele>221.0</ele><time>2026-08-13T18:49:33Z</time></trkpt>
<trkpt lat="35.191174" lon="-84.900665"><ele>220.7</ele><time>2026-08-13T18:49:36Z</time></trkpt>
<trkpt lat="35.191164" lon="-84.900698"><ele>221.6</ele><time>2026-08-13T18:49:38Z</time></trkpt>
<trkpt lat="35.191155" lon="-84.900731"><ele>221.6</ele><time>2026-08-13T18:49:40Z</time></trkpt>
<trkpt lat="35.191136" lon="-84.900759"><ele>221.6</ele><time>2026-08-13T18:49:42Z</time></trkpt>
<trkpt lat="35.191109" lon="-84.900751"><ele>223.4</ele><time>2026-08-13T18:49:44Z</time></trkpt>
<trkpt lat="35.191108" lon="-84.900743"><ele>224.0</ele><time>2026-08-13T18:49:45Z</time></trkpt>
<trkpt lat="35.191107" lon="-84.900741"><ele>224.0</ele><time>2026-08-13T18:49:47Z</time></trkpt>
<trkpt lat="35.191089" lon="-84.900735"><ele>224.6</ele><time>2026-08-13T18:49:48Z</time></trkpt>
<trkpt lat="35.191067" lon="-84.900766"><ele>223.4</ele><time>2026-08-13T18:49:51Z</time></trkpt>
<trkpt lat="35.191065" lon="-84.900818"><ele>221.9</ele><time>2026-08-13T18:49:54Z</time></trkpt>
<trkpt lat="35.19106" lon="-84.900856"><ele>221.0</ele><time>2026-08-13T18:49:56Z</time></trkpt>
<trkpt lat="35.191057" lon="-84.900894"><ele>220.1</ele><time>2026-08-13T18:49:58Z</time></trkpt>
<trkpt lat="35.191048" lon="-84.900927"><ele>221.0</ele><time>2026-08-13T18:50:00Z</time></trkpt>
<trkpt lat="35.191046" lon="-84.900961"><ele>220.7</ele><time>2026-08-13T18:50:02Z</time></trkpt>
<trkpt lat="35.191032" lon="-84.900993"><ele>220.1</ele><time>2026-08-13T18:50:04Z</time></trkpt>
<trkpt lat="35.19102" lon="-84.901024"><ele>220.7</ele><time>2026-08-13T18:50:06Z</time></trkpt>
<trkpt lat="35.191001" lon="-84.901054"><ele>220.4</ele><time>2026-08-13T18:50:08Z</time></trkpt>
<trkpt lat="35.190986" lon="-84.901082"><ele>221.0</ele><time>2026-08-13T18:50:10Z</time></trkpt>
<trkpt lat="35.190963" lon="-84.90112"><ele>222.8</ele><time>2026-08-13T18:50:13Z</time></trkpt>
<trkpt lat="35.19094" lon="-84.90116"><ele>222.2</ele><time>2026-08-13T18:50:16Z</time></trkpt>
<trkpt lat="35.190915" lon="-84.901199"><ele>221.9</ele><time>2026-08-13T18:50:19Z</time></trkpt>
<trkpt lat="35.190896" lon="-84.901224"><ele>221.3</ele><time>2026-08-13T18:50:21Z</time></trkpt>
<trkpt lat="35.190882" lon="-84.901253"><ele>221.0</ele><time>2026-08-13T18:50:23Z</time></trkpt>
<trkpt lat="35.190864" lon="-84.901297"><ele>221.6</ele><time>2026-08-13T18:50:26Z</time></trkpt>
<trkpt lat="35.190842" lon="-84.901338"><ele>221.9</ele><time>2026-08-13T18:50:29Z</time></trkpt>
<trkpt lat="35.190818" lon="-84.901378"><ele>222.8</ele><time>2026-08-13T18:50:32Z</time></trkpt>
<trkpt lat="35.190791" lon="-84.901412"><ele>223.1</ele><time>2026-08-13T18:50:35Z</time></trkpt>
<trkpt lat="35.190773" lon="-84.901438"><ele>222.5</ele><time>2026-08-13T18:50:37Z</time></trkpt>
<trkpt lat="35.190752" lon="-84.90148"><ele>221.6</ele><time>2026-08-13T18:50:40Z</time></trkpt>
<trkpt lat="35.190733" lon="-84.901506"><ele>221.6</ele><time>2026-08-13T18:50:42Z</time></trkpt>
<trkpt lat="35.190718" lon="-84.901535"><ele>221.6</ele><time>2026-08-13T18:50:44Z</time></trkpt>
<trkpt lat="35.190703" lon="-84.901566"><ele>221.0</ele><time>2026-08-13T18:50:46Z</time></trkpt>
<trkpt lat="35.190685" lon="-84.901596"><ele>221.9</ele><time>2026-08-13T18:50:48Z</time></trkpt>
<trkpt lat="35.190668" lon="-84.901626"><ele>221.6</ele><time>2026-08-13T18:50:50Z</time></trkpt>
<trkpt lat="35.190659" lon="-84.901675"><ele>220.7</ele><time>2026-08-13T18:50:53Z</time></trkpt>
<trkpt lat="35.190643" lon="-84.901706"><ele>220.7</ele><time>2026-08-13T18:50:55Z</time></trkpt>
<trkpt lat="35.190633" lon="-84.901738"><ele>221.3</ele><time>2026-08-13T18:50:57Z</time></trkpt>
<trkpt lat="35.19061" lon="-84.901782"><ele>220.7</ele><time>2026-08-13T18:51:00Z</time></trkpt>
<trkpt lat="35.190599" lon="-84.901815"><ele>220.1</ele><time>2026-08-13T18:51:02Z</time></trkpt>
<trkpt lat="35.190583" lon="-84.901844"><ele>220.1</ele><time>2026-08-13T18:51:04Z</time></trkpt>
<trkpt lat="35.19056" lon="-84.901886"><ele>221.0</ele><time>2026-08-13T18:51:07Z</time></trkpt>
<trkpt lat="35.190536" lon="-84.901925"><ele>221.3</ele><time>2026-08-13T18:51:10Z</time></trkpt>
<trkpt lat="35.190519" lon="-84.901968"><ele>219.2</ele><time>2026-08-13T18:51:13Z</time></trkpt>
<trkpt lat="35.190508" lon="-84.902"><ele>218.8</ele><time>2026-08-13T18:51:15Z</time></trkpt>
<trkpt lat="35.190491" lon="-84.902026"><ele>219.5</ele><time>2026-08-13T18:51:17Z</time></trkpt>
<trkpt lat="35.190472" lon="-84.902071"><ele>219.5</ele><time>2026-08-13T18:51:20Z</time></trkpt>
<trkpt lat="35.190455" lon="-84.902099"><ele>219.5</ele><time>2026-08-13T18:51:22Z</time></trkpt>
<trkpt lat="35.190445" lon="-84.902132"><ele>219.2</ele><time>2026-08-13T18:51:24Z</time></trkpt>
<trkpt lat="35.190428" lon="-84.902163"><ele>219.5</ele><time>2026-08-13T18:51:26Z</time></trkpt>
<trkpt lat="35.190405" lon="-84.902203"><ele>219.5</ele><time>2026-08-13T18:51:29Z</time></trkpt>
<trkpt lat="35.190377" lon="-84.90224"><ele>219.5</ele><time>2026-08-13T18:51:32Z</time></trkpt>
<trkpt lat="35.190359" lon="-84.902267"><ele>218.5</ele><time>2026-08-13T18:51:34Z</time></trkpt>
<trkpt lat="35.190345" lon="-84.902298"><ele>218.5</ele><time>2026-08-13T18:51:36Z</time></trkpt>
<trkpt lat="35.190329" lon="-84.902328"><ele>218.2</ele><time>2026-08-13T18:51:38Z</time></trkpt>
<trkpt lat="35.190312" lon="-84.902358"><ele>218.8</ele><time>2026-08-13T18:51:40Z</time></trkpt>
<trkpt lat="35.190297" lon="-84.902387"><ele>219.5</ele><time>2026-08-13T18:51:42Z</time></trkpt>
<trkpt lat="35.190276" lon="-84.902428"><ele>219.8</ele><time>2026-08-13T18:51:45Z</time></trkpt>
<trkpt lat="35.190254" lon="-84.902465"><ele>220.1</ele><time>2026-08-13T18:51:48Z</time></trkpt>
<trkpt lat="35.190222" lon="-84.902494"><ele>220.7</ele><time>2026-08-13T18:51:51Z</time></trkpt>
<trkpt lat="35.190197" lon="-84.90251"><ele>221.3</ele><time>2026-08-13T18:51:53Z</time></trkpt>
<trkpt lat="35.190172" lon="-84.902528"><ele>221.0</ele><time>2026-08-13T18:51:55Z</time></trkpt>
<trkpt lat="35.190144" lon="-84.902539"><ele>221.3</ele><time>2026-08-13T18:51:57Z</time></trkpt>
<trkpt lat="35.190115" lon="-84.902544"><ele>221.6</ele><time>2026-08-13T18:51:59Z</time></trkpt>
<trkpt lat="35.190085" lon="-84.902543"><ele>221.3</ele><time>2026-08-13T18:52:01Z</time></trkpt>
<trkpt lat="35.190055" lon="-84.902538"><ele>220.7</ele><time>2026-08-13T18:52:03Z</time></trkpt>
<trkpt lat="35.190027" lon="-84.902537"><ele>221.9</ele><time>2026-08-13T18:52:05Z</time></trkpt>
<trkpt lat="35.189987" lon="-84.902528"><ele>223.1</ele><time>2026-08-13T18:52:08Z</time></trkpt>
<trkpt lat="35.189947" lon="-84.902521"><ele>222.8</ele><time>2026-08-13T18:52:11Z</time></trkpt>
<trkpt lat="35.189914" lon="-84.902504"><ele>223.4</ele><time>2026-08-13T18:52:14Z</time></trkpt>
<trkpt lat="35.189879" lon="-84.902484"><ele>222.8</ele><time>2026-08-13T18:52:17Z</time></trkpt>
<trkpt lat="35.18985" lon="-84.902481"><ele>222.8</ele><time>2026-08-13T18:52:19Z</time></trkpt>
<trkpt lat="35.189822" lon="-84.902481"><ele>222.2</ele><time>2026-08-13T18:52:21Z</time></trkpt>
<trkpt lat="35.189784" lon="-84.902489"><ele>222.2</ele><time>2026-08-13T18:52:24Z</time></trkpt>
<trkpt lat="35.189743" lon="-84.902492"><ele>222.8</ele><time>2026-08-13T18:52:27Z</time></trkpt>
<trkpt lat="35.189715" lon="-84.902497"><ele>222.2</ele><time>2026-08-13T18:52:29Z</time></trkpt>
<trkpt lat="35.189687" lon="-84.902488"><ele>220.1</ele><time>2026-08-13T18:52:31Z</time></trkpt>
<trkpt lat="35.189662" lon="-84.902469"><ele>219.2</ele><time>2026-08-13T18:52:33Z</time></trkpt>
<trkpt lat="35.189639" lon="-84.902449"><ele>217.9</ele><time>2026-08-13T18:52:35Z</time></trkpt>
<trkpt lat="35.189614" lon="-84.902435"><ele>218.5</ele><time>2026-08-13T18:52:37Z</time></trkpt>
<trkpt lat="35.189597" lon="-84.902406"><ele>218.5</ele><time>2026-08-13T18:52:39Z</time></trkpt>
<trkpt lat="35.18957" lon="-84.902376"><ele>220.7</ele><time>2026-08-13T18:52:42Z</time></trkpt>
<trkpt lat="35.189538" lon="-84.902357"><ele>221.3</ele><time>2026-08-13T18:52:45Z</time></trkpt>
<trkpt lat="35.189505" lon="-84.902334"><ele>221.3</ele><time>2026-08-13T18:52:48Z</time></trkpt>
<trkpt lat="35.189465" lon="-84.902324"><ele>220.4</ele><time>2026-08-13T18:52:51Z</time></trkpt>
<trkpt lat="35.189437" lon="-84.902312"><ele>218.8</ele><time>2026-08-13T18:52:53Z</time></trkpt>
<trkpt lat="35.189404" lon="-84.902308"><ele>220.7</ele><time>2026-08-13T18:52:55Z</time></trkpt>
<trkpt lat="35.189368" lon="-84.90231"><ele>222.5</ele><time>2026-08-13T18:52:57Z</time></trkpt>
<trkpt lat="35.189336" lon="-84.902309"><ele>221.9</ele><time>2026-08-13T18:52:59Z</time></trkpt>
<trkpt lat="35.189308" lon="-84.902306"><ele>221.9</ele><time>2026-08-13T18:53:01Z</time></trkpt>
<trkpt lat="35.189268" lon="-84.902306"><ele>222.8</ele><time>2026-08-13T18:53:04Z</time></trkpt>
<trkpt lat="35.189239" lon="-84.902305"><ele>222.8</ele><time>2026-08-13T18:53:06Z</time></trkpt>
<trkpt lat="35.189198" lon="-84.902299"><ele>222.5</ele><time>2026-08-13T18:53:09Z</time></trkpt>
<trkpt lat="35.189158" lon="-84.9023"><ele>221.9</ele><time>2026-08-13T18:53:12Z</time></trkpt>
<trkpt lat="35.189117" lon="-84.902299"><ele>222.5</ele><time>2026-08-13T18:53:15Z</time></trkpt>
<trkpt lat="35.189082" lon="-84.902296"><ele>221.9</ele><time>2026-08-13T18:53:18Z</time></trkpt>
<trkpt lat="35.189045" lon="-84.902289"><ele>222.5</ele><time>2026-08-13T18:53:21Z</time></trkpt>
<trkpt lat="35.189004" lon="-84.902279"><ele>221.6</ele><time>2026-08-13T18:53:24Z</time></trkpt>
<trkpt lat="35.188977" lon="-84.902278"><ele>220.7</ele><time>2026-08-13T18:53:26Z</time></trkpt>
<trkpt lat="35.188939" lon="-84.902271"><ele>222.2</ele><time>2026-08-13T18:53:29Z</time></trkpt>
<trkpt lat="35.188909" lon="-84.902268"><ele>222.5</ele><time>2026-08-13T18:53:31Z</time></trkpt>
<trkpt lat="35.188881" lon="-84.902265"><ele>222.5</ele><time>2026-08-13T18:53:33Z</time></trkpt>
<trkpt lat="35.188853" lon="-84.902266"><ele>221.9</ele><time>2026-08-13T18:53:35Z</time></trkpt>
<trkpt lat="35.188814" lon="-84.902265"><ele>221.6</ele><time>2026-08-13T18:53:38Z</time></trkpt>
<trkpt lat="35.188775" lon="-84.902266"><ele>221.6</ele><time>2026-08-13T18:53:41Z</time></trkpt>
<trkpt lat="35.188746" lon="-84.902263"><ele>222.2</ele><time>2026-08-13T18:53:43Z</time></trkpt>
<trkpt lat="35.188716" lon="-84.902263"><ele>221.0</ele><time>2026-08-13T18:53:45Z</time></trkpt>
<trkpt lat="35.188688" lon="-84.902263"><ele>219.8</ele><time>2026-08-13T18:53:47Z</time></trkpt>
<trkpt lat="35.188659" lon="-84.902262"><ele>220.7</ele><time>2026-08-13T18:53:49Z</time></trkpt>
<trkpt lat="35.188617" lon="-84.902266"><ele>221.0</ele><time>2026-08-13T18:53:52Z</time></trkpt>
<trkpt lat="35.188588" lon="-84.902262"><ele>224.3</ele><time>2026-08-13T18:53:54Z</time></trkpt>
<trkpt lat="35.188563" lon="-84.902276"><ele>224.9</ele><time>2026-08-13T18:53:56Z</time></trkpt>
<trkpt lat="35.188534" lon="-84.902281"><ele>225.2</ele><time>2026-08-13T18:53:58Z</time></trkpt>
<trkpt lat="35.188504" lon="-84.902283"><ele>223.4</ele><time>2026-08-13T18:54:01Z</time></trkpt>
<trkpt lat="35.188467" lon="-84.902283"><ele>222.5</ele><time>2026-08-13T18:54:04Z</time></trkpt>
<trkpt lat="35.188429" lon="-84.902277"><ele>222.8</ele><time>2026-08-13T18:54:07Z</time></trkpt>
<trkpt lat="35.188399" lon="-84.902276"><ele>223.4</ele><time>2026-08-13T18:54:09Z</time></trkpt>
<trkpt lat="35.188362" lon="-84.902287"><ele>222.2</ele><time>2026-08-13T18:54:12Z</time></trkpt>
<trkpt lat="35.188334" lon="-84.902284"><ele>222.5</ele><time>2026-08-13T18:54:14Z</time></trkpt>
<trkpt lat="35.188292" lon="-84.902298"><ele>222.2</ele><time>2026-08-13T18:54:17Z</time></trkpt>
<trkpt lat="35.188264" lon="-84.902297"><ele>221.9</ele><time>2026-08-13T18:54:19Z</time></trkpt>
<trkpt lat="35.188224" lon="-84.902311"><ele>222.2</ele><time>2026-08-13T18:54:22Z</time></trkpt>
<trkpt lat="35.188196" lon="-84.902308"><ele>222.5</ele><time>2026-08-13T18:54:24Z</time></trkpt>
<trkpt lat="35.188164" lon="-84.902306"><ele>223.1</ele><time>2026-08-13T18:54:26Z</time></trkpt>
<trkpt lat="35.188136" lon="-84.902308"><ele>224.0</ele><time>2026-08-13T18:54:28Z</time></trkpt>
<trkpt lat="35.188108" lon="-84.90231"><ele>223.4</ele><time>2026-08-13T18:54:30Z</time></trkpt>
<trkpt lat="35.188069" lon="-84.902326"><ele>223.7</ele><time>2026-08-13T18:54:33Z</time></trkpt>
<trkpt lat="35.18804" lon="-84.902346"><ele>224.6</ele><time>2026-08-13T18:54:35Z</time></trkpt>
<trkpt lat="35.188014" lon="-84.902366"><ele>224.3</ele><time>2026-08-13T18:54:37Z</time></trkpt>
<trkpt lat="35.187985" lon="-84.902379"><ele>223.4</ele><time>2026-08-13T18:54:39Z</time></trkpt>
<trkpt lat="35.187959" lon="-84.902396"><ele>222.2</ele><time>2026-08-13T18:54:41Z</time></trkpt>
<trkpt lat="35.187929" lon="-84.902407"><ele>221.3</ele><time>2026-08-13T18:54:43Z</time></trkpt>
<trkpt lat="35.1879" lon="-84.90242"><ele>221.3</ele><time>2026-08-13T18:54:45Z</time></trkpt>
<trkpt lat="35.187871" lon="-84.902427"><ele>221.0</ele><time>2026-08-13T18:54:47Z</time></trkpt>
<trkpt lat="35.187842" lon="-84.902426"><ele>222.2</ele><time>2026-08-13T18:54:49Z</time></trkpt>
<trkpt lat="35.187803" lon="-84.902413"><ele>221.9</ele><time>2026-08-13T18:54:52Z</time></trkpt>
<trkpt lat="35.187775" lon="-84.902408"><ele>222.2</ele><time>2026-08-13T18:54:54Z</time></trkpt>
<trkpt lat="35.187747" lon="-84.902398"><ele>221.9</ele><time>2026-08-13T18:54:56Z</time></trkpt>
<trkpt lat="35.187718" lon="-84.902382"><ele>221.9</ele><time>2026-08-13T18:54:58Z</time></trkpt>
<trkpt lat="35.187688" lon="-84.902373"><ele>221.9</ele><time>2026-08-13T18:55:00Z</time></trkpt>
<trkpt lat="35.187649" lon="-84.902375"><ele>222.5</ele><time>2026-08-13T18:55:03Z</time></trkpt>
<trkpt lat="35.187616" lon="-84.902387"><ele>221.9</ele><time>2026-08-13T18:55:06Z</time></trkpt>
<trkpt lat="35.187585" lon="-84.902404"><ele>222.2</ele><time>2026-08-13T18:55:09Z</time></trkpt>
<trkpt lat="35.18758" lon="-84.90236"><ele>224.9</ele><time>2026-08-13T18:55:11Z</time></trkpt>
<trkpt lat="35.187553" lon="-84.902352"><ele>225.9</ele><time>2026-08-13T18:55:14Z</time></trkpt>
<trkpt lat="35.187542" lon="-84.902321"><ele>229.8</ele><time>2026-08-13T18:55:17Z</time></trkpt>
<trkpt lat="35.187545" lon="-84.902278"><ele>228.0</ele><time>2026-08-13T18:55:21Z</time></trkpt>
<trkpt lat="35.187594" lon="-84.902271"><ele>228.3</ele><time>2026-08-13T18:55:23Z</time></trkpt>
<trkpt lat="35.187625" lon="-84.902288"><ele>225.2</ele><time>2026-08-13T18:55:24Z</time></trkpt>
<trkpt lat="35.187652" lon="-84.902308"><ele>224.6</ele><time>2026-08-13T18:55:25Z</time></trkpt>
<trkpt lat="35.18768" lon="-84.902326"><ele>223.7</ele><time>2026-08-13T18:55:26Z</time></trkpt>
<trkpt lat="35.187707" lon="-84.90234"><ele>224.0</ele><time>2026-08-13T18:55:27Z</time></trkpt>
<trkpt lat="35.187741" lon="-84.902358"><ele>224.6</ele><time>2026-08-13T18:55:28Z</time></trkpt>
<trkpt lat="35.187771" lon="-84.902373"><ele>224.6</ele><time>2026-08-13T18:55:29Z</time></trkpt>
<trkpt lat="35.187823" lon="-84.902384"><ele>224.6</ele><time>2026-08-13T18:55:31Z</time></trkpt>
<trkpt lat="35.187865" lon="-84.902387"><ele>224.3</ele><time>2026-08-13T18:55:33Z</time></trkpt>
<trkpt lat="35.187896" lon="-84.902381"><ele>224.0</ele><time>2026-08-13T18:55:35Z</time></trkpt>
<trkpt lat="35.187925" lon="-84.902372"><ele>222.2</ele><time>2026-08-13T18:55:37Z</time></trkpt>
<trkpt lat="35.187955" lon="-84.902362"><ele>220.7</ele><time>2026-08-13T18:55:39Z</time></trkpt>
<trkpt lat="35.187986" lon="-84.902355"><ele>221.6</ele><time>2026-08-13T18:55:41Z</time></trkpt>
<trkpt lat="35.188015" lon="-84.902349"><ele>222.8</ele><time>2026-08-13T18:55:43Z</time></trkpt>
<trkpt lat="35.188043" lon="-84.902342"><ele>222.8</ele><time>2026-08-13T18:55:45Z</time></trkpt>
<trkpt lat="35.188073" lon="-84.902336"><ele>222.2</ele><time>2026-08-13T18:55:47Z</time></trkpt>
<trkpt lat="35.188106" lon="-84.902332"><ele>222.5</ele><time>2026-08-13T18:55:49Z</time></trkpt>
<trkpt lat="35.188135" lon="-84.902326"><ele>223.4</ele><time>2026-08-13T18:55:51Z</time></trkpt>
<trkpt lat="35.188175" lon="-84.902315"><ele>223.7</ele><time>2026-08-13T18:55:54Z</time></trkpt>
<trkpt lat="35.188205" lon="-84.902311"><ele>223.1</ele><time>2026-08-13T18:55:56Z</time></trkpt>
<trkpt lat="35.188234" lon="-84.90231"><ele>223.4</ele><time>2026-08-13T18:55:58Z</time></trkpt>
<trkpt lat="35.188263" lon="-84.902312"><ele>223.1</ele><time>2026-08-13T18:56:00Z</time></trkpt>
<trkpt lat="35.188292" lon="-84.902315"><ele>222.8</ele><time>2026-08-13T18:56:02Z</time></trkpt>
<trkpt lat="35.188321" lon="-84.902313"><ele>223.1</ele><time>2026-08-13T18:56:04Z</time></trkpt>
<trkpt lat="35.188353" lon="-84.902311"><ele>222.8</ele><time>2026-08-13T18:56:06Z</time></trkpt>
<trkpt lat="35.188383" lon="-84.902308"><ele>223.7</ele><time>2026-08-13T18:56:08Z</time></trkpt>
<trkpt lat="35.188411" lon="-84.902306"><ele>224.3</ele><time>2026-08-13T18:56:10Z</time></trkpt>
<trkpt lat="35.188439" lon="-84.9023"><ele>224.6</ele><time>2026-08-13T18:56:12Z</time></trkpt>
<trkpt lat="35.18848" lon="-84.902302"><ele>226.2</ele><time>2026-08-13T18:56:15Z</time></trkpt>
<trkpt lat="35.188522" lon="-84.902301"><ele>226.2</ele><time>2026-08-13T18:56:18Z</time></trkpt>
<trkpt lat="35.188552" lon="-84.902302"><ele>225.6</ele><time>2026-08-13T18:56:20Z</time></trkpt>
<trkpt lat="35.188591" lon="-84.902298"><ele>225.2</ele><time>2026-08-13T18:56:23Z</time></trkpt>
<trkpt lat="35.188631" lon="-84.902287"><ele>224.9</ele><time>2026-08-13T18:56:26Z</time></trkpt>
<trkpt lat="35.188659" lon="-84.902279"><ele>224.6</ele><time>2026-08-13T18:56:28Z</time></trkpt>
<trkpt lat="35.188688" lon="-84.902274"><ele>224.3</ele><time>2026-08-13T18:56:30Z</time></trkpt>
<trkpt lat="35.188717" lon="-84.902274"><ele>224.6</ele><time>2026-08-13T18:56:32Z</time></trkpt>
<trkpt lat="35.188746" lon="-84.902276"><ele>225.6</ele><time>2026-08-13T18:56:34Z</time></trkpt>
<trkpt lat="35.188775" lon="-84.902283"><ele>225.6</ele><time>2026-08-13T18:56:36Z</time></trkpt>
<trkpt lat="35.188803" lon="-84.902284"><ele>225.2</ele><time>2026-08-13T18:56:38Z</time></trkpt>
<trkpt lat="35.188834" lon="-84.902283"><ele>224.6</ele><time>2026-08-13T18:56:40Z</time></trkpt>
<trkpt lat="35.188865" lon="-84.902281"><ele>223.7</ele><time>2026-08-13T18:56:42Z</time></trkpt>
<trkpt lat="35.188895" lon="-84.902281"><ele>222.8</ele><time>2026-08-13T18:56:44Z</time></trkpt>
<trkpt lat="35.188925" lon="-84.902282"><ele>222.8</ele><time>2026-08-13T18:56:46Z</time></trkpt>
<trkpt lat="35.188957" lon="-84.902282"><ele>222.2</ele><time>2026-08-13T18:56:48Z</time></trkpt>
<trkpt lat="35.188986" lon="-84.902286"><ele>222.8</ele><time>2026-08-13T18:56:50Z</time></trkpt>
<trkpt lat="35.189025" lon="-84.902297"><ele>222.2</ele><time>2026-08-13T18:56:53Z</time></trkpt>
<trkpt lat="35.189055" lon="-84.9023"><ele>221.3</ele><time>2026-08-13T18:56:55Z</time></trkpt>
<trkpt lat="35.189086" lon="-84.9023"><ele>221.3</ele><time>2026-08-13T18:56:57Z</time></trkpt>
<trkpt lat="35.189115" lon="-84.902304"><ele>222.5</ele><time>2026-08-13T18:56:59Z</time></trkpt>
<trkpt lat="35.189143" lon="-84.902301"><ele>222.8</ele><time>2026-08-13T18:57:01Z</time></trkpt>
<trkpt lat="35.189172" lon="-84.902294"><ele>222.5</ele><time>2026-08-13T18:57:03Z</time></trkpt>
<trkpt lat="35.189201" lon="-84.902288"><ele>222.2</ele><time>2026-08-13T18:57:05Z</time></trkpt>
<trkpt lat="35.18923" lon="-84.902288"><ele>221.3</ele><time>2026-08-13T18:57:07Z</time></trkpt>
<trkpt lat="35.189259" lon="-84.902292"><ele>221.6</ele><time>2026-08-13T18:57:09Z</time></trkpt>
<trkpt lat="35.189287" lon="-84.902292"><ele>221.6</ele><time>2026-08-13T18:57:11Z</time></trkpt>
<trkpt lat="35.189327" lon="-84.902302"><ele>221.9</ele><time>2026-08-13T18:57:14Z</time></trkpt>
<trkpt lat="35.189358" lon="-84.902305"><ele>221.6</ele><time>2026-08-13T18:57:16Z</time></trkpt>
<trkpt lat="35.189386" lon="-84.90231"><ele>221.9</ele><time>2026-08-13T18:57:18Z</time></trkpt>
<trkpt lat="35.189428" lon="-84.902319"><ele>221.6</ele><time>2026-08-13T18:57:21Z</time></trkpt>
<trkpt lat="35.189455" lon="-84.902327"><ele>220.4</ele><time>2026-08-13T18:57:23Z</time></trkpt>
<trkpt lat="35.189497" lon="-84.90233"><ele>220.4</ele><time>2026-08-13T18:57:26Z</time></trkpt>
<trkpt lat="35.189522" lon="-84.902348"><ele>220.7</ele><time>2026-08-13T18:57:28Z</time></trkpt>
<trkpt lat="35.189548" lon="-84.902365"><ele>220.7</ele><time>2026-08-13T18:57:30Z</time></trkpt>
<trkpt lat="35.189579" lon="-84.902397"><ele>221.6</ele><time>2026-08-13T18:57:33Z</time></trkpt>
<trkpt lat="35.189598" lon="-84.902423"><ele>222.5</ele><time>2026-08-13T18:57:35Z</time></trkpt>
<trkpt lat="35.18962" lon="-84.902446"><ele>222.5</ele><time>2026-08-13T18:57:37Z</time></trkpt>
<trkpt lat="35.189642" lon="-84.90247"><ele>222.2</ele><time>2026-08-13T18:57:39Z</time></trkpt>
<trkpt lat="35.189668" lon="-84.902485"><ele>221.9</ele><time>2026-08-13T18:57:41Z</time></trkpt>
<trkpt lat="35.189698" lon="-84.902493"><ele>221.6</ele><time>2026-08-13T18:57:43Z</time></trkpt>
<trkpt lat="35.18973" lon="-84.902495"><ele>221.3</ele><time>2026-08-13T18:57:45Z</time></trkpt>
<trkpt lat="35.189758" lon="-84.902495"><ele>220.7</ele><time>2026-08-13T18:57:47Z</time></trkpt>
<trkpt lat="35.189797" lon="-84.902492"><ele>220.4</ele><time>2026-08-13T18:57:50Z</time></trkpt>
<trkpt lat="35.189838" lon="-84.902493"><ele>221.3</ele><time>2026-08-13T18:57:53Z</time></trkpt>
<trkpt lat="35.189868" lon="-84.902492"><ele>222.2</ele><time>2026-08-13T18:57:55Z</time></trkpt>
<trkpt lat="35.189899" lon="-84.902505"><ele>220.7</ele><time>2026-08-13T18:57:57Z</time></trkpt>
<trkpt lat="35.18993" lon="-84.902514"><ele>220.4</ele><time>2026-08-13T18:57:59Z</time></trkpt>
<trkpt lat="35.189959" lon="-84.902528"><ele>220.7</ele><time>2026-08-13T18:58:01Z</time></trkpt>
<trkpt lat="35.189988" lon="-84.902535"><ele>220.7</ele><time>2026-08-13T18:58:03Z</time></trkpt>
<trkpt lat="35.190026" lon="-84.902541"><ele>222.8</ele><time>2026-08-13T18:58:06Z</time></trkpt>
<trkpt lat="35.190054" lon="-84.902532"><ele>223.4</ele><time>2026-08-13T18:58:08Z</time></trkpt>
<trkpt lat="35.190093" lon="-84.902526"><ele>223.7</ele><time>2026-08-13T18:58:11Z</time></trkpt>
<trkpt lat="35.190132" lon="-84.902522"><ele>222.2</ele><time>2026-08-13T18:58:14Z</time></trkpt>
<trkpt lat="35.190163" lon="-84.902521"><ele>221.3</ele><time>2026-08-13T18:58:16Z</time></trkpt>
<trkpt lat="35.190193" lon="-84.902518"><ele>220.7</ele><time>2026-08-13T18:58:18Z</time></trkpt>
<trkpt lat="35.190218" lon="-84.902503"><ele>220.4</ele><time>2026-08-13T18:58:20Z</time></trkpt>
<trkpt lat="35.19024" lon="-84.902482"><ele>221.0</ele><time>2026-08-13T18:58:22Z</time></trkpt>
<trkpt lat="35.190258" lon="-84.902454"><ele>221.0</ele><time>2026-08-13T18:58:24Z</time></trkpt>
<trkpt lat="35.190272" lon="-84.90242"><ele>222.2</ele><time>2026-08-13T18:58:26Z</time></trkpt>
<trkpt lat="35.190285" lon="-84.90239"><ele>222.8</ele><time>2026-08-13T18:58:28Z</time></trkpt>
<trkpt lat="35.190302" lon="-84.902346"><ele>223.1</ele><time>2026-08-13T18:58:31Z</time></trkpt>
<trkpt lat="35.190323" lon="-84.902305"><ele>223.1</ele><time>2026-08-13T18:58:34Z</time></trkpt>
<trkpt lat="35.190346" lon="-84.902264"><ele>222.8</ele><time>2026-08-13T18:58:37Z</time></trkpt>
<trkpt lat="35.190354" lon="-84.902231"><ele>222.2</ele><time>2026-08-13T18:58:39Z</time></trkpt>
<trkpt lat="35.190364" lon="-84.902199"><ele>221.9</ele><time>2026-08-13T18:58:41Z</time></trkpt>
<trkpt lat="35.190381" lon="-84.902166"><ele>221.0</ele><time>2026-08-13T18:58:43Z</time></trkpt>
<trkpt lat="35.190401" lon="-84.902137"><ele>220.7</ele><time>2026-08-13T18:58:45Z</time></trkpt>
<trkpt lat="35.19042" lon="-84.90211"><ele>220.1</ele><time>2026-08-13T18:58:47Z</time></trkpt>
<trkpt lat="35.190442" lon="-84.902071"><ele>220.4</ele><time>2026-08-13T18:58:50Z</time></trkpt>
<trkpt lat="35.190462" lon="-84.902045"><ele>220.4</ele><time>2026-08-13T18:58:52Z</time></trkpt>
<trkpt lat="35.190482" lon="-84.902007"><ele>218.8</ele><time>2026-08-13T18:58:55Z</time></trkpt>
<trkpt lat="35.190501" lon="-84.901964"><ele>217.9</ele><time>2026-08-13T18:58:58Z</time></trkpt>
<trkpt lat="35.190519" lon="-84.90193"><ele>218.2</ele><time>2026-08-13T18:59:00Z</time></trkpt>
<trkpt lat="35.190532" lon="-84.901899"><ele>218.5</ele><time>2026-08-13T18:59:02Z</time></trkpt>
<trkpt lat="35.190542" lon="-84.901867"><ele>217.6</ele><time>2026-08-13T18:59:04Z</time></trkpt>
<trkpt lat="35.190559" lon="-84.901838"><ele>218.5</ele><time>2026-08-13T18:59:06Z</time></trkpt>
<trkpt lat="35.190577" lon="-84.901811"><ele>219.2</ele><time>2026-08-13T18:59:08Z</time></trkpt>
<trkpt lat="35.190602" lon="-84.901774"><ele>218.5</ele><time>2026-08-13T18:59:11Z</time></trkpt>
<trkpt lat="35.190618" lon="-84.901746"><ele>219.2</ele><time>2026-08-13T18:59:13Z</time></trkpt>
<trkpt lat="35.190633" lon="-84.901699"><ele>219.2</ele><time>2026-08-13T18:59:16Z</time></trkpt>
<trkpt lat="35.190649" lon="-84.901668"><ele>219.5</ele><time>2026-08-13T18:59:18Z</time></trkpt>
<trkpt lat="35.190654" lon="-84.901631"><ele>219.8</ele><time>2026-08-13T18:59:20Z</time></trkpt>
<trkpt lat="35.190665" lon="-84.901599"><ele>220.1</ele><time>2026-08-13T18:59:22Z</time></trkpt>
<trkpt lat="35.190685" lon="-84.901556"><ele>220.4</ele><time>2026-08-13T18:59:25Z</time></trkpt>
<trkpt lat="35.190713" lon="-84.901515"><ele>220.7</ele><time>2026-08-13T18:59:28Z</time></trkpt>
<trkpt lat="35.19073" lon="-84.901487"><ele>221.3</ele><time>2026-08-13T18:59:30Z</time></trkpt>
<trkpt lat="35.190747" lon="-84.901457"><ele>220.4</ele><time>2026-08-13T18:59:32Z</time></trkpt>
<trkpt lat="35.190766" lon="-84.901432"><ele>218.8</ele><time>2026-08-13T18:59:34Z</time></trkpt>
<trkpt lat="35.190781" lon="-84.901401"><ele>219.2</ele><time>2026-08-13T18:59:36Z</time></trkpt>
<trkpt lat="35.190811" lon="-84.901371"><ele>217.9</ele><time>2026-08-13T18:59:39Z</time></trkpt>
<trkpt lat="35.190827" lon="-84.90134"><ele>217.9</ele><time>2026-08-13T18:59:41Z</time></trkpt>
<trkpt lat="35.190842" lon="-84.901309"><ele>218.8</ele><time>2026-08-13T18:59:43Z</time></trkpt>
<trkpt lat="35.190865" lon="-84.901268"><ele>220.1</ele><time>2026-08-13T18:59:46Z</time></trkpt>
<trkpt lat="35.190875" lon="-84.901232"><ele>219.5</ele><time>2026-08-13T18:59:48Z</time></trkpt>
<trkpt lat="35.190893" lon="-84.901204"><ele>220.1</ele><time>2026-08-13T18:59:50Z</time></trkpt>
<trkpt lat="35.190906" lon="-84.901173"><ele>221.3</ele><time>2026-08-13T18:59:52Z</time></trkpt>
<trkpt lat="35.190933" lon="-84.901137"><ele>221.3</ele><time>2026-08-13T18:59:55Z</time></trkpt>
<trkpt lat="35.19095" lon="-84.901106"><ele>220.1</ele><time>2026-08-13T18:59:57Z</time></trkpt>
<trkpt lat="35.190965" lon="-84.901077"><ele>221.0</ele><time>2026-08-13T18:59:59Z</time></trkpt>
<trkpt lat="35.190979" lon="-84.901045"><ele>221.3</ele><time>2026-08-13T19:00:01Z</time></trkpt>
<trkpt lat="35.190992" lon="-84.901015"><ele>221.0</ele><time>2026-08-13T19:00:03Z</time></trkpt>
<trkpt lat="35.191007" lon="-84.900984"><ele>221.9</ele><time>2026-08-13T19:00:05Z</time></trkpt>
<trkpt lat="35.191018" lon="-84.900952"><ele>221.6</ele><time>2026-08-13T19:00:07Z</time></trkpt>
<trkpt lat="35.191033" lon="-84.900919"><ele>221.9</ele><time>2026-08-13T19:00:09Z</time></trkpt>
<trkpt lat="35.191043" lon="-84.900887"><ele>222.5</ele><time>2026-08-13T19:00:11Z</time></trkpt>
<trkpt lat="35.191062" lon="-84.900842"><ele>222.5</ele><time>2026-08-13T19:00:14Z</time></trkpt>
<trkpt lat="35.191084" lon="-84.900804"><ele>221.3</ele><time>2026-08-13T19:00:17Z</time></trkpt>
<trkpt lat="35.191109" lon="-84.900769"><ele>222.5</ele><time>2026-08-13T19:00:20Z</time></trkpt>
<trkpt lat="35.191128" lon="-84.900725"><ele>223.1</ele><time>2026-08-13T19:00:23Z</time></trkpt>
<trkpt lat="35.191153" lon="-84.900687"><ele>223.4</ele><time>2026-08-13T19:00:26Z</time></trkpt>
<trkpt lat="35.191171" lon="-84.900644"><ele>224.9</ele><time>2026-08-13T19:00:29Z</time></trkpt>
<trkpt lat="35.191188" lon="-84.9006"><ele>224.6</ele><time>2026-08-13T19:00:32Z</time></trkpt>
<trkpt lat="35.191211" lon="-84.900561"><ele>225.6</ele><time>2026-08-13T19:00:35Z</time></trkpt>
<trkpt lat="35.191236" lon="-84.900521"><ele>224.0</ele><time>2026-08-13T19:00:38Z</time></trkpt>
<trkpt lat="35.191251" lon="-84.900493"><ele>224.3</ele><time>2026-08-13T19:00:40Z</time></trkpt>
<trkpt lat="35.191267" lon="-84.900448"><ele>224.0</ele><time>2026-08-13T19:00:43Z</time></trkpt>
<trkpt lat="35.191284" lon="-84.900408"><ele>224.3</ele><time>2026-08-13T19:00:46Z</time></trkpt>
<trkpt lat="35.1913" lon="-84.900366"><ele>225.2</ele><time>2026-08-13T19:00:49Z</time></trkpt>
<trkpt lat="35.19132" lon="-84.900323"><ele>225.6</ele><time>2026-08-13T19:00:52Z</time></trkpt>
<trkpt lat="35.191337" lon="-84.900295"><ele>224.9</ele><time>2026-08-13T19:00:54Z</time></trkpt>
<trkpt lat="35.19136" lon="-84.900257"><ele>224.3</ele><time>2026-08-13T19:00:57Z</time></trkpt>
<trkpt lat="35.191381" lon="-84.900216"><ele>224.0</ele><time>2026-08-13T19:01:00Z</time></trkpt>
<trkpt lat="35.191397" lon="-84.900169"><ele>224.0</ele><time>2026-08-13T19:01:03Z</time></trkpt>
<trkpt lat="35.191409" lon="-84.900135"><ele>224.3</ele><time>2026-08-13T19:01:05Z</time></trkpt>
<trkpt lat="35.191418" lon="-84.900098"><ele>224.0</ele><time>2026-08-13T19:01:07Z</time></trkpt>
<trkpt lat="35.191424" lon="-84.900063"><ele>223.7</ele><time>2026-08-13T19:01:09Z</time></trkpt>
<trkpt lat="35.19143" lon="-84.900028"><ele>223.7</ele><time>2026-08-13T19:01:11Z</time></trkpt>
<trkpt lat="35.191441" lon="-84.899996"><ele>223.1</ele><time>2026-08-13T19:01:13Z</time></trkpt>
<trkpt lat="35.191461" lon="-84.899971"><ele>223.1</ele><time>2026-08-13T19:01:15Z</time></trkpt>
<trkpt lat="35.191491" lon="-84.899967"><ele>223.7</ele><time>2026-08-13T19:01:17Z</time></trkpt>
<trkpt lat="35.191519" lon="-84.899977"><ele>223.4</ele><time>2026-08-13T19:01:19Z</time></trkpt>
<trkpt lat="35.191556" lon="-84.899996"><ele>222.2</ele><time>2026-08-13T19:01:22Z</time></trkpt>
<trkpt lat="35.191588" lon="-84.900021"><ele>222.5</ele><time>2026-08-13T19:01:25Z</time></trkpt>
<trkpt lat="35.191614" lon="-84.900036"><ele>222.8</ele><time>2026-08-13T19:01:27Z</time></trkpt>
<trkpt lat="35.191642" lon="-84.900056"><ele>222.8</ele><time>2026-08-13T19:01:29Z</time></trkpt>
<trkpt lat="35.191669" lon="-84.900075"><ele>221.9</ele><time>2026-08-13T19:01:31Z</time></trkpt>
<trkpt lat="35.191695" lon="-84.900092"><ele>221.9</ele><time>2026-08-13T19:01:33Z</time></trkpt>
<trkpt lat="35.191729" lon="-84.900111"><ele>221.6</ele><time>2026-08-13T19:01:36Z</time></trkpt>
<trkpt lat="35.191762" lon="-84.900132"><ele>221.0</ele><time>2026-08-13T19:01:39Z</time></trkpt>
<trkpt lat="35.191799" lon="-84.900154"><ele>220.1</ele><time>2026-08-13T19:01:42Z</time></trkpt>
<trkpt lat="35.191827" lon="-84.900169"><ele>220.1</ele><time>2026-08-13T19:01:44Z</time></trkpt>
<trkpt lat="35.191853" lon="-84.900187"><ele>219.8</ele><time>2026-08-13T19:01:46Z</time></trkpt>
<trkpt lat="35.191882" lon="-84.900199"><ele>220.1</ele><time>2026-08-13T19:01:48Z</time></trkpt>
<trkpt lat="35.191908" lon="-84.900217"><ele>220.4</ele><time>2026-08-13T19:01:50Z</time></trkpt>
<trkpt lat="35.191929" lon="-84.900244"><ele>220.4</ele><time>2026-08-13T19:01:52Z</time></trkpt>
<trkpt lat="35.191942" lon="-84.900273"><ele>221.0</ele><time>2026-08-13T19:01:54Z</time></trkpt>
<trkpt lat="35.191955" lon="-84.900305"><ele>221.3</ele><time>2026-08-13T19:01:56Z</time></trkpt>
<trkpt lat="35.19196" lon="-84.900354"><ele>221.3</ele><time>2026-08-13T19:01:59Z</time></trkpt>
<trkpt lat="35.191961" lon="-84.900404"><ele>220.7</ele><time>2026-08-13T19:02:02Z</time></trkpt>
<trkpt lat="35.191963" lon="-84.900438"><ele>220.7</ele><time>2026-08-13T19:02:04Z</time></trkpt>
<trkpt lat="35.19197" lon="-84.900474"><ele>220.4</ele><time>2026-08-13T19:02:06Z</time></trkpt>
<trkpt lat="35.191985" lon="-84.900504"><ele>220.4</ele><time>2026-08-13T19:02:08Z</time></trkpt>
<trkpt lat="35.192008" lon="-84.900525"><ele>220.1</ele><time>2026-08-13T19:02:10Z</time></trkpt>
<trkpt lat="35.192048" lon="-84.900536"><ele>219.8</ele><time>2026-08-13T19:02:13Z</time></trkpt>
<trkpt lat="35.192076" lon="-84.900528"><ele>219.8</ele><time>2026-08-13T19:02:15Z</time></trkpt>
<trkpt lat="35.192101" lon="-84.900513"><ele>219.2</ele><time>2026-08-13T19:02:17Z</time></trkpt>
<trkpt lat="35.192126" lon="-84.900493"><ele>218.5</ele><time>2026-08-13T19:02:19Z</time></trkpt>
<trkpt lat="35.19215" lon="-84.900473"><ele>218.8</ele><time>2026-08-13T19:02:21Z</time></trkpt>
<trkpt lat="35.192172" lon="-84.900452"><ele>219.5</ele><time>2026-08-13T19:02:23Z</time></trkpt>
<trkpt lat="35.192197" lon="-84.900434"><ele>219.5</ele><time>2026-08-13T19:02:25Z</time></trkpt>
<trkpt lat="35.192222" lon="-84.900418"><ele>219.8</ele><time>2026-08-13T19:02:27Z</time></trkpt>
<trkpt lat="35.192248" lon="-84.9004"><ele>219.8</ele><time>2026-08-13T19:02:29Z</time></trkpt>
<trkpt lat="35.192275" lon="-84.900383"><ele>220.1</ele><time>2026-08-13T19:02:31Z</time></trkpt>
<trkpt lat="35.192301" lon="-84.900358"><ele>220.7</ele><time>2026-08-13T19:02:33Z</time></trkpt>
<trkpt lat="35.192325" lon="-84.900335"><ele>220.7</ele><time>2026-08-13T19:02:35Z</time></trkpt>
<trkpt lat="35.192348" lon="-84.90031"><ele>221.0</ele><time>2026-08-13T19:02:37Z</time></trkpt>
<trkpt lat="35.192367" lon="-84.900284"><ele>220.7</ele><time>2026-08-13T19:02:39Z</time></trkpt>
<trkpt lat="35.192389" lon="-84.900259"><ele>221.0</ele><time>2026-08-13T19:02:41Z</time></trkpt>
<trkpt lat="35.192411" lon="-84.900235"><ele>221.3</ele><time>2026-08-13T19:02:43Z</time></trkpt>
<trkpt lat="35.19243" lon="-84.900211"><ele>221.0</ele><time>2026-08-13T19:02:45Z</time></trkpt>
<trkpt lat="35.19245" lon="-84.900189"><ele>221.0</ele><time>2026-08-13T19:02:47Z</time></trkpt>
<trkpt lat="35.192481" lon="-84.900159"><ele>221.3</ele><time>2026-08-13T19:02:50Z</time></trkpt>
<trkpt lat="35.192517" lon="-84.900134"><ele>221.0</ele><time>2026-08-13T19:02:53Z</time></trkpt>
<trkpt lat="35.192555" lon="-84.900114"><ele>220.7</ele><time>2026-08-13T19:02:56Z</time></trkpt>
<trkpt lat="35.192582" lon="-84.900096"><ele>221.0</ele><time>2026-08-13T19:02:58Z</time></trkpt>
<trkpt lat="35.192607" lon="-84.90008"><ele>221.0</ele><time>2026-08-13T19:03:00Z</time></trkpt>
<trkpt lat="35.192633" lon="-84.900061"><ele>221.0</ele><time>2026-08-13T19:03:02Z</time></trkpt>
<trkpt lat="35.192659" lon="-84.900043"><ele>221.0</ele><time>2026-08-13T19:03:04Z</time></trkpt>
<trkpt lat="35.192685" lon="-84.900027"><ele>221.0</ele><time>2026-08-13T19:03:06Z</time></trkpt>
<trkpt lat="35.19271" lon="-84.90001"><ele>221.0</ele><time>2026-08-13T19:03:08Z</time></trkpt>
<trkpt lat="35.192734" lon="-84.899992"><ele>221.0</ele><time>2026-08-13T19:03:10Z</time></trkpt>
<trkpt lat="35.192757" lon="-84.899975"><ele>221.3</ele><time>2026-08-13T19:03:12Z</time></trkpt>
<trkpt lat="35.192783" lon="-84.899956"><ele>221.9</ele><time>2026-08-13T19:03:14Z</time></trkpt>
<trkpt lat="35.192811" lon="-84.899939"><ele>222.2</ele><time>2026-08-13T19:03:16Z</time></trkpt>
<trkpt lat="35.192838" lon="-84.899918"><ele>222.5</ele><time>2026-08-13T19:03:18Z</time></trkpt>
<trkpt lat="35.192863" lon="-84.899901"><ele>222.5</ele><time>2026-08-13T19:03:20Z</time></trkpt>
<trkpt lat="35.19289" lon="-84.899888"><ele>222.5</ele><time>2026-08-13T19:03:22Z</time></trkpt>
<trkpt lat="35.192919" lon="-84.899886"><ele>222.2</ele><time>2026-08-13T19:03:24Z</time></trkpt>
<trkpt lat="35.192946" lon="-84.899892"><ele>222.2</ele><time>2026-08-13T19:03:26Z</time></trkpt>
<trkpt lat="35.192976" lon="-84.899899"><ele>222.2</ele><time>2026-08-13T19:03:28Z</time></trkpt>
<trkpt lat="35.193005" lon="-84.899899"><ele>222.2</ele><time>2026-08-13T19:03:30Z</time></trkpt>
<trkpt lat="35.193033" lon="-84.899895"><ele>222.2</ele><time>2026-08-13T19:03:32Z</time></trkpt>
<trkpt lat="35.19306" lon="-84.899888"><ele>222.2</ele><time>2026-08-13T19:03:34Z</time></trkpt>
<trkpt lat="35.193098" lon="-84.899871"><ele>221.9</ele><time>2026-08-13T19:03:37Z</time></trkpt>
<trkpt lat="35.193124" lon="-84.899859"><ele>222.2</ele><time>2026-08-13T19:03:39Z</time></trkpt>
<trkpt lat="35.193161" lon="-84.899838"><ele>221.9</ele><time>2026-08-13T19:03:42Z</time></trkpt>
<trkpt lat="35.193188" lon="-84.899823"><ele>222.2</ele><time>2026-08-13T19:03:44Z</time></trkpt>
<trkpt lat="35.193213" lon="-84.899809"><ele>222.5</ele><time>2026-08-13T19:03:46Z</time></trkpt>
<trkpt lat="35.193239" lon="-84.899794"><ele>222.2</ele><time>2026-08-13T19:03:48Z</time></trkpt>
<trkpt lat="35.193267" lon="-84.89978"><ele>222.8</ele><time>2026-08-13T19:03:50Z</time></trkpt>
<trkpt lat="35.193297" lon="-84.899767"><ele>223.1</ele><time>2026-08-13T19:03:52Z</time></trkpt>
<trkpt lat="35.193326" lon="-84.899751"><ele>223.1</ele><time>2026-08-13T19:03:54Z</time></trkpt>
<trkpt lat="35.193352" lon="-84.899737"><ele>223.4</ele><time>2026-08-13T19:03:56Z</time></trkpt>
<trkpt lat="35.193392" lon="-84.899718"><ele>223.7</ele><time>2026-08-13T19:03:59Z</time></trkpt>
<trkpt lat="35.193418" lon="-84.899706"><ele>223.7</ele><time>2026-08-13T19:04:01Z</time></trkpt>
<trkpt lat="35.193455" lon="-84.899686"><ele>223.7</ele><time>2026-08-13T19:04:04Z</time></trkpt>
<trkpt lat="35.193483" lon="-84.899678"><ele>224.0</ele><time>2026-08-13T19:04:06Z</time></trkpt>
<trkpt lat="35.193511" lon="-84.899674"><ele>224.0</ele><time>2026-08-13T19:04:08Z</time></trkpt>
<trkpt lat="35.193552" lon="-84.899675"><ele>223.7</ele><time>2026-08-13T19:04:11Z</time></trkpt>
<trkpt lat="35.193592" lon="-84.89968"><ele>223.7</ele><time>2026-08-13T19:04:14Z</time></trkpt>
<trkpt lat="35.193623" lon="-84.89968"><ele>223.4</ele><time>2026-08-13T19:04:16Z</time></trkpt>
<trkpt lat="35.193653" lon="-84.89968"><ele>223.4</ele><time>2026-08-13T19:04:18Z</time></trkpt>
<trkpt lat="35.193684" lon="-84.899681"><ele>224.0</ele><time>2026-08-13T19:04:20Z</time></trkpt>
<trkpt lat="35.193715" lon="-84.89968"><ele>224.0</ele><time>2026-08-13T19:04:22Z</time></trkpt>
<trkpt lat="35.193744" lon="-84.899679"><ele>224.0</ele><time>2026-08-13T19:04:24Z</time></trkpt>
<trkpt lat="35.193772" lon="-84.899674"><ele>225.2</ele><time>2026-08-13T19:04:26Z</time></trkpt>
<trkpt lat="35.193802" lon="-84.899665"><ele>225.2</ele><time>2026-08-13T19:04:28Z</time></trkpt>
<trkpt lat="35.193829" lon="-84.89965"><ele>225.6</ele><time>2026-08-13T19:04:30Z</time></trkpt>
<trkpt lat="35.193856" lon="-84.899636"><ele>224.9</ele><time>2026-08-13T19:04:32Z</time></trkpt>
<trkpt lat="35.193885" lon="-84.899626"><ele>225.2</ele><time>2026-08-13T19:04:34Z</time></trkpt>
<trkpt lat="35.193912" lon="-84.899618"><ele>224.6</ele><time>2026-08-13T19:04:36Z</time></trkpt>
<trkpt lat="35.193939" lon="-84.899605"><ele>224.6</ele><time>2026-08-13T19:04:38Z</time></trkpt>
<trkpt lat="35.193964" lon="-84.89959"><ele>224.0</ele><time>2026-08-13T19:04:40Z</time></trkpt>
<trkpt lat="35.19399" lon="-84.899577"><ele>224.0</ele><time>2026-08-13T19:04:42Z</time></trkpt>
<trkpt lat="35.194028" lon="-84.899562"><ele>224.0</ele><time>2026-08-13T19:04:45Z</time></trkpt>
<trkpt lat="35.194067" lon="-84.89955"><ele>223.7</ele><time>2026-08-13T19:04:48Z</time></trkpt>
<trkpt lat="35.194104" lon="-84.899532"><ele>223.4</ele><time>2026-08-13T19:04:51Z</time></trkpt>
<trkpt lat="35.194132" lon="-84.89952"><ele>223.7</ele><time>2026-08-13T19:04:53Z</time></trkpt>
<trkpt lat="35.194167" lon="-84.899495"><ele>223.7</ele><time>2026-08-13T19:04:56Z</time></trkpt>
<trkpt lat="35.194192" lon="-84.899479"><ele>223.7</ele><time>2026-08-13T19:04:58Z</time></trkpt>
<trkpt lat="35.19422" lon="-84.899461"><ele>224.3</ele><time>2026-08-13T19:05:00Z</time></trkpt>
<trkpt lat="35.194246" lon="-84.899444"><ele>224.3</ele><time>2026-08-13T19:05:02Z</time></trkpt>
<trkpt lat="35.194273" lon="-84.899432"><ele>224.6</ele><time>2026-08-13T19:05:04Z</time></trkpt>
<trkpt lat="35.1943" lon="-84.899422"><ele>224.6</ele><time>2026-08-13T19:05:06Z</time></trkpt>
<trkpt lat="35.194339" lon="-84.899406"><ele>224.3</ele><time>2026-08-13T19:05:09Z</time></trkpt>
<trkpt lat="35.194365" lon="-84.899389"><ele>224.0</ele><time>2026-08-13T19:05:11Z</time></trkpt>
<trkpt lat="35.194392" lon="-84.899374"><ele>224.3</ele><time>2026-08-13T19:05:13Z</time></trkpt>
<trkpt lat="35.19443" lon="-84.899359"><ele>224.0</ele><time>2026-08-13T19:05:16Z</time></trkpt>
<trkpt lat="35.194469" lon="-84.899343"><ele>223.4</ele><time>2026-08-13T19:05:19Z</time></trkpt>
<trkpt lat="35.194495" lon="-84.899331"><ele>222.5</ele><time>2026-08-13T19:05:21Z</time></trkpt>
<trkpt lat="35.194519" lon="-84.899314"><ele>221.9</ele><time>2026-08-13T19:05:23Z</time></trkpt>
<trkpt lat="35.194545" lon="-84.8993"><ele>221.3</ele><time>2026-08-13T19:05:25Z</time></trkpt>
<trkpt lat="35.19457" lon="-84.899284"><ele>221.6</ele><time>2026-08-13T19:05:27Z</time></trkpt>
<trkpt lat="35.19461" lon="-84.899266"><ele>221.6</ele><time>2026-08-13T19:05:30Z</time></trkpt>
<trkpt lat="35.194636" lon="-84.899252"><ele>221.9</ele><time>2026-08-13T19:05:32Z</time></trkpt>
<trkpt lat="35.194662" lon="-84.899237"><ele>221.9</ele><time>2026-08-13T19:05:34Z</time></trkpt>
<trkpt lat="35.19469" lon="-84.899224"><ele>221.9</ele><time>2026-08-13T19:05:36Z</time></trkpt>
<trkpt lat="35.194718" lon="-84.899212"><ele>222.2</ele><time>2026-08-13T19:05:38Z</time></trkpt>
<trkpt lat="35.194744" lon="-84.899194"><ele>222.2</ele><time>2026-08-13T19:05:40Z</time></trkpt>
<trkpt lat="35.194772" lon="-84.899176"><ele>222.2</ele><time>2026-08-13T19:05:42Z</time></trkpt>
<trkpt lat="35.194801" lon="-84.899162"><ele>222.2</ele><time>2026-08-13T19:05:44Z</time></trkpt>
<trkpt lat="35.194829" lon="-84.899147"><ele>222.5</ele><time>2026-08-13T19:05:46Z</time></trkpt>
<trkpt lat="35.194858" lon="-84.899132"><ele>223.1</ele><time>2026-08-13T19:05:48Z</time></trkpt>
<trkpt lat="35.194884" lon="-84.899117"><ele>223.4</ele><time>2026-08-13T19:05:50Z</time></trkpt>
<trkpt lat="35.19492" lon="-84.899098"><ele>223.1</ele><time>2026-08-13T19:05:53Z</time></trkpt>
<trkpt lat="35.194945" lon="-84.899082"><ele>222.8</ele><time>2026-08-13T19:05:55Z</time></trkpt>
<trkpt lat="35.194981" lon="-84.899058"><ele>222.8</ele><time>2026-08-13T19:05:58Z</time></trkpt>
<trkpt lat="35.195007" lon="-84.899043"><ele>222.8</ele><time>2026-08-13T19:06:00Z</time></trkpt>
<trkpt lat="35.195034" lon="-84.89903"><ele>222.8</ele><time>2026-08-13T19:06:02Z</time></trkpt>
<trkpt lat="35.195062" lon="-84.899013"><ele>223.1</ele><time>2026-08-13T19:06:04Z</time></trkpt>
<trkpt lat="35.195087" lon="-84.898997"><ele>223.4</ele><time>2026-08-13T19:06:06Z</time></trkpt>
<trkpt lat="35.195115" lon="-84.898981"><ele>223.4</ele><time>2026-08-13T19:06:08Z</time></trkpt>
<trkpt lat="35.195141" lon="-84.898964"><ele>224.0</ele><time>2026-08-13T19:06:10Z</time></trkpt>
<trkpt lat="35.19517" lon="-84.898949"><ele>224.6</ele><time>2026-08-13T19:06:12Z</time></trkpt>
<trkpt lat="35.195197" lon="-84.898932"><ele>224.6</ele><time>2026-08-13T19:06:14Z</time></trkpt>
<trkpt lat="35.19522" lon="-84.898914"><ele>224.6</ele><time>2026-08-13T19:06:16Z</time></trkpt>
<trkpt lat="35.195246" lon="-84.898899"><ele>224.3</ele><time>2026-08-13T19:06:18Z</time></trkpt>
<trkpt lat="35.195283" lon="-84.898878"><ele>223.7</ele><time>2026-08-13T19:06:21Z</time></trkpt>
<trkpt lat="35.195319" lon="-84.898855"><ele>224.0</ele><time>2026-08-13T19:06:24Z</time></trkpt>
<trkpt lat="35.195344" lon="-84.898838"><ele>223.1</ele><time>2026-08-13T19:06:26Z</time></trkpt>
<trkpt lat="35.195369" lon="-84.898821"><ele>223.1</ele><time>2026-08-13T19:06:28Z</time></trkpt>
<trkpt lat="35.195393" lon="-84.898804"><ele>223.1</ele><time>2026-08-13T19:06:30Z</time></trkpt>
<trkpt lat="35.195418" lon="-84.898783"><ele>223.1</ele><time>2026-08-13T19:06:32Z</time></trkpt>
<trkpt lat="35.19545" lon="-84.898752"><ele>223.4</ele><time>2026-08-13T19:06:35Z</time></trkpt>
<trkpt lat="35.195474" lon="-84.898736"><ele>223.7</ele><time>2026-08-13T19:06:37Z</time></trkpt>
<trkpt lat="35.195498" lon="-84.89872"><ele>223.7</ele><time>2026-08-13T19:06:39Z</time></trkpt>
<trkpt lat="35.195532" lon="-84.898696"><ele>224.0</ele><time>2026-08-13T19:06:42Z</time></trkpt>
<trkpt lat="35.195555" lon="-84.898675"><ele>224.0</ele><time>2026-08-13T19:06:44Z</time></trkpt>
<trkpt lat="35.195592" lon="-84.89865"><ele>223.4</ele><time>2026-08-13T19:06:47Z</time></trkpt>
<trkpt lat="35.195618" lon="-84.898636"><ele>222.5</ele><time>2026-08-13T19:06:49Z</time></trkpt>
<trkpt lat="35.195644" lon="-84.89862"><ele>222.5</ele><time>2026-08-13T19:06:51Z</time></trkpt>
<trkpt lat="35.19567" lon="-84.898605"><ele>221.9</ele><time>2026-08-13T19:06:53Z</time></trkpt>
<trkpt lat="35.195698" lon="-84.898596"><ele>222.2</ele><time>2026-08-13T19:06:55Z</time></trkpt>
<trkpt lat="35.195727" lon="-84.898588"><ele>222.8</ele><time>2026-08-13T19:06:57Z</time></trkpt>
<trkpt lat="35.195765" lon="-84.898568"><ele>224.0</ele><time>2026-08-13T19:07:00Z</time></trkpt>
<trkpt lat="35.195793" lon="-84.898557"><ele>224.6</ele><time>2026-08-13T19:07:02Z</time></trkpt>
<trkpt lat="35.195821" lon="-84.898543"><ele>224.6</ele><time>2026-08-13T19:07:04Z</time></trkpt>
<trkpt lat="35.195846" lon="-84.898528"><ele>224.0</ele><time>2026-08-13T19:07:06Z</time></trkpt>
<trkpt lat="35.195883" lon="-84.898509"><ele>223.4</ele><time>2026-08-13T19:07:09Z</time></trkpt>
<trkpt lat="35.195911" lon="-84.8985"><ele>222.2</ele><time>2026-08-13T19:07:11Z</time></trkpt>
<trkpt lat="35.195938" lon="-84.898489"><ele>221.6</ele><time>2026-08-13T19:07:13Z</time></trkpt>
<trkpt lat="35.195966" lon="-84.898481"><ele>221.3</ele><time>2026-08-13T19:07:15Z</time></trkpt>
<trkpt lat="35.195994" lon="-84.898473"><ele>221.9</ele><time>2026-08-13T19:07:17Z</time></trkpt>
<trkpt lat="35.196022" lon="-84.898473"><ele>221.9</ele><time>2026-08-13T19:07:19Z</time></trkpt>
<trkpt lat="35.19605" lon="-84.898472"><ele>221.6</ele><time>2026-08-13T19:07:21Z</time></trkpt>
<trkpt lat="35.196081" lon="-84.898477"><ele>221.3</ele><time>2026-08-13T19:07:23Z</time></trkpt>
<trkpt lat="35.196109" lon="-84.898484"><ele>221.3</ele><time>2026-08-13T19:07:25Z</time></trkpt>
<trkpt lat="35.196139" lon="-84.898482"><ele>221.9</ele><time>2026-08-13T19:07:27Z</time></trkpt>
<trkpt lat="35.196167" lon="-84.898481"><ele>221.9</ele><time>2026-08-13T19:07:29Z</time></trkpt>
<trkpt lat="35.196196" lon="-84.898483"><ele>221.6</ele><time>2026-08-13T19:07:31Z</time></trkpt>
<trkpt lat="35.196237" lon="-84.898482"><ele>221.9</ele><time>2026-08-13T19:07:34Z</time></trkpt>
<trkpt lat="35.196265" lon="-84.898484"><ele>221.6</ele><time>2026-08-13T19:07:36Z</time></trkpt>
<trkpt lat="35.196292" lon="-84.898477"><ele>222.2</ele><time>2026-08-13T19:07:38Z</time></trkpt>
<trkpt lat="35.19632" lon="-84.898474"><ele>222.8</ele><time>2026-08-13T19:07:40Z</time></trkpt>
<trkpt lat="35.196346" lon="-84.898459"><ele>222.5</ele><time>2026-08-13T19:07:42Z</time></trkpt>
<trkpt lat="35.196369" lon="-84.898439"><ele>222.8</ele><time>2026-08-13T19:07:44Z</time></trkpt>
<trkpt lat="35.196391" lon="-84.898419"><ele>222.8</ele><time>2026-08-13T19:07:46Z</time></trkpt>
<trkpt lat="35.196423" lon="-84.898392"><ele>224.0</ele><time>2026-08-13T19:07:49Z</time></trkpt>
<trkpt lat="35.196448" lon="-84.898357"><ele>223.4</ele><time>2026-08-13T19:07:52Z</time></trkpt>
<trkpt lat="35.196465" lon="-84.898318"><ele>222.2</ele><time>2026-08-13T19:07:55Z</time></trkpt>
<trkpt lat="35.196469" lon="-84.89827"><ele>222.5</ele><time>2026-08-13T19:07:58Z</time></trkpt>
<trkpt lat="35.196476" lon="-84.898236"><ele>223.1</ele><time>2026-08-13T19:08:00Z</time></trkpt>
<trkpt lat="35.19648" lon="-84.898202"><ele>223.1</ele><time>2026-08-13T19:08:02Z</time></trkpt>
<trkpt lat="35.19648" lon="-84.898166"><ele>222.8</ele><time>2026-08-13T19:08:04Z</time></trkpt>
<trkpt lat="35.196476" lon="-84.898128"><ele>222.8</ele><time>2026-08-13T19:08:06Z</time></trkpt>
<trkpt lat="35.196456" lon="-84.898095"><ele>222.8</ele><time>2026-08-13T19:08:08Z</time></trkpt>
<trkpt lat="35.196429" lon="-84.898072"><ele>222.5</ele><time>2026-08-13T19:08:10Z</time></trkpt>
<trkpt lat="35.1964" lon="-84.898061"><ele>222.5</ele><time>2026-08-13T19:08:12Z</time></trkpt>
<trkpt lat="35.196375" lon="-84.898045"><ele>222.5</ele><time>2026-08-13T19:08:14Z</time></trkpt>
<trkpt lat="35.196351" lon="-84.898027"><ele>223.1</ele><time>2026-08-13T19:08:16Z</time></trkpt>
<trkpt lat="35.196317" lon="-84.898001"><ele>222.8</ele><time>2026-08-13T19:08:19Z</time></trkpt>
<trkpt lat="35.196284" lon="-84.897974"><ele>222.8</ele><time>2026-08-13T19:08:22Z</time></trkpt>
<trkpt lat="35.196254" lon="-84.897938"><ele>222.5</ele><time>2026-08-13T19:08:25Z</time></trkpt>
<trkpt lat="35.196231" lon="-84.897918"><ele>222.2</ele><time>2026-08-13T19:08:27Z</time></trkpt>
<trkpt lat="35.196207" lon="-84.897896"><ele>221.9</ele><time>2026-08-13T19:08:29Z</time></trkpt>
<trkpt lat="35.196181" lon="-84.897875"><ele>221.9</ele><time>2026-08-13T19:08:31Z</time></trkpt>
<trkpt lat="35.196154" lon="-84.89786"><ele>221.6</ele><time>2026-08-13T19:08:33Z</time></trkpt>
<trkpt lat="35.196117" lon="-84.897846"><ele>221.6</ele><time>2026-08-13T19:08:36Z</time></trkpt>
<trkpt lat="35.196084" lon="-84.897838"><ele>221.3</ele><time>2026-08-13T19:08:39Z</time></trkpt>
<trkpt lat="35.196045" lon="-84.897834"><ele>220.7</ele><time>2026-08-13T19:08:42Z</time></trkpt>
<trkpt lat="35.196009" lon="-84.897821"><ele>220.4</ele><time>2026-08-13T19:08:45Z</time></trkpt>
<trkpt lat="35.195981" lon="-84.897814"><ele>220.1</ele><time>2026-08-13T19:08:47Z</time></trkpt>
<trkpt lat="35.195948" lon="-84.897814"><ele>220.1</ele><time>2026-08-13T19:08:49Z</time></trkpt>
<trkpt lat="35.195919" lon="-84.897824"><ele>220.1</ele><time>2026-08-13T19:08:51Z</time></trkpt>
<trkpt lat="35.19589" lon="-84.897833"><ele>220.1</ele><time>2026-08-13T19:08:53Z</time></trkpt>
<trkpt lat="35.195864" lon="-84.897844"><ele>220.1</ele><time>2026-08-13T19:08:55Z</time></trkpt>
<trkpt lat="35.195829" lon="-84.897864"><ele>220.4</ele><time>2026-08-13T19:08:58Z</time></trkpt>
<trkpt lat="35.195797" lon="-84.897882"><ele>220.1</ele><time>2026-08-13T19:09:01Z</time></trkpt>
<trkpt lat="35.195771" lon="-84.897896"><ele>219.8</ele><time>2026-08-13T19:09:03Z</time></trkpt>
<trkpt lat="35.195737" lon="-84.897915"><ele>219.8</ele><time>2026-08-13T19:09:06Z</time></trkpt>
<trkpt lat="35.195709" lon="-84.897925"><ele>220.1</ele><time>2026-08-13T19:09:08Z</time></trkpt>
<trkpt lat="35.195679" lon="-84.897938"><ele>220.4</ele><time>2026-08-13T19:09:10Z</time></trkpt>
<trkpt lat="35.19565" lon="-84.897952"><ele>220.7</ele><time>2026-08-13T19:09:12Z</time></trkpt>
<trkpt lat="35.195623" lon="-84.897968"><ele>220.7</ele><time>2026-08-13T19:09:14Z</time></trkpt>
<trkpt lat="35.195596" lon="-84.897981"><ele>220.7</ele><time>2026-08-13T19:09:16Z</time></trkpt>
<trkpt lat="35.195559" lon="-84.897996"><ele>221.0</ele><time>2026-08-13T19:09:19Z</time></trkpt>
<trkpt lat="35.195526" lon="-84.898016"><ele>221.0</ele><time>2026-08-13T19:09:22Z</time></trkpt>
<trkpt lat="35.195492" lon="-84.898032"><ele>220.7</ele><time>2026-08-13T19:09:25Z</time></trkpt>
<trkpt lat="35.195467" lon="-84.898048"><ele>220.7</ele><time>2026-08-13T19:09:27Z</time></trkpt>
<trkpt lat="35.195439" lon="-84.898062"><ele>221.0</ele><time>2026-08-13T19:09:29Z</time></trkpt>
<trkpt lat="35.19541" lon="-84.898075"><ele>221.6</ele><time>2026-08-13T19:09:31Z</time></trkpt>
<trkpt lat="35.195385" lon="-84.898089"><ele>221.9</ele><time>2026-08-13T19:09:33Z</time></trkpt>
<trkpt lat="35.195361" lon="-84.898106"><ele>221.6</ele><time>2026-08-13T19:09:35Z</time></trkpt>
<trkpt lat="35.195334" lon="-84.898121"><ele>221.6</ele><time>2026-08-13T19:09:37Z</time></trkpt>
<trkpt lat="35.195297" lon="-84.898141"><ele>221.6</ele><time>2026-08-13T19:09:40Z</time></trkpt>
<trkpt lat="35.195264" lon="-84.898159"><ele>221.3</ele><time>2026-08-13T19:09:43Z</time></trkpt>
<trkpt lat="35.195227" lon="-84.898177"><ele>221.3</ele><time>2026-08-13T19:09:46Z</time></trkpt>
<trkpt lat="35.1952" lon="-84.898192"><ele>221.3</ele><time>2026-08-13T19:09:48Z</time></trkpt>
<trkpt lat="35.195175" lon="-84.898207"><ele>221.0</ele><time>2026-08-13T19:09:50Z</time></trkpt>
<trkpt lat="35.195148" lon="-84.898222"><ele>221.3</ele><time>2026-08-13T19:09:52Z</time></trkpt>
<trkpt lat="35.19512" lon="-84.898236"><ele>221.3</ele><time>2026-08-13T19:09:54Z</time></trkpt>
<trkpt lat="35.195083" lon="-84.898254"><ele>221.3</ele><time>2026-08-13T19:09:57Z</time></trkpt>
<trkpt lat="35.19505" lon="-84.898269"><ele>220.7</ele><time>2026-08-13T19:10:00Z</time></trkpt>
<trkpt lat="35.195017" lon="-84.898292"><ele>220.1</ele><time>2026-08-13T19:10:03Z</time></trkpt>
<trkpt lat="35.194991" lon="-84.898305"><ele>220.4</ele><time>2026-08-13T19:10:05Z</time></trkpt>
<trkpt lat="35.194964" lon="-84.898321"><ele>220.7</ele><time>2026-08-13T19:10:07Z</time></trkpt>
<trkpt lat="35.194936" lon="-84.898335"><ele>220.7</ele><time>2026-08-13T19:10:09Z</time></trkpt>
<trkpt lat="35.1949" lon="-84.898351"><ele>221.0</ele><time>2026-08-13T19:10:12Z</time></trkpt>
<trkpt lat="35.194865" lon="-84.898364"><ele>221.3</ele><time>2026-08-13T19:10:15Z</time></trkpt>
<trkpt lat="35.194832" lon="-84.898382"><ele>221.0</ele><time>2026-08-13T19:10:18Z</time></trkpt>
<trkpt lat="35.194806" lon="-84.898398"><ele>220.7</ele><time>2026-08-13T19:10:20Z</time></trkpt>
<trkpt lat="35.194779" lon="-84.898416"><ele>221.0</ele><time>2026-08-13T19:10:22Z</time></trkpt>
<trkpt lat="35.194752" lon="-84.898432"><ele>220.7</ele><time>2026-08-13T19:10:24Z</time></trkpt>
<trkpt lat="35.194724" lon="-84.89845"><ele>220.7</ele><time>2026-08-13T19:10:26Z</time></trkpt>
<trkpt lat="35.194696" lon="-84.898466"><ele>221.0</ele><time>2026-08-13T19:10:28Z</time></trkpt>
<trkpt lat="35.194666" lon="-84.898481"><ele>221.0</ele><time>2026-08-13T19:10:30Z</time></trkpt>
<trkpt lat="35.194639" lon="-84.898496"><ele>221.0</ele><time>2026-08-13T19:10:32Z</time></trkpt>
<trkpt lat="35.194614" lon="-84.898509"><ele>221.3</ele><time>2026-08-13T19:10:34Z</time></trkpt>
<trkpt lat="35.194588" lon="-84.898521"><ele>221.0</ele><time>2026-08-13T19:10:36Z</time></trkpt>
<trkpt lat="35.194562" lon="-84.898536"><ele>220.4</ele><time>2026-08-13T19:10:38Z</time></trkpt>
<trkpt lat="35.194526" lon="-84.898558"><ele>220.4</ele><time>2026-08-13T19:10:41Z</time></trkpt>
<trkpt lat="35.194501" lon="-84.898574"><ele>220.1</ele><time>2026-08-13T19:10:43Z</time></trkpt>
<trkpt lat="35.194475" lon="-84.898591"><ele>220.1</ele><time>2026-08-13T19:10:45Z</time></trkpt>
<trkpt lat="35.194448" lon="-84.898607"><ele>220.1</ele><time>2026-08-13T19:10:47Z</time></trkpt>
<trkpt lat="35.19442" lon="-84.898622"><ele>220.1</ele><time>2026-08-13T19:10:49Z</time></trkpt>
<trkpt lat="35.194394" lon="-84.898639"><ele>220.7</ele><time>2026-08-13T19:10:51Z</time></trkpt>
<trkpt lat="35.194367" lon="-84.89865"><ele>220.7</ele><time>2026-08-13T19:10:53Z</time></trkpt>
<trkpt lat="35.194339" lon="-84.898666"><ele>221.0</ele><time>2026-08-13T19:10:55Z</time></trkpt>
<trkpt lat="35.194312" lon="-84.898684"><ele>220.7</ele><time>2026-08-13T19:10:57Z</time></trkpt>
<trkpt lat="35.194285" lon="-84.898699"><ele>221.3</ele><time>2026-08-13T19:10:59Z</time></trkpt>
<trkpt lat="35.194259" lon="-84.898712"><ele>221.6</ele><time>2026-08-13T19:11:01Z</time></trkpt>
<trkpt lat="35.194231" lon="-84.898727"><ele>221.6</ele><time>2026-08-13T19:11:03Z</time></trkpt>
<trkpt lat="35.194205" lon="-84.898742"><ele>221.6</ele><time>2026-08-13T19:11:05Z</time></trkpt>
<trkpt lat="35.19417" lon="-84.898761"><ele>221.3</ele><time>2026-08-13T19:11:08Z</time></trkpt>
<trkpt lat="35.194135" lon="-84.898778"><ele>221.0</ele><time>2026-08-13T19:11:11Z</time></trkpt>
<trkpt lat="35.194109" lon="-84.898792"><ele>221.0</ele><time>2026-08-13T19:11:13Z</time></trkpt>
<trkpt lat="35.194083" lon="-84.898804"><ele>220.7</ele><time>2026-08-13T19:11:15Z</time></trkpt>
<trkpt lat="35.194047" lon="-84.898827"><ele>220.4</ele><time>2026-08-13T19:11:18Z</time></trkpt>
<trkpt lat="35.194022" lon="-84.898844"><ele>220.4</ele><time>2026-08-13T19:11:20Z</time></trkpt>
<trkpt lat="35.193996" lon="-84.89886"><ele>220.4</ele><time>2026-08-13T19:11:22Z</time></trkpt>
<trkpt lat="35.193967" lon="-84.898877"><ele>220.7</ele><time>2026-08-13T19:11:24Z</time></trkpt>
<trkpt lat="35.193938" lon="-84.898893"><ele>221.0</ele><time>2026-08-13T19:11:26Z</time></trkpt>
<trkpt lat="35.193909" lon="-84.89891"><ele>221.0</ele><time>2026-08-13T19:11:28Z</time></trkpt>
<trkpt lat="35.193881" lon="-84.898925"><ele>221.3</ele><time>2026-08-13T19:11:30Z</time></trkpt>
<trkpt lat="35.193852" lon="-84.898937"><ele>221.6</ele><time>2026-08-13T19:11:32Z</time></trkpt>
<trkpt lat="35.193825" lon="-84.89895"><ele>221.6</ele><time>2026-08-13T19:11:34Z</time></trkpt>
<trkpt lat="35.1938" lon="-84.898964"><ele>221.3</ele><time>2026-08-13T19:11:36Z</time></trkpt>
<trkpt lat="35.193774" lon="-84.898979"><ele>221.0</ele><time>2026-08-13T19:11:38Z</time></trkpt>
<trkpt lat="35.193737" lon="-84.899"><ele>221.3</ele><time>2026-08-13T19:11:41Z</time></trkpt>
<trkpt lat="35.193702" lon="-84.899019"><ele>221.6</ele><time>2026-08-13T19:11:44Z</time></trkpt>
<trkpt lat="35.193667" lon="-84.899048"><ele>221.3</ele><time>2026-08-13T19:11:47Z</time></trkpt>
<trkpt lat="35.193643" lon="-84.899066"><ele>221.3</ele><time>2026-08-13T19:11:49Z</time></trkpt>
<trkpt lat="35.193617" lon="-84.899083"><ele>221.3</ele><time>2026-08-13T19:11:51Z</time></trkpt>
<trkpt lat="35.193588" lon="-84.899101"><ele>221.3</ele><time>2026-08-13T19:11:53Z</time></trkpt>
<trkpt lat="35.19356" lon="-84.899113"><ele>221.3</ele><time>2026-08-13T19:11:55Z</time></trkpt>
<trkpt lat="35.193534" lon="-84.899129"><ele>221.3</ele><time>2026-08-13T19:11:57Z</time></trkpt>
<trkpt lat="35.193509" lon="-84.899144"><ele>221.3</ele><time>2026-08-13T19:11:59Z</time></trkpt>
<trkpt lat="35.193483" lon="-84.899158"><ele>221.0</ele><time>2026-08-13T19:12:01Z</time></trkpt>
<trkpt lat="35.193448" lon="-84.89918"><ele>221.3</ele><time>2026-08-13T19:12:04Z</time></trkpt>
<trkpt lat="35.193412" lon="-84.899201"><ele>221.0</ele><time>2026-08-13T19:12:07Z</time></trkpt>
<trkpt lat="35.193375" lon="-84.899221"><ele>220.1</ele><time>2026-08-13T19:12:10Z</time></trkpt>
<trkpt lat="35.193341" lon="-84.899244"><ele>220.1</ele><time>2026-08-13T19:12:13Z</time></trkpt>
<trkpt lat="35.193314" lon="-84.899257"><ele>219.8</ele><time>2026-08-13T19:12:15Z</time></trkpt>
<trkpt lat="35.193289" lon="-84.899272"><ele>219.8</ele><time>2026-08-13T19:12:17Z</time></trkpt>
<trkpt lat="35.193262" lon="-84.899288"><ele>219.5</ele><time>2026-08-13T19:12:19Z</time></trkpt>
<trkpt lat="35.193233" lon="-84.899301"><ele>219.8</ele><time>2026-08-13T19:12:21Z</time></trkpt>
<trkpt lat="35.193204" lon="-84.899318"><ele>220.4</ele><time>2026-08-13T19:12:23Z</time></trkpt>
<trkpt lat="35.193176" lon="-84.899335"><ele>220.4</ele><time>2026-08-13T19:12:25Z</time></trkpt>
<trkpt lat="35.193145" lon="-84.899352"><ele>220.7</ele><time>2026-08-13T19:12:27Z</time></trkpt>
<trkpt lat="35.193118" lon="-84.899367"><ele>221.0</ele><time>2026-08-13T19:12:29Z</time></trkpt>
<trkpt lat="35.193091" lon="-84.899381"><ele>220.7</ele><time>2026-08-13T19:12:31Z</time></trkpt>
<trkpt lat="35.193061" lon="-84.899395"><ele>220.7</ele><time>2026-08-13T19:12:33Z</time></trkpt>
<trkpt lat="35.193035" lon="-84.89941"><ele>221.0</ele><time>2026-08-13T19:12:35Z</time></trkpt>
<trkpt lat="35.193008" lon="-84.899423"><ele>221.0</ele><time>2026-08-13T19:12:37Z</time></trkpt>
<trkpt lat="35.192969" lon="-84.899441"><ele>221.3</ele><time>2026-08-13T19:12:40Z</time></trkpt>
<trkpt lat="35.192941" lon="-84.89945"><ele>221.9</ele><time>2026-08-13T19:12:42Z</time></trkpt>
<trkpt lat="35.192904" lon="-84.899467"><ele>221.6</ele><time>2026-08-13T19:12:45Z</time></trkpt>
<trkpt lat="35.19287" lon="-84.899487"><ele>221.3</ele><time>2026-08-13T19:12:48Z</time></trkpt>
<trkpt lat="35.192831" lon="-84.899505"><ele>220.7</ele><time>2026-08-13T19:12:51Z</time></trkpt>
<trkpt lat="35.192801" lon="-84.899517"><ele>221.0</ele><time>2026-08-13T19:12:53Z</time></trkpt>
<trkpt lat="35.192771" lon="-84.899529"><ele>221.0</ele><time>2026-08-13T19:12:55Z</time></trkpt>
<trkpt lat="35.192742" lon="-84.899542"><ele>221.3</ele><time>2026-08-13T19:12:57Z</time></trkpt>
<trkpt lat="35.192713" lon="-84.899557"><ele>221.3</ele><time>2026-08-13T19:12:59Z</time></trkpt>
<trkpt lat="35.192681" lon="-84.899567"><ele>221.0</ele><time>2026-08-13T19:13:01Z</time></trkpt>
<trkpt lat="35.192651" lon="-84.899576"><ele>220.7</ele><time>2026-08-13T19:13:03Z</time></trkpt>
<trkpt lat="35.192622" lon="-84.899582"><ele>221.6</ele><time>2026-08-13T19:13:05Z</time></trkpt>
<trkpt lat="35.192591" lon="-84.899591"><ele>221.9</ele><time>2026-08-13T19:13:07Z</time></trkpt>
<trkpt lat="35.192561" lon="-84.899601"><ele>221.6</ele><time>2026-08-13T19:13:09Z</time></trkpt>
<trkpt lat="35.192534" lon="-84.899613"><ele>221.6</ele><time>2026-08-13T19:13:11Z</time></trkpt>
<trkpt lat="35.192508" lon="-84.899626"><ele>221.6</ele><time>2026-08-13T19:13:13Z</time></trkpt>
<trkpt lat="35.19248" lon="-84.899638"><ele>221.0</ele><time>2026-08-13T19:13:15Z</time></trkpt>
<trkpt lat="35.192441" lon="-84.899652"><ele>220.7</ele><time>2026-08-13T19:13:18Z</time></trkpt>
<trkpt lat="35.192414" lon="-84.899659"><ele>221.3</ele><time>2026-08-13T19:13:20Z</time></trkpt>
<trkpt lat="35.192377" lon="-84.899673"><ele>221.0</ele><time>2026-08-13T19:13:23Z</time></trkpt>
<trkpt lat="35.19234" lon="-84.899681"><ele>220.4</ele><time>2026-08-13T19:13:26Z</time></trkpt>
<trkpt lat="35.1923" lon="-84.899692"><ele>220.1</ele><time>2026-08-13T19:13:29Z</time></trkpt>
<trkpt lat="35.192268" lon="-84.899694"><ele>219.8</ele><time>2026-08-13T19:13:31Z</time></trkpt>
<trkpt lat="35.192238" lon="-84.899691"><ele>219.2</ele><time>2026-08-13T19:13:33Z</time></trkpt>
<trkpt lat="35.192208" lon="-84.899688"><ele>219.5</ele><time>2026-08-13T19:13:35Z</time></trkpt>
<trkpt lat="35.192179" lon="-84.899679"><ele>220.1</ele><time>2026-08-13T19:13:37Z</time></trkpt>
<trkpt lat="35.192151" lon="-84.899665"><ele>220.4</ele><time>2026-08-13T19:13:39Z</time></trkpt>
<trkpt lat="35.192124" lon="-84.899645"><ele>220.7</ele><time>2026-08-13T19:13:41Z</time></trkpt>
<trkpt lat="35.1921" lon="-84.899622"><ele>220.7</ele><time>2026-08-13T19:13:43Z</time></trkpt>
<trkpt lat="35.192077" lon="-84.899599"><ele>220.7</ele><time>2026-08-13T19:13:45Z</time></trkpt>
<trkpt lat="35.192056" lon="-84.899569"><ele>221.0</ele><time>2026-08-13T19:13:47Z</time></trkpt>
<trkpt lat="35.192056" lon="-84.899527"><ele>221.0</ele><time>2026-08-13T19:13:49Z</time></trkpt>
<trkpt lat="35.192057" lon="-84.899488"><ele>221.0</ele><time>2026-08-13T19:13:51Z</time></trkpt>
<trkpt lat="35.192064" lon="-84.899451"><ele>220.7</ele><time>2026-08-13T19:13:53Z</time></trkpt>
<trkpt lat="35.192073" lon="-84.899419"><ele>220.4</ele><time>2026-08-13T19:13:55Z</time></trkpt>
<trkpt lat="35.192079" lon="-84.899383"><ele>220.4</ele><time>2026-08-13T19:13:57Z</time></trkpt>
<trkpt lat="35.192087" lon="-84.899348"><ele>220.1</ele><time>2026-08-13T19:13:59Z</time></trkpt>
<trkpt lat="35.192095" lon="-84.899316"><ele>220.4</ele><time>2026-08-13T19:14:01Z</time></trkpt>
<trkpt lat="35.192108" lon="-84.89927"><ele>220.1</ele><time>2026-08-13T19:14:04Z</time></trkpt>
<trkpt lat="35.19213" lon="-84.899229"><ele>220.7</ele><time>2026-08-13T19:14:07Z</time></trkpt>
<trkpt lat="35.192146" lon="-84.899199"><ele>220.7</ele><time>2026-08-13T19:14:09Z</time></trkpt>
<trkpt lat="35.192157" lon="-84.899167"><ele>220.4</ele><time>2026-08-13T19:14:11Z</time></trkpt>
<trkpt lat="35.192169" lon="-84.899132"><ele>220.4</ele><time>2026-08-13T19:14:13Z</time></trkpt>
<trkpt lat="35.192179" lon="-84.899096"><ele>220.4</ele><time>2026-08-13T19:14:15Z</time></trkpt>
<trkpt lat="35.192188" lon="-84.899059"><ele>220.4</ele><time>2026-08-13T19:14:17Z</time></trkpt>
<trkpt lat="35.192201" lon="-84.89902"><ele>220.4</ele><time>2026-08-13T19:14:19Z</time></trkpt>
<trkpt lat="35.192214" lon="-84.898982"><ele>220.4</ele><time>2026-08-13T19:14:21Z</time></trkpt>
<trkpt lat="35.192224" lon="-84.898945"><ele>220.1</ele><time>2026-08-13T19:14:23Z</time></trkpt>
<trkpt lat="35.192235" lon="-84.898911"><ele>219.8</ele><time>2026-08-13T19:14:25Z</time></trkpt>
<trkpt lat="35.192246" lon="-84.898878"><ele>219.8</ele><time>2026-08-13T19:14:27Z</time></trkpt>
<trkpt lat="35.192264" lon="-84.898834"><ele>219.5</ele><time>2026-08-13T19:14:30Z</time></trkpt>
<trkpt lat="35.192287" lon="-84.898794"><ele>219.8</ele><time>2026-08-13T19:14:33Z</time></trkpt>
<trkpt lat="35.192301" lon="-84.898747"><ele>219.5</ele><time>2026-08-13T19:14:36Z</time></trkpt>
<trkpt lat="35.192313" lon="-84.898716"><ele>220.1</ele><time>2026-08-13T19:14:38Z</time></trkpt>
<trkpt lat="35.192328" lon="-84.898687"><ele>219.8</ele><time>2026-08-13T19:14:40Z</time></trkpt>
<trkpt lat="35.19235" lon="-84.898658"><ele>219.8</ele><time>2026-08-13T19:14:42Z</time></trkpt>
<trkpt lat="35.192373" lon="-84.898633"><ele>219.8</ele><time>2026-08-13T19:14:44Z</time></trkpt>
<trkpt lat="35.192398" lon="-84.898611"><ele>219.8</ele><time>2026-08-13T19:14:46Z</time></trkpt>
<trkpt lat="35.192427" lon="-84.898597"><ele>219.8</ele><time>2026-08-13T19:14:48Z</time></trkpt>
<trkpt lat="35.192456" lon="-84.898583"><ele>219.5</ele><time>2026-08-13T19:14:50Z</time></trkpt>
<trkpt lat="35.192483" lon="-84.898572"><ele>219.5</ele><time>2026-08-13T19:14:52Z</time></trkpt>
<trkpt lat="35.192518" lon="-84.898556"><ele>219.8</ele><time>2026-08-13T19:14:55Z</time></trkpt>
<trkpt lat="35.192553" lon="-84.898535"><ele>218.8</ele><time>2026-08-13T19:14:58Z</time></trkpt>
<trkpt lat="35.192586" lon="-84.898511"><ele>217.9</ele><time>2026-08-13T19:15:01Z</time></trkpt>
<trkpt lat="35.192608" lon="-84.898486"><ele>218.2</ele><time>2026-08-13T19:15:03Z</time></trkpt>
<trkpt lat="35.192627" lon="-84.898455"><ele>218.2</ele><time>2026-08-13T19:15:05Z</time></trkpt>
<trkpt lat="35.192646" lon="-84.898425"><ele>218.5</ele><time>2026-08-13T19:15:07Z</time></trkpt>
<trkpt lat="35.192662" lon="-84.898394"><ele>218.8</ele><time>2026-08-13T19:15:09Z</time></trkpt>
<trkpt lat="35.192678" lon="-84.898363"><ele>218.8</ele><time>2026-08-13T19:15:11Z</time></trkpt>
<trkpt lat="35.192696" lon="-84.898329"><ele>218.5</ele><time>2026-08-13T19:15:13Z</time></trkpt>
<trkpt lat="35.192716" lon="-84.898299"><ele>218.8</ele><time>2026-08-13T19:15:15Z</time></trkpt>
<trkpt lat="35.192738" lon="-84.898273"><ele>218.5</ele><time>2026-08-13T19:15:17Z</time></trkpt>
<trkpt lat="35.192762" lon="-84.898251"><ele>218.5</ele><time>2026-08-13T19:15:19Z</time></trkpt>
<trkpt lat="35.192786" lon="-84.898234"><ele>219.2</ele><time>2026-08-13T19:15:21Z</time></trkpt>
<trkpt lat="35.192811" lon="-84.898219"><ele>219.2</ele><time>2026-08-13T19:15:23Z</time></trkpt>
<trkpt lat="35.192849" lon="-84.898202"><ele>219.5</ele><time>2026-08-13T19:15:26Z</time></trkpt>
<trkpt lat="35.192887" lon="-84.898183"><ele>218.8</ele><time>2026-08-13T19:15:29Z</time></trkpt>
<trkpt lat="35.192923" lon="-84.898169"><ele>217.9</ele><time>2026-08-13T19:15:32Z</time></trkpt>
<trkpt lat="35.192949" lon="-84.898157"><ele>217.9</ele><time>2026-08-13T19:15:34Z</time></trkpt>
<trkpt lat="35.192989" lon="-84.898142"><ele>218.2</ele><time>2026-08-13T19:15:37Z</time></trkpt>
<trkpt lat="35.193017" lon="-84.898132"><ele>218.5</ele><time>2026-08-13T19:15:39Z</time></trkpt>
<trkpt lat="35.193046" lon="-84.898125"><ele>218.2</ele><time>2026-08-13T19:15:41Z</time></trkpt>
<trkpt lat="35.193074" lon="-84.898117"><ele>218.8</ele><time>2026-08-13T19:15:43Z</time></trkpt>
<trkpt lat="35.193103" lon="-84.898108"><ele>218.8</ele><time>2026-08-13T19:15:45Z</time></trkpt>
<trkpt lat="35.193133" lon="-84.898101"><ele>218.8</ele><time>2026-08-13T19:15:47Z</time></trkpt>
<trkpt lat="35.193173" lon="-84.898093"><ele>218.8</ele><time>2026-08-13T19:15:50Z</time></trkpt>
<trkpt lat="35.19321" lon="-84.898083"><ele>218.8</ele><time>2026-08-13T19:15:53Z</time></trkpt>
<trkpt lat="35.193237" lon="-84.898072"><ele>218.5</ele><time>2026-08-13T19:15:55Z</time></trkpt>
<trkpt lat="35.193267" lon="-84.898062"><ele>218.5</ele><time>2026-08-13T19:15:57Z</time></trkpt>
<trkpt lat="35.193295" lon="-84.898054"><ele>218.8</ele><time>2026-08-13T19:15:59Z</time></trkpt>
<trkpt lat="35.193334" lon="-84.898037"><ele>218.5</ele><time>2026-08-13T19:16:02Z</time></trkpt>
<trkpt lat="35.193363" lon="-84.898025"><ele>218.5</ele><time>2026-08-13T19:16:04Z</time></trkpt>
<trkpt lat="35.193393" lon="-84.898016"><ele>218.8</ele><time>2026-08-13T19:16:06Z</time></trkpt>
<trkpt lat="35.193422" lon="-84.898006"><ele>218.8</ele><time>2026-08-13T19:16:08Z</time></trkpt>
<trkpt lat="35.193452" lon="-84.897998"><ele>219.5</ele><time>2026-08-13T19:16:10Z</time></trkpt>
<trkpt lat="35.193483" lon="-84.897987"><ele>219.8</ele><time>2026-08-13T19:16:12Z</time></trkpt>
<trkpt lat="35.193509" lon="-84.897975"><ele>219.5</ele><time>2026-08-13T19:16:14Z</time></trkpt>
<trkpt lat="35.193537" lon="-84.897968"><ele>219.8</ele><time>2026-08-13T19:16:16Z</time></trkpt>
<trkpt lat="35.193565" lon="-84.897957"><ele>220.1</ele><time>2026-08-13T19:16:18Z</time></trkpt>
<trkpt lat="35.193591" lon="-84.897944"><ele>219.8</ele><time>2026-08-13T19:16:20Z</time></trkpt>
<trkpt lat="35.19363" lon="-84.897925"><ele>218.8</ele><time>2026-08-13T19:16:23Z</time></trkpt>
<trkpt lat="35.193665" lon="-84.8979"><ele>218.5</ele><time>2026-08-13T19:16:26Z</time></trkpt>
<trkpt lat="35.19369" lon="-84.897883"><ele>218.8</ele><time>2026-08-13T19:16:28Z</time></trkpt>
<trkpt lat="35.193712" lon="-84.897857"><ele>218.5</ele><time>2026-08-13T19:16:30Z</time></trkpt>
<trkpt lat="35.193732" lon="-84.897828"><ele>218.5</ele><time>2026-08-13T19:16:32Z</time></trkpt>
<trkpt lat="35.193753" lon="-84.897801"><ele>218.5</ele><time>2026-08-13T19:16:34Z</time></trkpt>
<trkpt lat="35.193778" lon="-84.89778"><ele>219.2</ele><time>2026-08-13T19:16:36Z</time></trkpt>
<trkpt lat="35.193804" lon="-84.897765"><ele>219.2</ele><time>2026-08-13T19:16:38Z</time></trkpt>
<trkpt lat="35.193831" lon="-84.897752"><ele>218.8</ele><time>2026-08-13T19:16:40Z</time></trkpt>
<trkpt lat="35.193859" lon="-84.897745"><ele>218.2</ele><time>2026-08-13T19:16:42Z</time></trkpt>
<trkpt lat="35.193887" lon="-84.897741"><ele>218.5</ele><time>2026-08-13T19:16:44Z</time></trkpt>
<trkpt lat="35.193916" lon="-84.897736"><ele>218.8</ele><time>2026-08-13T19:16:46Z</time></trkpt>
<trkpt lat="35.193944" lon="-84.897735"><ele>218.8</ele><time>2026-08-13T19:16:48Z</time></trkpt>
<trkpt lat="35.193986" lon="-84.897735"><ele>218.8</ele><time>2026-08-13T19:16:51Z</time></trkpt>
<trkpt lat="35.194014" lon="-84.897729"><ele>218.8</ele><time>2026-08-13T19:16:53Z</time></trkpt>
<trkpt lat="35.194043" lon="-84.897722"><ele>219.2</ele><time>2026-08-13T19:16:55Z</time></trkpt>
<trkpt lat="35.194071" lon="-84.897715"><ele>219.2</ele><time>2026-08-13T19:16:57Z</time></trkpt>
<trkpt lat="35.194097" lon="-84.897701"><ele>219.5</ele><time>2026-08-13T19:16:59Z</time></trkpt>
<trkpt lat="35.194124" lon="-84.897691"><ele>217.9</ele><time>2026-08-13T19:17:01Z</time></trkpt>
<trkpt lat="35.194151" lon="-84.897677"><ele>217.9</ele><time>2026-08-13T19:17:03Z</time></trkpt>
<trkpt lat="35.194176" lon="-84.897656"><ele>217.9</ele><time>2026-08-13T19:17:05Z</time></trkpt>
<trkpt lat="35.194203" lon="-84.897634"><ele>217.6</ele><time>2026-08-13T19:17:07Z</time></trkpt>
<trkpt lat="35.19423" lon="-84.897615"><ele>217.9</ele><time>2026-08-13T19:17:09Z</time></trkpt>
<trkpt lat="35.194255" lon="-84.897595"><ele>217.9</ele><time>2026-08-13T19:17:11Z</time></trkpt>
<trkpt lat="35.194283" lon="-84.897582"><ele>218.5</ele><time>2026-08-13T19:17:13Z</time></trkpt>
<trkpt lat="35.19431" lon="-84.897568"><ele>218.8</ele><time>2026-08-13T19:17:15Z</time></trkpt>
<trkpt lat="35.194338" lon="-84.897551"><ele>218.8</ele><time>2026-08-13T19:17:17Z</time></trkpt>
<trkpt lat="35.194362" lon="-84.897529"><ele>218.5</ele><time>2026-08-13T19:17:19Z</time></trkpt>
<trkpt lat="35.194395" lon="-84.897501"><ele>218.2</ele><time>2026-08-13T19:17:22Z</time></trkpt>
<trkpt lat="35.19442" lon="-84.897486"><ele>217.9</ele><time>2026-08-13T19:17:24Z</time></trkpt>
<trkpt lat="35.194445" lon="-84.897466"><ele>217.6</ele><time>2026-08-13T19:17:26Z</time></trkpt>
<trkpt lat="35.194471" lon="-84.897449"><ele>217.9</ele><time>2026-08-13T19:17:28Z</time></trkpt>
<trkpt lat="35.194511" lon="-84.897455"><ele>218.8</ele><time>2026-08-13T19:17:30Z</time></trkpt>
<trkpt lat="35.194543" lon="-84.897424"><ele>218.8</ele><time>2026-08-13T19:17:33Z</time></trkpt>
<trkpt lat="35.194571" lon="-84.897395"><ele>219.2</ele><time>2026-08-13T19:17:36Z</time></trkpt>
<trkpt lat="35.194594" lon="-84.897372"><ele>218.8</ele><time>2026-08-13T19:17:38Z</time></trkpt>
<trkpt lat="35.194618" lon="-84.897348"><ele>219.2</ele><time>2026-08-13T19:17:40Z</time></trkpt>
<trkpt lat="35.194644" lon="-84.897328"><ele>219.2</ele><time>2026-08-13T19:17:42Z</time></trkpt>
<trkpt lat="35.19467" lon="-84.897304"><ele>219.5</ele><time>2026-08-13T19:17:44Z</time></trkpt>
<trkpt lat="35.194694" lon="-84.897284"><ele>219.5</ele><time>2026-08-13T19:17:46Z</time></trkpt>
<trkpt lat="35.19472" lon="-84.89726"><ele>219.2</ele><time>2026-08-13T19:17:48Z</time></trkpt>
<trkpt lat="35.194746" lon="-84.897238"><ele>219.2</ele><time>2026-08-13T19:17:50Z</time></trkpt>
<trkpt lat="35.19477" lon="-84.897216"><ele>218.8</ele><time>2026-08-13T19:17:52Z</time></trkpt>
<trkpt lat="35.194799" lon="-84.897196"><ele>218.8</ele><time>2026-08-13T19:17:54Z</time></trkpt>
<trkpt lat="35.194823" lon="-84.897178"><ele>218.8</ele><time>2026-08-13T19:17:56Z</time></trkpt>
<trkpt lat="35.19485" lon="-84.897156"><ele>219.2</ele><time>2026-08-13T19:17:58Z</time></trkpt>
<trkpt lat="35.194877" lon="-84.897135"><ele>219.2</ele><time>2026-08-13T19:18:00Z</time></trkpt>
<trkpt lat="35.194902" lon="-84.897114"><ele>218.8</ele><time>2026-08-13T19:18:02Z</time></trkpt>
<trkpt lat="35.194927" lon="-84.897092"><ele>218.8</ele><time>2026-08-13T19:18:04Z</time></trkpt>
<trkpt lat="35.194954" lon="-84.897067"><ele>218.5</ele><time>2026-08-13T19:18:06Z</time></trkpt>
<trkpt lat="35.194977" lon="-84.897047"><ele>218.5</ele><time>2026-08-13T19:18:08Z</time></trkpt>
<trkpt lat="35.195" lon="-84.897027"><ele>218.8</ele><time>2026-08-13T19:18:10Z</time></trkpt>
<trkpt lat="35.195023" lon="-84.897006"><ele>218.8</ele><time>2026-08-13T19:18:12Z</time></trkpt>
<trkpt lat="35.195048" lon="-84.896984"><ele>218.8</ele><time>2026-08-13T19:18:14Z</time></trkpt>
<trkpt lat="35.195073" lon="-84.896964"><ele>218.5</ele><time>2026-08-13T19:18:16Z</time></trkpt>
<trkpt lat="35.195097" lon="-84.896944"><ele>218.2</ele><time>2026-08-13T19:18:18Z</time></trkpt>
<trkpt lat="35.195122" lon="-84.896924"><ele>218.5</ele><time>2026-08-13T19:18:20Z</time></trkpt>
<trkpt lat="35.195146" lon="-84.896907"><ele>218.5</ele><time>2026-08-13T19:18:22Z</time></trkpt>
<trkpt lat="35.195179" lon="-84.896881"><ele>217.9</ele><time>2026-08-13T19:18:25Z</time></trkpt>
<trkpt lat="35.195213" lon="-84.896855"><ele>217.9</ele><time>2026-08-13T19:18:28Z</time></trkpt>
<trkpt lat="35.195238" lon="-84.896833"><ele>218.2</ele><time>2026-08-13T19:18:30Z</time></trkpt>
<trkpt lat="35.195267" lon="-84.896815"><ele>218.2</ele><time>2026-08-13T19:18:32Z</time></trkpt>
<trkpt lat="35.195299" lon="-84.896801"><ele>218.2</ele><time>2026-08-13T19:18:34Z</time></trkpt>
<trkpt lat="35.195327" lon="-84.896791"><ele>218.2</ele><time>2026-08-13T19:18:36Z</time></trkpt>
<trkpt lat="35.195356" lon="-84.896787"><ele>218.5</ele><time>2026-08-13T19:18:38Z</time></trkpt>
<trkpt lat="35.195398" lon="-84.896782"><ele>217.6</ele><time>2026-08-13T19:18:41Z</time></trkpt>
<trkpt lat="35.195428" lon="-84.896783"><ele>217.0</ele><time>2026-08-13T19:18:43Z</time></trkpt>
<trkpt lat="35.195459" lon="-84.896785"><ele>217.3</ele><time>2026-08-13T19:18:45Z</time></trkpt>
<trkpt lat="35.195492" lon="-84.896793"><ele>217.3</ele><time>2026-08-13T19:18:47Z</time></trkpt>
<trkpt lat="35.195524" lon="-84.896804"><ele>217.0</ele><time>2026-08-13T19:18:49Z</time></trkpt>
<trkpt lat="35.195552" lon="-84.896814"><ele>217.3</ele><time>2026-08-13T19:18:51Z</time></trkpt>
<trkpt lat="35.195582" lon="-84.89683"><ele>217.6</ele><time>2026-08-13T19:18:53Z</time></trkpt>
<trkpt lat="35.19562" lon="-84.896845"><ele>217.3</ele><time>2026-08-13T19:18:56Z</time></trkpt>
<trkpt lat="35.195647" lon="-84.896858"><ele>217.0</ele><time>2026-08-13T19:18:58Z</time></trkpt>
<trkpt lat="35.195675" lon="-84.896865"><ele>217.0</ele><time>2026-08-13T19:19:00Z</time></trkpt>
<trkpt lat="35.195704" lon="-84.896876"><ele>216.7</ele><time>2026-08-13T19:19:02Z</time></trkpt>
<trkpt lat="35.195731" lon="-84.896893"><ele>217.3</ele><time>2026-08-13T19:19:04Z</time></trkpt>
<trkpt lat="35.195768" lon="-84.896911"><ele>217.6</ele><time>2026-08-13T19:19:07Z</time></trkpt>
<trkpt lat="35.195794" lon="-84.896922"><ele>216.7</ele><time>2026-08-13T19:19:09Z</time></trkpt>
<trkpt lat="35.19582" lon="-84.896941"><ele>217.0</ele><time>2026-08-13T19:19:11Z</time></trkpt>
<trkpt lat="35.195857" lon="-84.896961"><ele>217.3</ele><time>2026-08-13T19:19:14Z</time></trkpt>
<trkpt lat="35.195883" lon="-84.896976"><ele>217.0</ele><time>2026-08-13T19:19:16Z</time></trkpt>
<trkpt lat="35.195908" lon="-84.896992"><ele>216.7</ele><time>2026-08-13T19:19:18Z</time></trkpt>
<trkpt lat="35.195941" lon="-84.897027"><ele>217.3</ele><time>2026-08-13T19:19:21Z</time></trkpt>
<trkpt lat="35.195962" lon="-84.897055"><ele>217.6</ele><time>2026-08-13T19:19:23Z</time></trkpt>
<trkpt lat="35.195979" lon="-84.897083"><ele>217.9</ele><time>2026-08-13T19:19:25Z</time></trkpt>
<trkpt lat="35.195998" lon="-84.897113"><ele>218.2</ele><time>2026-08-13T19:19:27Z</time></trkpt>
<trkpt lat="35.196015" lon="-84.897142"><ele>217.9</ele><time>2026-08-13T19:19:29Z</time></trkpt>
<trkpt lat="35.196031" lon="-84.897176"><ele>218.2</ele><time>2026-08-13T19:19:31Z</time></trkpt>
<trkpt lat="35.196047" lon="-84.897205"><ele>218.8</ele><time>2026-08-13T19:19:33Z</time></trkpt>
<trkpt lat="35.196063" lon="-84.897235"><ele>218.5</ele><time>2026-08-13T19:19:35Z</time></trkpt>
<trkpt lat="35.196081" lon="-84.897262"><ele>218.2</ele><time>2026-08-13T19:19:37Z</time></trkpt>
<trkpt lat="35.196099" lon="-84.897288"><ele>218.5</ele><time>2026-08-13T19:19:39Z</time></trkpt>
<trkpt lat="35.196115" lon="-84.897315"><ele>218.5</ele><time>2026-08-13T19:19:41Z</time></trkpt>
<trkpt lat="35.196134" lon="-84.897357"><ele>218.5</ele><time>2026-08-13T19:19:44Z</time></trkpt>
<trkpt lat="35.196152" lon="-84.897396"><ele>218.2</ele><time>2026-08-13T19:19:47Z</time></trkpt>
<trkpt lat="35.196171" lon="-84.897423"><ele>217.9</ele><time>2026-08-13T19:19:49Z</time></trkpt>
<trkpt lat="35.196185" lon="-84.897452"><ele>217.6</ele><time>2026-08-13T19:19:51Z</time></trkpt>
<trkpt lat="35.196197" lon="-84.897494"><ele>217.9</ele><time>2026-08-13T19:19:53Z</time></trkpt>
<trkpt lat="35.196211" lon="-84.897526"><ele>217.9</ele><time>2026-08-13T19:19:55Z</time></trkpt>
<trkpt lat="35.196235" lon="-84.897568"><ele>217.9</ele><time>2026-08-13T19:19:58Z</time></trkpt>
<trkpt lat="35.196252" lon="-84.897599"><ele>217.6</ele><time>2026-08-13T19:20:00Z</time></trkpt>
<trkpt lat="35.196269" lon="-84.897631"><ele>217.9</ele><time>2026-08-13T19:20:02Z</time></trkpt>
<trkpt lat="35.196284" lon="-84.897662"><ele>217.9</ele><time>2026-08-13T19:20:04Z</time></trkpt>
<trkpt lat="35.196299" lon="-84.897708"><ele>218.5</ele><time>2026-08-13T19:20:07Z</time></trkpt>
<trkpt lat="35.196319" lon="-84.897752"><ele>218.8</ele><time>2026-08-13T19:20:10Z</time></trkpt>
<trkpt lat="35.19634" lon="-84.897793"><ele>218.5</ele><time>2026-08-13T19:20:13Z</time></trkpt>
<trkpt lat="35.196359" lon="-84.897835"><ele>218.5</ele><time>2026-08-13T19:20:16Z</time></trkpt>
<trkpt lat="35.196381" lon="-84.897876"><ele>217.9</ele><time>2026-08-13T19:20:19Z</time></trkpt>
<trkpt lat="35.196399" lon="-84.897902"><ele>217.3</ele><time>2026-08-13T19:20:21Z</time></trkpt>
<trkpt lat="35.196419" lon="-84.897928"><ele>217.0</ele><time>2026-08-13T19:20:23Z</time></trkpt>
<trkpt lat="35.196439" lon="-84.897955"><ele>217.0</ele><time>2026-08-13T19:20:25Z</time></trkpt>
<trkpt lat="35.196462" lon="-84.89798"><ele>217.6</ele><time>2026-08-13T19:20:27Z</time></trkpt>
<trkpt lat="35.196486" lon="-84.898003"><ele>218.2</ele><time>2026-08-13T19:20:29Z</time></trkpt>
<trkpt lat="35.196508" lon="-84.898027"><ele>218.5</ele><time>2026-08-13T19:20:31Z</time></trkpt>
<trkpt lat="35.196542" lon="-84.898057"><ele>218.5</ele><time>2026-08-13T19:20:34Z</time></trkpt>
<trkpt lat="35.196574" lon="-84.898088"><ele>218.8</ele><time>2026-08-13T19:20:37Z</time></trkpt>
<trkpt lat="35.196597" lon="-84.898107"><ele>219.2</ele><time>2026-08-13T19:20:39Z</time></trkpt>
<trkpt lat="35.196624" lon="-84.898119"><ele>219.8</ele><time>2026-08-13T19:20:41Z</time></trkpt>
<trkpt lat="35.19666" lon="-84.898136"><ele>221.0</ele><time>2026-08-13T19:20:44Z</time></trkpt>
<trkpt lat="35.196688" lon="-84.89814"><ele>221.3</ele><time>2026-08-13T19:20:46Z</time></trkpt>
<trkpt lat="35.196719" lon="-84.898139"><ele>221.0</ele><time>2026-08-13T19:20:48Z</time></trkpt>
<trkpt lat="35.196749" lon="-84.898133"><ele>221.0</ele><time>2026-08-13T19:20:50Z</time></trkpt>
<trkpt lat="35.19678" lon="-84.898125"><ele>221.3</ele><time>2026-08-13T19:20:52Z</time></trkpt>
<trkpt lat="35.196808" lon="-84.898111"><ele>220.7</ele><time>2026-08-13T19:20:54Z</time></trkpt>
<trkpt lat="35.196834" lon="-84.8981"><ele>220.4</ele><time>2026-08-13T19:20:56Z</time></trkpt>
<trkpt lat="35.196871" lon="-84.898075"><ele>220.4</ele><time>2026-08-13T19:20:59Z</time></trkpt>
<trkpt lat="35.196901" lon="-84.898048"><ele>221.6</ele><time>2026-08-13T19:21:02Z</time></trkpt>
<trkpt lat="35.196933" lon="-84.89802"><ele>221.9</ele><time>2026-08-13T19:21:05Z</time></trkpt>
<trkpt lat="35.196959" lon="-84.898002"><ele>221.6</ele><time>2026-08-13T19:21:07Z</time></trkpt>
<trkpt lat="35.196983" lon="-84.897982"><ele>221.3</ele><time>2026-08-13T19:21:09Z</time></trkpt>
<trkpt lat="35.197009" lon="-84.897958"><ele>220.4</ele><time>2026-08-13T19:21:11Z</time></trkpt>
<trkpt lat="35.197034" lon="-84.897933"><ele>220.4</ele><time>2026-08-13T19:21:13Z</time></trkpt>
<trkpt lat="35.197058" lon="-84.897909"><ele>220.4</ele><time>2026-08-13T19:21:15Z</time></trkpt>
<trkpt lat="35.197082" lon="-84.897884"><ele>220.4</ele><time>2026-08-13T19:21:17Z</time></trkpt>
<trkpt lat="35.197106" lon="-84.897858"><ele>220.1</ele><time>2026-08-13T19:21:19Z</time></trkpt>
<trkpt lat="35.19713" lon="-84.897836"><ele>220.1</ele><time>2026-08-13T19:21:21Z</time></trkpt>
<trkpt lat="35.197151" lon="-84.897812"><ele>220.4</ele><time>2026-08-13T19:21:23Z</time></trkpt>
<trkpt lat="35.197175" lon="-84.897774"><ele>220.7</ele><time>2026-08-13T19:21:26Z</time></trkpt>
<trkpt lat="35.1972" lon="-84.897739"><ele>219.8</ele><time>2026-08-13T19:21:29Z</time></trkpt>
<trkpt lat="35.197227" lon="-84.897703"><ele>219.8</ele><time>2026-08-13T19:21:32Z</time></trkpt>
<trkpt lat="35.197252" lon="-84.897666"><ele>219.8</ele><time>2026-08-13T19:21:35Z</time></trkpt>
<trkpt lat="35.197265" lon="-84.897635"><ele>219.8</ele><time>2026-08-13T19:21:37Z</time></trkpt>
<trkpt lat="35.197262" lon="-84.897597"><ele>219.8</ele><time>2026-08-13T19:21:39Z</time></trkpt>
<trkpt lat="35.197248" lon="-84.897563"><ele>219.8</ele><time>2026-08-13T19:21:41Z</time></trkpt>
<trkpt lat="35.197229" lon="-84.897535"><ele>220.1</ele><time>2026-08-13T19:21:43Z</time></trkpt>
<trkpt lat="35.197209" lon="-84.897509"><ele>219.8</ele><time>2026-08-13T19:21:45Z</time></trkpt>
<trkpt lat="35.197182" lon="-84.897472"><ele>219.8</ele><time>2026-08-13T19:21:48Z</time></trkpt>
<trkpt lat="35.197155" lon="-84.897437"><ele>220.4</ele><time>2026-08-13T19:21:51Z</time></trkpt>
<trkpt lat="35.19718" lon="-84.897441"><ele>218.5</ele><time>2026-08-13T19:21:54Z</time></trkpt>
<trkpt lat="35.197172" lon="-84.89743"><ele>218.5</ele><time>2026-08-13T19:21:56Z</time></trkpt>
<trkpt lat="35.197169" lon="-84.897424"><ele>218.2</ele><time>2026-08-13T19:21:57Z</time></trkpt>
<trkpt lat="35.197156" lon="-84.897437"><ele>218.2</ele><time>2026-08-13T19:22:11Z</time></trkpt>
<trkpt lat="35.197156" lon="-84.897439"><ele>218.2</ele><time>2026-08-13T19:22:12Z</time></trkpt>
<trkpt lat="35.197164" lon="-84.897452"><ele>218.2</ele><time>2026-08-13T19:22:15Z</time></trkpt>
<trkpt lat="35.197181" lon="-84.897471"><ele>218.2</ele><time>2026-08-13T19:22:17Z</time></trkpt>
<trkpt lat="35.197199" lon="-84.89749"><ele>218.5</ele><time>2026-08-13T19:22:19Z</time></trkpt>
<trkpt lat="35.197225" lon="-84.897518"><ele>218.5</ele><time>2026-08-13T19:22:22Z</time></trkpt>
<trkpt lat="35.19726" lon="-84.897556"><ele>218.5</ele><time>2026-08-13T19:22:25Z</time></trkpt>
<trkpt lat="35.19729" lon="-84.897558"><ele>218.5</ele><time>2026-08-13T19:22:28Z</time></trkpt>
<trkpt lat="35.197318" lon="-84.897543"><ele>218.5</ele><time>2026-08-13T19:22:31Z</time></trkpt>
<trkpt lat="35.197347" lon="-84.897553"><ele>218.5</ele><time>2026-08-13T19:22:34Z</time></trkpt>
<trkpt lat="35.197366" lon="-84.897568"><ele>218.8</ele><time>2026-08-13T19:22:36Z</time></trkpt>
<trkpt lat="35.197405" lon="-84.897598"><ele>219.2</ele><time>2026-08-13T19:22:40Z</time></trkpt>
<trkpt lat="35.197451" lon="-84.897597"><ele>219.2</ele><time>2026-08-13T19:22:43Z</time></trkpt>
<trkpt lat="35.197513" lon="-84.897594"><ele>219.5</ele><time>2026-08-13T19:22:47Z</time></trkpt>
<trkpt lat="35.197568" lon="-84.897569"><ele>219.8</ele><time>2026-08-13T19:22:51Z</time></trkpt>
<trkpt lat="35.197621" lon="-84.897535"><ele>220.1</ele><time>2026-08-13T19:22:55Z</time></trkpt>
<trkpt lat="35.197678" lon="-84.897499"><ele>220.4</ele><time>2026-08-13T19:22:59Z</time></trkpt>
<trkpt lat="35.197721" lon="-84.897472"><ele>220.4</ele><time>2026-08-13T19:23:02Z</time></trkpt>
<trkpt lat="35.197759" lon="-84.897454"><ele>220.7</ele><time>2026-08-13T19:23:05Z</time></trkpt>
<trkpt lat="35.197796" lon="-84.897435"><ele>220.7</ele><time>2026-08-13T19:23:08Z</time></trkpt>
<trkpt lat="35.198149" lon="-84.898176"><ele>224.3</ele><time>2026-08-13T19:24:03Z</time></trkpt>
<trkpt lat="35.198165" lon="-84.898202"><ele>224.3</ele><time>2026-08-13T19:24:05Z</time></trkpt>
<trkpt lat="35.198173" lon="-84.898215"><ele>224.3</ele><time>2026-08-13T19:24:06Z</time></trkpt>
<trkpt lat="35.19819" lon="-84.898242"><ele>224.3</ele><time>2026-08-13T19:24:08Z</time></trkpt>
<trkpt lat="35.198198" lon="-84.898255"><ele>224.3</ele><time>2026-08-13T19:24:09Z</time></trkpt>
<trkpt lat="35.198214" lon="-84.898281"><ele>224.3</ele><time>2026-08-13T19:24:11Z</time></trkpt>
<trkpt lat="35.198224" lon="-84.898315"><ele>224.0</ele><time>2026-08-13T19:24:13Z</time></trkpt>
<trkpt lat="35.198234" lon="-84.898349"><ele>224.0</ele><time>2026-08-13T19:24:15Z</time></trkpt>
<trkpt lat="35.198243" lon="-84.898383"><ele>223.7</ele><time>2026-08-13T19:24:17Z</time></trkpt>
<trkpt lat="35.198253" lon="-84.898417"><ele>223.7</ele><time>2026-08-13T19:24:19Z</time></trkpt>
<trkpt lat="35.198264" lon="-84.898448"><ele>223.4</ele><time>2026-08-13T19:24:21Z</time></trkpt>
<trkpt lat="35.198275" lon="-84.898479"><ele>223.1</ele><time>2026-08-13T19:24:23Z</time></trkpt>
<trkpt lat="35.198285" lon="-84.898511"><ele>223.1</ele><time>2026-08-13T19:24:25Z</time></trkpt>
<trkpt lat="35.198296" lon="-84.898542"><ele>222.8</ele><time>2026-08-13T19:24:27Z</time></trkpt>
<trkpt lat="35.198307" lon="-84.898573"><ele>222.5</ele><time>2026-08-13T19:24:29Z</time></trkpt>
<trkpt lat="35.198321" lon="-84.898604"><ele>222.2</ele><time>2026-08-13T19:24:31Z</time></trkpt>
<trkpt lat="35.198335" lon="-84.898635"><ele>222.2</ele><time>2026-08-13T19:24:33Z</time></trkpt>
<trkpt lat="35.198342" lon="-84.89865"><ele>222.2</ele><time>2026-08-13T19:24:34Z</time></trkpt>
<trkpt lat="35.198349" lon="-84.898665"><ele>221.9</ele><time>2026-08-13T19:24:35Z</time></trkpt>
<trkpt lat="35.198356" lon="-84.898681"><ele>221.9</ele><time>2026-08-13T19:24:36Z</time></trkpt>
<trkpt lat="35.198363" lon="-84.898696"><ele>221.9</ele><time>2026-08-13T19:24:37Z</time></trkpt>
<trkpt lat="35.19837" lon="-84.898712"><ele>221.9</ele><time>2026-08-13T19:24:38Z</time></trkpt>
<trkpt lat="35.198384" lon="-84.898743"><ele>221.6</ele><time>2026-08-13T19:24:40Z</time></trkpt>
<trkpt lat="35.198391" lon="-84.898758"><ele>221.6</ele><time>2026-08-13T19:24:41Z</time></trkpt>
<trkpt lat="35.198396" lon="-84.898774"><ele>221.6</ele><time>2026-08-13T19:24:42Z</time></trkpt>
<trkpt lat="35.198401" lon="-84.89879"><ele>221.3</ele><time>2026-08-13T19:24:43Z</time></trkpt>
<trkpt lat="35.198406" lon="-84.898806"><ele>221.3</ele><time>2026-08-13T19:24:44Z</time></trkpt>
<trkpt lat="35.198411" lon="-84.898822"><ele>221.3</ele><time>2026-08-13T19:24:45Z</time></trkpt>
<trkpt lat="35.198417" lon="-84.898838"><ele>221.3</ele><time>2026-08-13T19:24:46Z</time></trkpt>
<trkpt lat="35.198422" lon="-84.898854"><ele>221.3</ele><time>2026-08-13T19:24:47Z</time></trkpt>
<trkpt lat="35.198427" lon="-84.89887"><ele>221.0</ele><time>2026-08-13T19:24:48Z</time></trkpt>
<trkpt lat="35.198432" lon="-84.898886"><ele>221.0</ele><time>2026-08-13T19:24:49Z</time></trkpt>
<trkpt lat="35.198437" lon="-84.898902"><ele>221.0</ele><time>2026-08-13T19:24:50Z</time></trkpt>
<trkpt lat="35.198444" lon="-84.898918"><ele>221.0</ele><time>2026-08-13T19:24:51Z</time></trkpt>
<trkpt lat="35.19845" lon="-84.898933"><ele>220.7</ele><time>2026-08-13T19:24:52Z</time></trkpt>
<trkpt lat="35.198457" lon="-84.898949"><ele>220.7</ele><time>2026-08-13T19:24:53Z</time></trkpt>
<trkpt lat="35.198464" lon="-84.898965"><ele>220.7</ele><time>2026-08-13T19:24:54Z</time></trkpt>
<trkpt lat="35.19847" lon="-84.89898"><ele>220.7</ele><time>2026-08-13T19:24:55Z</time></trkpt>
<trkpt lat="35.198477" lon="-84.898996"><ele>220.7</ele><time>2026-08-13T19:24:56Z</time></trkpt>
<trkpt lat="35.198484" lon="-84.899012"><ele>220.4</ele><time>2026-08-13T19:24:57Z</time></trkpt>
<trkpt lat="35.19849" lon="-84.899027"><ele>220.4</ele><time>2026-08-13T19:24:58Z</time></trkpt>
<trkpt lat="35.198497" lon="-84.899043"><ele>220.4</ele><time>2026-08-13T19:24:59Z</time></trkpt>
<trkpt lat="35.198503" lon="-84.899058"><ele>220.4</ele><time>2026-08-13T19:25:00Z</time></trkpt>
<trkpt lat="35.198508" lon="-84.899074"><ele>220.4</ele><time>2026-08-13T19:25:01Z</time></trkpt>
<trkpt lat="35.19852" lon="-84.899104"><ele>220.4</ele><time>2026-08-13T19:25:03Z</time></trkpt>
<trkpt lat="35.198531" lon="-84.899135"><ele>220.1</ele><time>2026-08-13T19:25:05Z</time></trkpt>
<trkpt lat="35.198543" lon="-84.899165"><ele>220.1</ele><time>2026-08-13T19:25:07Z</time></trkpt>
<trkpt lat="35.198554" lon="-84.899196"><ele>220.1</ele><time>2026-08-13T19:25:09Z</time></trkpt>
<trkpt lat="35.198565" lon="-84.899227"><ele>220.1</ele><time>2026-08-13T19:25:11Z</time></trkpt>
<trkpt lat="35.198576" lon="-84.89926"><ele>219.8</ele><time>2026-08-13T19:25:13Z</time></trkpt>
<trkpt lat="35.198587" lon="-84.899292"><ele>219.8</ele><time>2026-08-13T19:25:15Z</time></trkpt>
<trkpt lat="35.198597" lon="-84.899325"><ele>219.5</ele><time>2026-08-13T19:25:17Z</time></trkpt>
<trkpt lat="35.198608" lon="-84.899357"><ele>219.5</ele><time>2026-08-13T19:25:19Z</time></trkpt>
<trkpt lat="35.19862" lon="-84.89939"><ele>219.5</ele><time>2026-08-13T19:25:21Z</time></trkpt>
<trkpt lat="35.198632" lon="-84.899424"><ele>219.5</ele><time>2026-08-13T19:25:23Z</time></trkpt>
<trkpt lat="35.198643" lon="-84.899457"><ele>219.5</ele><time>2026-08-13T19:25:25Z</time></trkpt>
<trkpt lat="35.198645" lon="-84.89954"><ele>218.8</ele><time>2026-08-13T19:25:27Z</time></trkpt>
<trkpt lat="35.198657" lon="-84.899572"><ele>218.8</ele><time>2026-08-13T19:25:29Z</time></trkpt>
<trkpt lat="35.198673" lon="-84.899616"><ele>219.2</ele><time>2026-08-13T19:25:32Z</time></trkpt>
<trkpt lat="35.198687" lon="-84.899663"><ele>219.2</ele><time>2026-08-13T19:25:35Z</time></trkpt>
<trkpt lat="35.198697" lon="-84.899695"><ele>218.8</ele><time>2026-08-13T19:25:37Z</time></trkpt>
<trkpt lat="35.198708" lon="-84.899727"><ele>219.2</ele><time>2026-08-13T19:25:39Z</time></trkpt>
<trkpt lat="35.198717" lon="-84.899759"><ele>218.8</ele><time>2026-08-13T19:25:41Z</time></trkpt>
<trkpt lat="35.198728" lon="-84.899793"><ele>218.8</ele><time>2026-08-13T19:25:43Z</time></trkpt>
<trkpt lat="35.198742" lon="-84.899823"><ele>218.8</ele><time>2026-08-13T19:25:45Z</time></trkpt>
<trkpt lat="35.198756" lon="-84.899857"><ele>218.5</ele><time>2026-08-13T19:25:47Z</time></trkpt>
<trkpt lat="35.198769" lon="-84.89989"><ele>218.5</ele><time>2026-08-13T19:25:49Z</time></trkpt>
<trkpt lat="35.198782" lon="-84.899925"><ele>218.5</ele><time>2026-08-13T19:25:51Z</time></trkpt>
<trkpt lat="35.198784" lon="-84.89996"><ele>218.8</ele><time>2026-08-13T19:25:53Z</time></trkpt>
<trkpt lat="35.198751" lon="-84.899985"><ele>218.8</ele><time>2026-08-13T19:25:56Z</time></trkpt>
<trkpt lat="35.198711" lon="-84.900001"><ele>218.5</ele><time>2026-08-13T19:25:59Z</time></trkpt>
<trkpt lat="35.198683" lon="-84.900009"><ele>218.2</ele><time>2026-08-13T19:26:01Z</time></trkpt>
<trkpt lat="35.198654" lon="-84.900016"><ele>218.2</ele><time>2026-08-13T19:26:03Z</time></trkpt>
<trkpt lat="35.198623" lon="-84.900022"><ele>217.9</ele><time>2026-08-13T19:26:05Z</time></trkpt>
<trkpt lat="35.198594" lon="-84.900028"><ele>217.9</ele><time>2026-08-13T19:26:07Z</time></trkpt>
<trkpt lat="35.198558" lon="-84.900036"><ele>217.9</ele><time>2026-08-13T19:26:10Z</time></trkpt>
<trkpt lat="35.198523" lon="-84.900054"><ele>218.2</ele><time>2026-08-13T19:26:13Z</time></trkpt>
<trkpt lat="35.19849" lon="-84.900072"><ele>217.9</ele><time>2026-08-13T19:26:16Z</time></trkpt>
<trkpt lat="35.198464" lon="-84.900089"><ele>217.6</ele><time>2026-08-13T19:26:18Z</time></trkpt>
<trkpt lat="35.198437" lon="-84.900104"><ele>217.6</ele><time>2026-08-13T19:26:20Z</time></trkpt>
<trkpt lat="35.198408" lon="-84.900113"><ele>217.6</ele><time>2026-08-13T19:26:22Z</time></trkpt>
<trkpt lat="35.198378" lon="-84.900111"><ele>217.6</ele><time>2026-08-13T19:26:24Z</time></trkpt>
<trkpt lat="35.19835" lon="-84.900102"><ele>217.3</ele><time>2026-08-13T19:26:26Z</time></trkpt>
<trkpt lat="35.198321" lon="-84.900111"><ele>216.4</ele><time>2026-08-13T19:26:28Z</time></trkpt>
<trkpt lat="35.198303" lon="-84.900141"><ele>216.1</ele><time>2026-08-13T19:26:30Z</time></trkpt>
<trkpt lat="35.198282" lon="-84.900171"><ele>216.1</ele><time>2026-08-13T19:26:32Z</time></trkpt>
<trkpt lat="35.19826" lon="-84.900195"><ele>216.1</ele><time>2026-08-13T19:26:34Z</time></trkpt>
<trkpt lat="35.198225" lon="-84.900221"><ele>216.7</ele><time>2026-08-13T19:26:37Z</time></trkpt>
<trkpt lat="35.198199" lon="-84.900236"><ele>217.3</ele><time>2026-08-13T19:26:39Z</time></trkpt>
<trkpt lat="35.19817" lon="-84.900248"><ele>217.3</ele><time>2026-08-13T19:26:41Z</time></trkpt>
<trkpt lat="35.198144" lon="-84.900257"><ele>217.3</ele><time>2026-08-13T19:26:43Z</time></trkpt>
<trkpt lat="35.19811" lon="-84.900284"><ele>217.3</ele><time>2026-08-13T19:26:46Z</time></trkpt>
<trkpt lat="35.198086" lon="-84.900308"><ele>217.6</ele><time>2026-08-13T19:26:48Z</time></trkpt>
<trkpt lat="35.198063" lon="-84.900332"><ele>217.9</ele><time>2026-08-13T19:26:50Z</time></trkpt>
<trkpt lat="35.198039" lon="-84.900355"><ele>218.5</ele><time>2026-08-13T19:26:52Z</time></trkpt>
<trkpt lat="35.198016" lon="-84.900378"><ele>217.9</ele><time>2026-08-13T19:26:54Z</time></trkpt>
<trkpt lat="35.197988" lon="-84.900396"><ele>218.2</ele><time>2026-08-13T19:26:56Z</time></trkpt>
<trkpt lat="35.197964" lon="-84.900421"><ele>217.6</ele><time>2026-08-13T19:26:58Z</time></trkpt>
<trkpt lat="35.197944" lon="-84.900446"><ele>218.2</ele><time>2026-08-13T19:27:00Z</time></trkpt>
<trkpt lat="35.197917" lon="-84.90048"><ele>218.8</ele><time>2026-08-13T19:27:03Z</time></trkpt>
<trkpt lat="35.197897" lon="-84.900505"><ele>218.2</ele><time>2026-08-13T19:27:05Z</time></trkpt>
<trkpt lat="35.19788" lon="-84.900532"><ele>218.2</ele><time>2026-08-13T19:27:07Z</time></trkpt>
<trkpt lat="35.197863" lon="-84.900559"><ele>218.2</ele><time>2026-08-13T19:27:09Z</time></trkpt>
<trkpt lat="35.197846" lon="-84.900589"><ele>217.3</ele><time>2026-08-13T19:27:11Z</time></trkpt>
<trkpt lat="35.197828" lon="-84.900621"><ele>217.0</ele><time>2026-08-13T19:27:13Z</time></trkpt>
<trkpt lat="35.197817" lon="-84.900658"><ele>216.4</ele><time>2026-08-13T19:27:15Z</time></trkpt>
<trkpt lat="35.19781" lon="-84.900694"><ele>216.4</ele><time>2026-08-13T19:27:17Z</time></trkpt>
<trkpt lat="35.197812" lon="-84.900729"><ele>218.2</ele><time>2026-08-13T19:27:19Z</time></trkpt>
<trkpt lat="35.197803" lon="-84.900779"><ele>217.9</ele><time>2026-08-13T19:27:22Z</time></trkpt>
<trkpt lat="35.197799" lon="-84.900817"><ele>217.6</ele><time>2026-08-13T19:27:24Z</time></trkpt>
<trkpt lat="35.197795" lon="-84.900851"><ele>217.3</ele><time>2026-08-13T19:27:26Z</time></trkpt>
<trkpt lat="35.197792" lon="-84.900884"><ele>217.6</ele><time>2026-08-13T19:27:28Z</time></trkpt>
<trkpt lat="35.197785" lon="-84.90092"><ele>218.5</ele><time>2026-08-13T19:27:30Z</time></trkpt>
<trkpt lat="35.197776" lon="-84.900953"><ele>218.8</ele><time>2026-08-13T19:27:32Z</time></trkpt>
<trkpt lat="35.19776" lon="-84.900987"><ele>219.2</ele><time>2026-08-13T19:27:34Z</time></trkpt>
<trkpt lat="35.197742" lon="-84.901015"><ele>218.8</ele><time>2026-08-13T19:27:36Z</time></trkpt>
<trkpt lat="35.197723" lon="-84.901042"><ele>217.9</ele><time>2026-08-13T19:27:38Z</time></trkpt>
<trkpt lat="35.197696" lon="-84.901079"><ele>217.3</ele><time>2026-08-13T19:27:41Z</time></trkpt>
<trkpt lat="35.197679" lon="-84.901112"><ele>216.7</ele><time>2026-08-13T19:27:43Z</time></trkpt>
<trkpt lat="35.19766" lon="-84.901139"><ele>216.4</ele><time>2026-08-13T19:27:45Z</time></trkpt>
<trkpt lat="35.19764" lon="-84.901162"><ele>216.7</ele><time>2026-08-13T19:27:47Z</time></trkpt>
<trkpt lat="35.197616" lon="-84.901185"><ele>217.3</ele><time>2026-08-13T19:27:49Z</time></trkpt>
<trkpt lat="35.197589" lon="-84.901217"><ele>217.3</ele><time>2026-08-13T19:27:52Z</time></trkpt>
<trkpt lat="35.197566" lon="-84.901234"><ele>216.4</ele><time>2026-08-13T19:27:54Z</time></trkpt>
<trkpt lat="35.197549" lon="-84.901264"><ele>217.0</ele><time>2026-08-13T19:27:56Z</time></trkpt>
<trkpt lat="35.197526" lon="-84.901288"><ele>217.3</ele><time>2026-08-13T19:27:58Z</time></trkpt>
<trkpt lat="35.197506" lon="-84.901312"><ele>217.3</ele><time>2026-08-13T19:28:00Z</time></trkpt>
<trkpt lat="35.197477" lon="-84.901347"><ele>217.3</ele><time>2026-08-13T19:28:03Z</time></trkpt>
<trkpt lat="35.197462" lon="-84.901379"><ele>218.2</ele><time>2026-08-13T19:28:05Z</time></trkpt>
<trkpt lat="35.197446" lon="-84.901409"><ele>218.5</ele><time>2026-08-13T19:28:07Z</time></trkpt>
<trkpt lat="35.197424" lon="-84.901433"><ele>217.9</ele><time>2026-08-13T19:28:09Z</time></trkpt>
<trkpt lat="35.197404" lon="-84.901462"><ele>217.9</ele><time>2026-08-13T19:28:11Z</time></trkpt>
<trkpt lat="35.197382" lon="-84.901483"><ele>217.0</ele><time>2026-08-13T19:28:13Z</time></trkpt>
<trkpt lat="35.197361" lon="-84.901508"><ele>215.8</ele><time>2026-08-13T19:28:15Z</time></trkpt>
<trkpt lat="35.197344" lon="-84.901538"><ele>215.5</ele><time>2026-08-13T19:28:17Z</time></trkpt>
<trkpt lat="35.197328" lon="-84.901569"><ele>216.4</ele><time>2026-08-13T19:28:19Z</time></trkpt>
<trkpt lat="35.19731" lon="-84.901594"><ele>216.7</ele><time>2026-08-13T19:28:21Z</time></trkpt>
<trkpt lat="35.197294" lon="-84.901623"><ele>217.0</ele><time>2026-08-13T19:28:23Z</time></trkpt>
<trkpt lat="35.197272" lon="-84.901649"><ele>217.6</ele><time>2026-08-13T19:28:25Z</time></trkpt>
<trkpt lat="35.197255" lon="-84.901677"><ele>217.3</ele><time>2026-08-13T19:28:27Z</time></trkpt>
<trkpt lat="35.197242" lon="-84.901707"><ele>217.0</ele><time>2026-08-13T19:28:29Z</time></trkpt>
<trkpt lat="35.197221" lon="-84.901747"><ele>217.9</ele><time>2026-08-13T19:28:32Z</time></trkpt>
<trkpt lat="35.197199" lon="-84.901784"><ele>217.9</ele><time>2026-08-13T19:28:35Z</time></trkpt>
<trkpt lat="35.197182" lon="-84.901812"><ele>217.9</ele><time>2026-08-13T19:28:37Z</time></trkpt>
<trkpt lat="35.197162" lon="-84.90184"><ele>218.8</ele><time>2026-08-13T19:28:39Z</time></trkpt>
<trkpt lat="35.19714" lon="-84.901867"><ele>219.2</ele><time>2026-08-13T19:28:41Z</time></trkpt>
<trkpt lat="35.197124" lon="-84.901905"><ele>218.8</ele><time>2026-08-13T19:28:43Z</time></trkpt>
<trkpt lat="35.197108" lon="-84.901933"><ele>219.2</ele><time>2026-08-13T19:28:45Z</time></trkpt>
<trkpt lat="35.197089" lon="-84.901976"><ele>219.2</ele><time>2026-08-13T19:28:48Z</time></trkpt>
<trkpt lat="35.197079" lon="-84.902008"><ele>218.8</ele><time>2026-08-13T19:28:50Z</time></trkpt>
<trkpt lat="35.197065" lon="-84.902037"><ele>218.2</ele><time>2026-08-13T19:28:52Z</time></trkpt>
<trkpt lat="35.197044" lon="-84.902061"><ele>217.9</ele><time>2026-08-13T19:28:54Z</time></trkpt>
<trkpt lat="35.197031" lon="-84.902091"><ele>217.9</ele><time>2026-08-13T19:28:56Z</time></trkpt>
<trkpt lat="35.197008" lon="-84.902133"><ele>218.2</ele><time>2026-08-13T19:28:59Z</time></trkpt>
<trkpt lat="35.196987" lon="-84.902162"><ele>218.5</ele><time>2026-08-13T19:29:01Z</time></trkpt>
<trkpt lat="35.196972" lon="-84.902192"><ele>218.8</ele><time>2026-08-13T19:29:03Z</time></trkpt>
<trkpt lat="35.196954" lon="-84.902236"><ele>220.1</ele><time>2026-08-13T19:29:06Z</time></trkpt>
<trkpt lat="35.196933" lon="-84.902279"><ele>220.4</ele><time>2026-08-13T19:29:09Z</time></trkpt>
<trkpt lat="35.196921" lon="-84.902312"><ele>219.8</ele><time>2026-08-13T19:29:11Z</time></trkpt>
<trkpt lat="35.196904" lon="-84.902338"><ele>220.1</ele><time>2026-08-13T19:29:13Z</time></trkpt>
<trkpt lat="35.196886" lon="-84.902382"><ele>219.2</ele><time>2026-08-13T19:29:16Z</time></trkpt>
<trkpt lat="35.196879" lon="-84.902419"><ele>220.4</ele><time>2026-08-13T19:29:18Z</time></trkpt>
<trkpt lat="35.19687" lon="-84.902453"><ele>220.1</ele><time>2026-08-13T19:29:20Z</time></trkpt>
<trkpt lat="35.196862" lon="-84.902486"><ele>220.1</ele><time>2026-08-13T19:29:22Z</time></trkpt>
<trkpt lat="35.196849" lon="-84.902519"><ele>220.1</ele><time>2026-08-13T19:29:24Z</time></trkpt>
<trkpt lat="35.196835" lon="-84.902554"><ele>218.5</ele><time>2026-08-13T19:29:26Z</time></trkpt>
<trkpt lat="35.196831" lon="-84.90259"><ele>219.8</ele><time>2026-08-13T19:29:28Z</time></trkpt>
<trkpt lat="35.196827" lon="-84.90264"><ele>218.8</ele><time>2026-08-13T19:29:31Z</time></trkpt>
<trkpt lat="35.196823" lon="-84.902674"><ele>219.2</ele><time>2026-08-13T19:29:33Z</time></trkpt>
<trkpt lat="35.196815" lon="-84.902723"><ele>218.8</ele><time>2026-08-13T19:29:36Z</time></trkpt>
<trkpt lat="35.196814" lon="-84.902758"><ele>218.8</ele><time>2026-08-13T19:29:38Z</time></trkpt>
<trkpt lat="35.196813" lon="-84.902793"><ele>219.5</ele><time>2026-08-13T19:29:40Z</time></trkpt>
<trkpt lat="35.196807" lon="-84.902829"><ele>220.1</ele><time>2026-08-13T19:29:42Z</time></trkpt>
<trkpt lat="35.19681" lon="-84.902865"><ele>221.0</ele><time>2026-08-13T19:29:44Z</time></trkpt>
<trkpt lat="35.196811" lon="-84.9029"><ele>221.9</ele><time>2026-08-13T19:29:46Z</time></trkpt>
<trkpt lat="35.196813" lon="-84.902949"><ele>221.9</ele><time>2026-08-13T19:29:49Z</time></trkpt>
<trkpt lat="35.196805" lon="-84.902983"><ele>221.9</ele><time>2026-08-13T19:29:51Z</time></trkpt>
<trkpt lat="35.196804" lon="-84.903018"><ele>221.6</ele><time>2026-08-13T19:29:53Z</time></trkpt>
<trkpt lat="35.196801" lon="-84.903055"><ele>221.0</ele><time>2026-08-13T19:29:55Z</time></trkpt>
<trkpt lat="35.196796" lon="-84.90309"><ele>220.7</ele><time>2026-08-13T19:29:57Z</time></trkpt>
<trkpt lat="35.196794" lon="-84.903127"><ele>219.2</ele><time>2026-08-13T19:29:59Z</time></trkpt>
<trkpt lat="35.196793" lon="-84.903161"><ele>219.2</ele><time>2026-08-13T19:30:01Z</time></trkpt>
<trkpt lat="35.196789" lon="-84.903197"><ele>220.1</ele><time>2026-08-13T19:30:03Z</time></trkpt>
<trkpt lat="35.196791" lon="-84.903233"><ele>219.8</ele><time>2026-08-13T19:30:05Z</time></trkpt>
<trkpt lat="35.196794" lon="-84.903267"><ele>220.1</ele><time>2026-08-13T19:30:07Z</time></trkpt>
<trkpt lat="35.196797" lon="-84.903303"><ele>220.7</ele><time>2026-08-13T19:30:09Z</time></trkpt>
<trkpt lat="35.196799" lon="-84.903353"><ele>221.6</ele><time>2026-08-13T19:30:12Z</time></trkpt>
<trkpt lat="35.196796" lon="-84.903388"><ele>221.3</ele><time>2026-08-13T19:30:14Z</time></trkpt>
<trkpt lat="35.196795" lon="-84.903425"><ele>221.3</ele><time>2026-08-13T19:30:16Z</time></trkpt>
<trkpt lat="35.196791" lon="-84.903459"><ele>221.9</ele><time>2026-08-13T19:30:18Z</time></trkpt>
<trkpt lat="35.196787" lon="-84.903493"><ele>221.6</ele><time>2026-08-13T19:30:20Z</time></trkpt>
<trkpt lat="35.19678" lon="-84.903529"><ele>222.8</ele><time>2026-08-13T19:30:22Z</time></trkpt>
<trkpt lat="35.196774" lon="-84.903566"><ele>222.5</ele><time>2026-08-13T19:30:24Z</time></trkpt>
<trkpt lat="35.196776" lon="-84.903607"><ele>222.8</ele><time>2026-08-13T19:30:26Z</time></trkpt>
<trkpt lat="35.196777" lon="-84.903643"><ele>222.2</ele><time>2026-08-13T19:30:28Z</time></trkpt>
<trkpt lat="35.196773" lon="-84.903681"><ele>221.9</ele><time>2026-08-13T19:30:30Z</time></trkpt>
<trkpt lat="35.196763" lon="-84.903717"><ele>221.6</ele><time>2026-08-13T19:30:32Z</time></trkpt>
<trkpt lat="35.196757" lon="-84.903751"><ele>221.6</ele><time>2026-08-13T19:30:34Z</time></trkpt>
<trkpt lat="35.196751" lon="-84.903789"><ele>222.5</ele><time>2026-08-13T19:30:36Z</time></trkpt>
<trkpt lat="35.196749" lon="-84.903826"><ele>221.3</ele><time>2026-08-13T19:30:38Z</time></trkpt>
<trkpt lat="35.196745" lon="-84.903864"><ele>221.0</ele><time>2026-08-13T19:30:40Z</time></trkpt>
<trkpt lat="35.196741" lon="-84.903898"><ele>220.7</ele><time>2026-08-13T19:30:42Z</time></trkpt>
<trkpt lat="35.19674" lon="-84.903933"><ele>219.8</ele><time>2026-08-13T19:30:44Z</time></trkpt>
<trkpt lat="35.196744" lon="-84.903981"><ele>219.2</ele><time>2026-08-13T19:30:47Z</time></trkpt>
<trkpt lat="35.196743" lon="-84.904029"><ele>219.2</ele><time>2026-08-13T19:30:50Z</time></trkpt>
<trkpt lat="35.196736" lon="-84.904065"><ele>218.5</ele><time>2026-08-13T19:30:52Z</time></trkpt>
<trkpt lat="35.196735" lon="-84.904113"><ele>218.2</ele><time>2026-08-13T19:30:55Z</time></trkpt>
<trkpt lat="35.196738" lon="-84.904147"><ele>218.2</ele><time>2026-08-13T19:30:57Z</time></trkpt>
<trkpt lat="35.196735" lon="-84.904185"><ele>218.5</ele><time>2026-08-13T19:30:59Z</time></trkpt>
<trkpt lat="35.196733" lon="-84.90422"><ele>218.5</ele><time>2026-08-13T19:31:01Z</time></trkpt>
<trkpt lat="35.196731" lon="-84.904255"><ele>219.2</ele><time>2026-08-13T19:31:03Z</time></trkpt>
<trkpt lat="35.196729" lon="-84.904291"><ele>219.5</ele><time>2026-08-13T19:31:05Z</time></trkpt>
<trkpt lat="35.196729" lon="-84.904328"><ele>219.5</ele><time>2026-08-13T19:31:07Z</time></trkpt>
<trkpt lat="35.196729" lon="-84.904366"><ele>219.8</ele><time>2026-08-13T19:31:09Z</time></trkpt>
<trkpt lat="35.196731" lon="-84.9044"><ele>220.1</ele><time>2026-08-13T19:31:11Z</time></trkpt>
<trkpt lat="35.19673" lon="-84.904434"><ele>220.7</ele><time>2026-08-13T19:31:13Z</time></trkpt>
<trkpt lat="35.196737" lon="-84.904471"><ele>220.7</ele><time>2026-08-13T19:31:15Z</time></trkpt>
<trkpt lat="35.196732" lon="-84.904518"><ele>220.4</ele><time>2026-08-13T19:31:18Z</time></trkpt>
<trkpt lat="35.196735" lon="-84.904552"><ele>220.4</ele><time>2026-08-13T19:31:20Z</time></trkpt>
<trkpt lat="35.196734" lon="-84.904603"><ele>219.2</ele><time>2026-08-13T19:31:23Z</time></trkpt>
<trkpt lat="35.196734" lon="-84.904639"><ele>219.5</ele><time>2026-08-13T19:31:25Z</time></trkpt>
<trkpt lat="35.196733" lon="-84.904674"><ele>219.8</ele><time>2026-08-13T19:31:27Z</time></trkpt>
<trkpt lat="35.196736" lon="-84.904711"><ele>219.8</ele><time>2026-08-13T19:31:29Z</time></trkpt>
<trkpt lat="35.196742" lon="-84.904747"><ele>218.8</ele><time>2026-08-13T19:31:31Z</time></trkpt>
<trkpt lat="35.196749" lon="-84.904785"><ele>218.2</ele><time>2026-08-13T19:31:33Z</time></trkpt>
<trkpt lat="35.196758" lon="-84.904832"><ele>217.0</ele><time>2026-08-13T19:31:36Z</time></trkpt>
<trkpt lat="35.196766" lon="-84.904878"><ele>217.6</ele><time>2026-08-13T19:31:39Z</time></trkpt>
<trkpt lat="35.196769" lon="-84.904911"><ele>217.9</ele><time>2026-08-13T19:31:41Z</time></trkpt>
<trkpt lat="35.196773" lon="-84.904945"><ele>217.6</ele><time>2026-08-13T19:31:43Z</time></trkpt>
<trkpt lat="35.196782" lon="-84.904984"><ele>218.2</ele><time>2026-08-13T19:31:45Z</time></trkpt>
<trkpt lat="35.196788" lon="-84.905021"><ele>217.6</ele><time>2026-08-13T19:31:47Z</time></trkpt>
<trkpt lat="35.196794" lon="-84.905058"><ele>218.2</ele><time>2026-08-13T19:31:49Z</time></trkpt>
<trkpt lat="35.196798" lon="-84.905094"><ele>218.5</ele><time>2026-08-13T19:31:51Z</time></trkpt>
<trkpt lat="35.196802" lon="-84.90513"><ele>219.2</ele><time>2026-08-13T19:31:53Z</time></trkpt>
<trkpt lat="35.196809" lon="-84.905167"><ele>219.5</ele><time>2026-08-13T19:31:55Z</time></trkpt>
<trkpt lat="35.196814" lon="-84.905204"><ele>219.5</ele><time>2026-08-13T19:31:57Z</time></trkpt>
<trkpt lat="35.196819" lon="-84.905242"><ele>219.5</ele><time>2026-08-13T19:31:59Z</time></trkpt>
<trkpt lat="35.196824" lon="-84.905278"><ele>219.8</ele><time>2026-08-13T19:32:01Z</time></trkpt>
<trkpt lat="35.196827" lon="-84.905314"><ele>219.5</ele><time>2026-08-13T19:32:03Z</time></trkpt>
<trkpt lat="35.196829" lon="-84.905349"><ele>219.5</ele><time>2026-08-13T19:32:05Z</time></trkpt>
<trkpt lat="35.196831" lon="-84.905383"><ele>219.2</ele><time>2026-08-13T19:32:07Z</time></trkpt>
<trkpt lat="35.196834" lon="-84.905428"><ele>218.8</ele><time>2026-08-13T19:32:10Z</time></trkpt>
<trkpt lat="35.196833" lon="-84.905462"><ele>218.5</ele><time>2026-08-13T19:32:12Z</time></trkpt>
<trkpt lat="35.196834" lon="-84.905511"><ele>217.9</ele><time>2026-08-13T19:32:15Z</time></trkpt>
<trkpt lat="35.19684" lon="-84.905547"><ele>217.6</ele><time>2026-08-13T19:32:17Z</time></trkpt>
<trkpt lat="35.196845" lon="-84.905581"><ele>218.2</ele><time>2026-08-13T19:32:19Z</time></trkpt>
<trkpt lat="35.196854" lon="-84.905617"><ele>219.2</ele><time>2026-08-13T19:32:21Z</time></trkpt>
<trkpt lat="35.196858" lon="-84.905653"><ele>219.2</ele><time>2026-08-13T19:32:23Z</time></trkpt>
<trkpt lat="35.196862" lon="-84.905688"><ele>220.1</ele><time>2026-08-13T19:32:25Z</time></trkpt>
<trkpt lat="35.196867" lon="-84.905724"><ele>219.2</ele><time>2026-08-13T19:32:27Z</time></trkpt>
<trkpt lat="35.196866" lon="-84.905761"><ele>220.1</ele><time>2026-08-13T19:32:29Z</time></trkpt>
<trkpt lat="35.19687" lon="-84.9058"><ele>219.8</ele><time>2026-08-13T19:32:31Z</time></trkpt>
<trkpt lat="35.196875" lon="-84.905849"><ele>220.4</ele><time>2026-08-13T19:32:34Z</time></trkpt>
<trkpt lat="35.196883" lon="-84.905894"><ele>220.7</ele><time>2026-08-13T19:32:37Z</time></trkpt>
<trkpt lat="35.196888" lon="-84.905929"><ele>221.0</ele><time>2026-08-13T19:32:39Z</time></trkpt>
<trkpt lat="35.196888" lon="-84.905966"><ele>220.4</ele><time>2026-08-13T19:32:41Z</time></trkpt>
<trkpt lat="35.196887" lon="-84.906002"><ele>219.5</ele><time>2026-08-13T19:32:43Z</time></trkpt>
<trkpt lat="35.196881" lon="-84.906039"><ele>219.2</ele><time>2026-08-13T19:32:45Z</time></trkpt>
<trkpt lat="35.196883" lon="-84.906074"><ele>218.5</ele><time>2026-08-13T19:32:47Z</time></trkpt>
<trkpt lat="35.196883" lon="-84.90611"><ele>218.5</ele><time>2026-08-13T19:32:49Z</time></trkpt>
<trkpt lat="35.196886" lon="-84.906147"><ele>218.5</ele><time>2026-08-13T19:32:51Z</time></trkpt>
<trkpt lat="35.196887" lon="-84.906183"><ele>218.5</ele><time>2026-08-13T19:32:53Z</time></trkpt>
<trkpt lat="35.196889" lon="-84.906219"><ele>218.5</ele><time>2026-08-13T19:32:55Z</time></trkpt>
<trkpt lat="35.196892" lon="-84.906255"><ele>219.2</ele><time>2026-08-13T19:32:57Z</time></trkpt>
<trkpt lat="35.196895" lon="-84.906289"><ele>219.8</ele><time>2026-08-13T19:32:59Z</time></trkpt>
<trkpt lat="35.196898" lon="-84.906326"><ele>220.7</ele><time>2026-08-13T19:33:01Z</time></trkpt>
<trkpt lat="35.196903" lon="-84.906363"><ele>220.7</ele><time>2026-08-13T19:33:03Z</time></trkpt>
<trkpt lat="35.196908" lon="-84.906412"><ele>221.6</ele><time>2026-08-13T19:33:06Z</time></trkpt>
<trkpt lat="35.196903" lon="-84.906447"><ele>221.3</ele><time>2026-08-13T19:33:08Z</time></trkpt>
<trkpt lat="35.196901" lon="-84.906482"><ele>221.0</ele><time>2026-08-13T19:33:10Z</time></trkpt>
<trkpt lat="35.196902" lon="-84.906519"><ele>220.7</ele><time>2026-08-13T19:33:12Z</time></trkpt>
<trkpt lat="35.196903" lon="-84.906557"><ele>220.4</ele><time>2026-08-13T19:33:14Z</time></trkpt>
<trkpt lat="35.196901" lon="-84.906595"><ele>219.5</ele><time>2026-08-13T19:33:16Z</time></trkpt>
<trkpt lat="35.1969" lon="-84.906629"><ele>220.1</ele><time>2026-08-13T19:33:18Z</time></trkpt>
<trkpt lat="35.1969" lon="-84.906678"><ele>219.8</ele><time>2026-08-13T19:33:21Z</time></trkpt>
<trkpt lat="35.1969" lon="-84.906712"><ele>219.8</ele><time>2026-08-13T19:33:23Z</time></trkpt>
<trkpt lat="35.1969" lon="-84.906748"><ele>219.8</ele><time>2026-08-13T19:33:25Z</time></trkpt>
<trkpt lat="35.196909" lon="-84.906798"><ele>219.5</ele><time>2026-08-13T19:33:28Z</time></trkpt>
<trkpt lat="35.196918" lon="-84.906834"><ele>219.8</ele><time>2026-08-13T19:33:30Z</time></trkpt>
<trkpt lat="35.196921" lon="-84.906871"><ele>220.1</ele><time>2026-08-13T19:33:32Z</time></trkpt>
<trkpt lat="35.196927" lon="-84.906908"><ele>220.1</ele><time>2026-08-13T19:33:34Z</time></trkpt>
<trkpt lat="35.196934" lon="-84.906946"><ele>220.4</ele><time>2026-08-13T19:33:36Z</time></trkpt>
<trkpt lat="35.196944" lon="-84.906979"><ele>220.4</ele><time>2026-08-13T19:33:38Z</time></trkpt>
<trkpt lat="35.196951" lon="-84.907015"><ele>220.4</ele><time>2026-08-13T19:33:40Z</time></trkpt>
<trkpt lat="35.196961" lon="-84.90705"><ele>220.1</ele><time>2026-08-13T19:33:42Z</time></trkpt>
<trkpt lat="35.196967" lon="-84.907086"><ele>219.8</ele><time>2026-08-13T19:33:44Z</time></trkpt>
<trkpt lat="35.196975" lon="-84.907119"><ele>220.1</ele><time>2026-08-13T19:33:46Z</time></trkpt>
<trkpt lat="35.19698" lon="-84.907154"><ele>220.1</ele><time>2026-08-13T19:33:48Z</time></trkpt>
<trkpt lat="35.196987" lon="-84.907202"><ele>220.4</ele><time>2026-08-13T19:33:51Z</time></trkpt>
<trkpt lat="35.196991" lon="-84.907236"><ele>220.4</ele><time>2026-08-13T19:33:53Z</time></trkpt>
<trkpt lat="35.196996" lon="-84.907271"><ele>220.4</ele><time>2026-08-13T19:33:55Z</time></trkpt>
<trkpt lat="35.196999" lon="-84.907305"><ele>220.7</ele><time>2026-08-13T19:33:57Z</time></trkpt>
<trkpt lat="35.197" lon="-84.907339"><ele>220.7</ele><time>2026-08-13T19:33:59Z</time></trkpt>
<trkpt lat="35.197002" lon="-84.907375"><ele>220.4</ele><time>2026-08-13T19:34:01Z</time></trkpt>
<trkpt lat="35.197006" lon="-84.907409"><ele>220.1</ele><time>2026-08-13T19:34:03Z</time></trkpt>
<trkpt lat="35.197009" lon="-84.907444"><ele>220.1</ele><time>2026-08-13T19:34:05Z</time></trkpt>
<trkpt lat="35.197013" lon="-84.90748"><ele>220.1</ele><time>2026-08-13T19:34:07Z</time></trkpt>
<trkpt lat="35.197017" lon="-84.907517"><ele>220.1</ele><time>2026-08-13T19:34:09Z</time></trkpt>
<trkpt lat="35.197019" lon="-84.907555"><ele>220.4</ele><time>2026-08-13T19:34:11Z</time></trkpt>
<trkpt lat="35.197024" lon="-84.907591"><ele>220.7</ele><time>2026-08-13T19:34:13Z</time></trkpt>
<trkpt lat="35.197029" lon="-84.907625"><ele>221.6</ele><time>2026-08-13T19:34:15Z</time></trkpt>
<trkpt lat="35.197034" lon="-84.907661"><ele>221.9</ele><time>2026-08-13T19:34:17Z</time></trkpt>
<trkpt lat="35.197036" lon="-84.907695"><ele>222.8</ele><time>2026-08-13T19:34:19Z</time></trkpt>
<trkpt lat="35.197038" lon="-84.907736"><ele>222.2</ele><time>2026-08-13T19:34:21Z</time></trkpt>
<trkpt lat="35.197038" lon="-84.907776"><ele>221.9</ele><time>2026-08-13T19:34:23Z</time></trkpt>
<trkpt lat="35.197041" lon="-84.907812"><ele>222.8</ele><time>2026-08-13T19:34:25Z</time></trkpt>
<trkpt lat="35.197038" lon="-84.907849"><ele>222.5</ele><time>2026-08-13T19:34:27Z</time></trkpt>
<trkpt lat="35.19704" lon="-84.907884"><ele>222.5</ele><time>2026-08-13T19:34:29Z</time></trkpt>
<trkpt lat="35.197037" lon="-84.907918"><ele>222.2</ele><time>2026-08-13T19:34:31Z</time></trkpt>
<trkpt lat="35.197036" lon="-84.907955"><ele>222.5</ele><time>2026-08-13T19:34:33Z</time></trkpt>
<trkpt lat="35.197038" lon="-84.907993"><ele>221.9</ele><time>2026-08-13T19:34:35Z</time></trkpt>
<trkpt lat="35.197034" lon="-84.908035"><ele>221.3</ele><time>2026-08-13T19:34:37Z</time></trkpt>
<trkpt lat="35.197032" lon="-84.908074"><ele>221.3</ele><time>2026-08-13T19:34:39Z</time></trkpt>
<trkpt lat="35.197026" lon="-84.908113"><ele>221.0</ele><time>2026-08-13T19:34:41Z</time></trkpt>
<trkpt lat="35.197019" lon="-84.908151"><ele>220.7</ele><time>2026-08-13T19:34:43Z</time></trkpt>
<trkpt lat="35.19702" lon="-84.908189"><ele>220.7</ele><time>2026-08-13T19:34:45Z</time></trkpt>
<trkpt lat="35.197023" lon="-84.908227"><ele>220.7</ele><time>2026-08-13T19:34:47Z</time></trkpt>
<trkpt lat="35.197026" lon="-84.908261"><ele>220.4</ele><time>2026-08-13T19:34:49Z</time></trkpt>
<trkpt lat="35.197031" lon="-84.908299"><ele>220.1</ele><time>2026-08-13T19:34:51Z</time></trkpt>
<trkpt lat="35.197042" lon="-84.908335"><ele>220.1</ele><time>2026-08-13T19:34:53Z</time></trkpt>
<trkpt lat="35.197055" lon="-84.90837"><ele>219.8</ele><time>2026-08-13T19:34:55Z</time></trkpt>
<trkpt lat="35.19707" lon="-84.908403"><ele>219.8</ele><time>2026-08-13T19:34:57Z</time></trkpt>
<trkpt lat="35.197083" lon="-84.908437"><ele>220.1</ele><time>2026-08-13T19:34:59Z</time></trkpt>
<trkpt lat="35.197086" lon="-84.908477"><ele>220.1</ele><time>2026-08-13T19:35:01Z</time></trkpt>
<trkpt lat="35.197084" lon="-84.908514"><ele>219.2</ele><time>2026-08-13T19:35:03Z</time></trkpt>
<trkpt lat="35.197065" lon="-84.908548"><ele>219.2</ele><time>2026-08-13T19:35:05Z</time></trkpt>
<trkpt lat="35.19704" lon="-84.908575"><ele>219.2</ele><time>2026-08-13T19:35:07Z</time></trkpt>
<trkpt lat="35.197012" lon="-84.908599"><ele>219.2</ele><time>2026-08-13T19:35:09Z</time></trkpt>
<trkpt lat="35.196981" lon="-84.90862"><ele>219.2</ele><time>2026-08-13T19:35:11Z</time></trkpt>
<trkpt lat="35.196952" lon="-84.908638"><ele>219.2</ele><time>2026-08-13T19:35:13Z</time></trkpt>
<trkpt lat="35.196919" lon="-84.908651"><ele>218.8</ele><time>2026-08-13T19:35:15Z</time></trkpt>
<trkpt lat="35.196892" lon="-84.908667"><ele>218.5</ele><time>2026-08-13T19:35:17Z</time></trkpt>
<trkpt lat="35.196862" lon="-84.908682"><ele>218.5</ele><time>2026-08-13T19:35:19Z</time></trkpt>
<trkpt lat="35.196823" lon="-84.908698"><ele>219.5</ele><time>2026-08-13T19:35:22Z</time></trkpt>
<trkpt lat="35.196795" lon="-84.908715"><ele>218.8</ele><time>2026-08-13T19:35:24Z</time></trkpt>
<trkpt lat="35.196766" lon="-84.908725"><ele>218.5</ele><time>2026-08-13T19:35:26Z</time></trkpt>
<trkpt lat="35.196738" lon="-84.908737"><ele>218.2</ele><time>2026-08-13T19:35:28Z</time></trkpt>
<trkpt lat="35.19671" lon="-84.908756"><ele>218.2</ele><time>2026-08-13T19:35:30Z</time></trkpt>
<trkpt lat="35.196683" lon="-84.908773"><ele>218.2</ele><time>2026-08-13T19:35:32Z</time></trkpt>
<trkpt lat="35.196658" lon="-84.908787"><ele>218.2</ele><time>2026-08-13T19:35:34Z</time></trkpt>
<trkpt lat="35.196632" lon="-84.908806"><ele>218.2</ele><time>2026-08-13T19:35:36Z</time></trkpt>
<trkpt lat="35.196605" lon="-84.908824"><ele>218.5</ele><time>2026-08-13T19:35:38Z</time></trkpt>
<trkpt lat="35.196579" lon="-84.908839"><ele>218.5</ele><time>2026-08-13T19:35:40Z</time></trkpt>
<trkpt lat="35.196544" lon="-84.908859"><ele>218.8</ele><time>2026-08-13T19:35:43Z</time></trkpt>
<trkpt lat="35.196509" lon="-84.908876"><ele>219.2</ele><time>2026-08-13T19:35:46Z</time></trkpt>
<trkpt lat="35.196482" lon="-84.908888"><ele>218.8</ele><time>2026-08-13T19:35:48Z</time></trkpt>
<trkpt lat="35.196455" lon="-84.9089"><ele>218.8</ele><time>2026-08-13T19:35:50Z</time></trkpt>
<trkpt lat="35.196427" lon="-84.908913"><ele>218.8</ele><time>2026-08-13T19:35:52Z</time></trkpt>
<trkpt lat="35.196397" lon="-84.908924"><ele>218.8</ele><time>2026-08-13T19:35:54Z</time></trkpt>
<trkpt lat="35.196366" lon="-84.908937"><ele>219.5</ele><time>2026-08-13T19:35:56Z</time></trkpt>
<trkpt lat="35.196336" lon="-84.908947"><ele>219.8</ele><time>2026-08-13T19:35:58Z</time></trkpt>
<trkpt lat="35.196307" lon="-84.908958"><ele>220.1</ele><time>2026-08-13T19:36:00Z</time></trkpt>
<trkpt lat="35.196278" lon="-84.908968"><ele>220.4</ele><time>2026-08-13T19:36:02Z</time></trkpt>
<trkpt lat="35.19625" lon="-84.908977"><ele>221.0</ele><time>2026-08-13T19:36:04Z</time></trkpt>
<trkpt lat="35.196221" lon="-84.908987"><ele>221.0</ele><time>2026-08-13T19:36:06Z</time></trkpt>
<trkpt lat="35.196189" lon="-84.90899"><ele>221.3</ele><time>2026-08-13T19:36:08Z</time></trkpt>
<trkpt lat="35.196158" lon="-84.908995"><ele>221.6</ele><time>2026-08-13T19:36:10Z</time></trkpt>
<trkpt lat="35.196128" lon="-84.909003"><ele>221.0</ele><time>2026-08-13T19:36:12Z</time></trkpt>
<trkpt lat="35.196094" lon="-84.909006"><ele>221.3</ele><time>2026-08-13T19:36:14Z</time></trkpt>
<trkpt lat="35.196064" lon="-84.909008"><ele>221.0</ele><time>2026-08-13T19:36:16Z</time></trkpt>
<trkpt lat="35.196035" lon="-84.90901"><ele>221.0</ele><time>2026-08-13T19:36:18Z</time></trkpt>
<trkpt lat="35.196003" lon="-84.909013"><ele>221.0</ele><time>2026-08-13T19:36:20Z</time></trkpt>
<trkpt lat="35.195975" lon="-84.909014"><ele>221.0</ele><time>2026-08-13T19:36:22Z</time></trkpt>
<trkpt lat="35.195946" lon="-84.909014"><ele>220.7</ele><time>2026-08-13T19:36:24Z</time></trkpt>
<trkpt lat="35.195918" lon="-84.909009"><ele>221.0</ele><time>2026-08-13T19:36:26Z</time></trkpt>
<trkpt lat="35.195888" lon="-84.908999"><ele>221.0</ele><time>2026-08-13T19:36:28Z</time></trkpt>
<trkpt lat="35.195858" lon="-84.908989"><ele>220.4</ele><time>2026-08-13T19:36:30Z</time></trkpt>
<trkpt lat="35.195831" lon="-84.908973"><ele>220.7</ele><time>2026-08-13T19:36:32Z</time></trkpt>
<trkpt lat="35.195806" lon="-84.908952"><ele>221.0</ele><time>2026-08-13T19:36:34Z</time></trkpt>
<trkpt lat="35.195786" lon="-84.908919"><ele>221.0</ele><time>2026-08-13T19:36:36Z</time></trkpt>
<trkpt lat="35.195775" lon="-84.90888"><ele>220.7</ele><time>2026-08-13T19:36:38Z</time></trkpt>
<trkpt lat="35.195773" lon="-84.908838"><ele>221.0</ele><time>2026-08-13T19:36:40Z</time></trkpt>
<trkpt lat="35.195776" lon="-84.908796"><ele>220.4</ele><time>2026-08-13T19:36:42Z</time></trkpt>
<trkpt lat="35.195779" lon="-84.908756"><ele>220.4</ele><time>2026-08-13T19:36:44Z</time></trkpt>
<trkpt lat="35.195781" lon="-84.908718"><ele>220.7</ele><time>2026-08-13T19:36:46Z</time></trkpt>
<trkpt lat="35.195787" lon="-84.908679"><ele>220.4</ele><time>2026-08-13T19:36:48Z</time></trkpt>
<trkpt lat="35.195798" lon="-84.90864"><ele>220.4</ele><time>2026-08-13T19:36:50Z</time></trkpt>
<trkpt lat="35.1958" lon="-84.908604"><ele>219.5</ele><time>2026-08-13T19:36:52Z</time></trkpt>
<trkpt lat="35.195798" lon="-84.908554"><ele>220.4</ele><time>2026-08-13T19:36:55Z</time></trkpt>
<trkpt lat="35.195799" lon="-84.90852"><ele>221.0</ele><time>2026-08-13T19:36:57Z</time></trkpt>
<trkpt lat="35.195803" lon="-84.908472"><ele>221.0</ele><time>2026-08-13T19:37:00Z</time></trkpt>
<trkpt lat="35.195804" lon="-84.908437"><ele>221.0</ele><time>2026-08-13T19:37:02Z</time></trkpt>
<trkpt lat="35.195803" lon="-84.908402"><ele>221.6</ele><time>2026-08-13T19:37:04Z</time></trkpt>
<trkpt lat="35.195805" lon="-84.908366"><ele>221.3</ele><time>2026-08-13T19:37:06Z</time></trkpt>
<trkpt lat="35.195803" lon="-84.90833"><ele>221.0</ele><time>2026-08-13T19:37:08Z</time></trkpt>
<trkpt lat="35.195806" lon="-84.908294"><ele>220.7</ele><time>2026-08-13T19:37:10Z</time></trkpt>
<trkpt lat="35.195809" lon="-84.908244"><ele>220.7</ele><time>2026-08-13T19:37:13Z</time></trkpt>
<trkpt lat="35.195817" lon="-84.908209"><ele>220.7</ele><time>2026-08-13T19:37:15Z</time></trkpt>
<trkpt lat="35.195826" lon="-84.908177"><ele>220.1</ele><time>2026-08-13T19:37:17Z</time></trkpt>
<trkpt lat="35.195834" lon="-84.908143"><ele>219.5</ele><time>2026-08-13T19:37:19Z</time></trkpt>
<trkpt lat="35.195841" lon="-84.908106"><ele>218.8</ele><time>2026-08-13T19:37:21Z</time></trkpt>
<trkpt lat="35.195852" lon="-84.908068"><ele>219.2</ele><time>2026-08-13T19:37:23Z</time></trkpt>
<trkpt lat="35.195861" lon="-84.908032"><ele>218.5</ele><time>2026-08-13T19:37:25Z</time></trkpt>
<trkpt lat="35.195865" lon="-84.907994"><ele>218.2</ele><time>2026-08-13T19:37:27Z</time></trkpt>
<trkpt lat="35.195874" lon="-84.907954"><ele>218.8</ele><time>2026-08-13T19:37:29Z</time></trkpt>
<trkpt lat="35.195878" lon="-84.907916"><ele>218.8</ele><time>2026-08-13T19:37:31Z</time></trkpt>
<trkpt lat="35.195885" lon="-84.90788"><ele>218.8</ele><time>2026-08-13T19:37:33Z</time></trkpt>
<trkpt lat="35.195893" lon="-84.90784"><ele>218.8</ele><time>2026-08-13T19:37:35Z</time></trkpt>
<trkpt lat="35.195901" lon="-84.907803"><ele>219.2</ele><time>2026-08-13T19:37:37Z</time></trkpt>
<trkpt lat="35.195908" lon="-84.907769"><ele>218.8</ele><time>2026-08-13T19:37:39Z</time></trkpt>
<trkpt lat="35.195912" lon="-84.907734"><ele>218.5</ele><time>2026-08-13T19:37:41Z</time></trkpt>
<trkpt lat="35.195916" lon="-84.907699"><ele>217.9</ele><time>2026-08-13T19:37:43Z</time></trkpt>
<trkpt lat="35.195925" lon="-84.907653"><ele>218.8</ele><time>2026-08-13T19:37:46Z</time></trkpt>
<trkpt lat="35.195938" lon="-84.907609"><ele>218.5</ele><time>2026-08-13T19:37:49Z</time></trkpt>
<trkpt lat="35.195949" lon="-84.907577"><ele>217.9</ele><time>2026-08-13T19:37:51Z</time></trkpt>
<trkpt lat="35.195958" lon="-84.907543"><ele>218.2</ele><time>2026-08-13T19:37:53Z</time></trkpt>
<trkpt lat="35.195967" lon="-84.907505"><ele>218.2</ele><time>2026-08-13T19:37:55Z</time></trkpt>
<trkpt lat="35.195974" lon="-84.907468"><ele>218.2</ele><time>2026-08-13T19:37:57Z</time></trkpt>
<trkpt lat="35.195979" lon="-84.907434"><ele>218.2</ele><time>2026-08-13T19:37:59Z</time></trkpt>
<trkpt lat="35.195986" lon="-84.907399"><ele>218.8</ele><time>2026-08-13T19:38:01Z</time></trkpt>
<trkpt lat="35.195992" lon="-84.907365"><ele>219.2</ele><time>2026-08-13T19:38:03Z</time></trkpt>
<trkpt lat="35.195998" lon="-84.907328"><ele>219.2</ele><time>2026-08-13T19:38:05Z</time></trkpt>
<trkpt lat="35.196" lon="-84.907289"><ele>219.5</ele><time>2026-08-13T19:38:07Z</time></trkpt>
<trkpt lat="35.196003" lon="-84.90725"><ele>220.4</ele><time>2026-08-13T19:38:09Z</time></trkpt>
<trkpt lat="35.196008" lon="-84.907215"><ele>221.0</ele><time>2026-08-13T19:38:11Z</time></trkpt>
<trkpt lat="35.196008" lon="-84.907179"><ele>221.9</ele><time>2026-08-13T19:38:13Z</time></trkpt>
<trkpt lat="35.196009" lon="-84.907144"><ele>222.8</ele><time>2026-08-13T19:38:15Z</time></trkpt>
<trkpt lat="35.196012" lon="-84.90711"><ele>223.7</ele><time>2026-08-13T19:38:17Z</time></trkpt>
<trkpt lat="35.196014" lon="-84.907076"><ele>223.4</ele><time>2026-08-13T19:38:19Z</time></trkpt>
<trkpt lat="35.196011" lon="-84.907041"><ele>223.1</ele><time>2026-08-13T19:38:21Z</time></trkpt>
<trkpt lat="35.196007" lon="-84.907008"><ele>223.1</ele><time>2026-08-13T19:38:23Z</time></trkpt>
<trkpt lat="35.196003" lon="-84.90697"><ele>221.3</ele><time>2026-08-13T19:38:25Z</time></trkpt>
<trkpt lat="35.196002" lon="-84.906936"><ele>221.3</ele><time>2026-08-13T19:38:27Z</time></trkpt>
<trkpt lat="35.196006" lon="-84.906897"><ele>220.7</ele><time>2026-08-13T19:38:29Z</time></trkpt>
<trkpt lat="35.196004" lon="-84.906862"><ele>220.1</ele><time>2026-08-13T19:38:31Z</time></trkpt>
<trkpt lat="35.195999" lon="-84.906825"><ele>219.8</ele><time>2026-08-13T19:38:33Z</time></trkpt>
<trkpt lat="35.196001" lon="-84.906788"><ele>219.8</ele><time>2026-08-13T19:38:35Z</time></trkpt>
<trkpt lat="35.196002" lon="-84.906753"><ele>220.4</ele><time>2026-08-13T19:38:37Z</time></trkpt>
<trkpt lat="35.196003" lon="-84.906717"><ele>220.4</ele><time>2026-08-13T19:38:39Z</time></trkpt>
<trkpt lat="35.195996" lon="-84.906681"><ele>218.2</ele><time>2026-08-13T19:38:41Z</time></trkpt>
<trkpt lat="35.195997" lon="-84.906645"><ele>218.8</ele><time>2026-08-13T19:38:43Z</time></trkpt>
<trkpt lat="35.195994" lon="-84.906607"><ele>218.8</ele><time>2026-08-13T19:38:45Z</time></trkpt>
<trkpt lat="35.195993" lon="-84.906571"><ele>219.2</ele><time>2026-08-13T19:38:47Z</time></trkpt>
<trkpt lat="35.195989" lon="-84.906535"><ele>218.2</ele><time>2026-08-13T19:38:49Z</time></trkpt>
<trkpt lat="35.195988" lon="-84.906489"><ele>220.1</ele><time>2026-08-13T19:38:52Z</time></trkpt>
<trkpt lat="35.195987" lon="-84.906455"><ele>220.7</ele><time>2026-08-13T19:38:54Z</time></trkpt>
<trkpt lat="35.195984" lon="-84.906419"><ele>220.7</ele><time>2026-08-13T19:38:56Z</time></trkpt>
<trkpt lat="35.195986" lon="-84.906385"><ele>220.7</ele><time>2026-08-13T19:38:58Z</time></trkpt>
<trkpt lat="35.195986" lon="-84.906338"><ele>221.0</ele><time>2026-08-13T19:39:01Z</time></trkpt>
<trkpt lat="35.195986" lon="-84.906304"><ele>220.1</ele><time>2026-08-13T19:39:03Z</time></trkpt>
<trkpt lat="35.195986" lon="-84.906268"><ele>219.2</ele><time>2026-08-13T19:39:05Z</time></trkpt>
<trkpt lat="35.195986" lon="-84.906232"><ele>218.5</ele><time>2026-08-13T19:39:07Z</time></trkpt>
<trkpt lat="35.19599" lon="-84.906196"><ele>217.9</ele><time>2026-08-13T19:39:09Z</time></trkpt>
<trkpt lat="35.19599" lon="-84.90616"><ele>218.2</ele><time>2026-08-13T19:39:11Z</time></trkpt>
<trkpt lat="35.195987" lon="-84.906124"><ele>218.2</ele><time>2026-08-13T19:39:13Z</time></trkpt>
<trkpt lat="35.195981" lon="-84.90609"><ele>217.9</ele><time>2026-08-13T19:39:15Z</time></trkpt>
<trkpt lat="35.195975" lon="-84.906055"><ele>217.6</ele><time>2026-08-13T19:39:17Z</time></trkpt>
<trkpt lat="35.195974" lon="-84.906021"><ele>217.0</ele><time>2026-08-13T19:39:19Z</time></trkpt>
<trkpt lat="35.195967" lon="-84.905987"><ele>216.7</ele><time>2026-08-13T19:39:21Z</time></trkpt>
<trkpt lat="35.195962" lon="-84.905937"><ele>216.7</ele><time>2026-08-13T19:39:24Z</time></trkpt>
<trkpt lat="35.195959" lon="-84.905901"><ele>217.3</ele><time>2026-08-13T19:39:26Z</time></trkpt>
<trkpt lat="35.195959" lon="-84.905851"><ele>218.5</ele><time>2026-08-13T19:39:29Z</time></trkpt>
<trkpt lat="35.195961" lon="-84.905817"><ele>219.2</ele><time>2026-08-13T19:39:31Z</time></trkpt>
<trkpt lat="35.19596" lon="-84.905783"><ele>219.5</ele><time>2026-08-13T19:39:33Z</time></trkpt>
<trkpt lat="35.195955" lon="-84.905748"><ele>219.8</ele><time>2026-08-13T19:39:35Z</time></trkpt>
<trkpt lat="35.195953" lon="-84.905714"><ele>219.5</ele><time>2026-08-13T19:39:37Z</time></trkpt>
<trkpt lat="35.195953" lon="-84.905679"><ele>219.8</ele><time>2026-08-13T19:39:39Z</time></trkpt>
<trkpt lat="35.195951" lon="-84.905641"><ele>219.8</ele><time>2026-08-13T19:39:41Z</time></trkpt>
<trkpt lat="35.195947" lon="-84.905604"><ele>219.8</ele><time>2026-08-13T19:39:43Z</time></trkpt>
<trkpt lat="35.195942" lon="-84.905567"><ele>219.8</ele><time>2026-08-13T19:39:45Z</time></trkpt>
<trkpt lat="35.195936" lon="-84.905528"><ele>220.1</ele><time>2026-08-13T19:39:47Z</time></trkpt>
<trkpt lat="35.195933" lon="-84.905491"><ele>220.1</ele><time>2026-08-13T19:39:49Z</time></trkpt>
<trkpt lat="35.195927" lon="-84.905454"><ele>220.4</ele><time>2026-08-13T19:39:51Z</time></trkpt>
<trkpt lat="35.195921" lon="-84.905419"><ele>220.1</ele><time>2026-08-13T19:39:53Z</time></trkpt>
<trkpt lat="35.195915" lon="-84.905371"><ele>221.3</ele><time>2026-08-13T19:39:56Z</time></trkpt>
<trkpt lat="35.195905" lon="-84.905319"><ele>221.3</ele><time>2026-08-13T19:39:59Z</time></trkpt>
<trkpt lat="35.1959" lon="-84.905283"><ele>221.0</ele><time>2026-08-13T19:40:01Z</time></trkpt>
<trkpt lat="35.195893" lon="-84.905247"><ele>220.7</ele><time>2026-08-13T19:40:03Z</time></trkpt>
<trkpt lat="35.195887" lon="-84.905212"><ele>220.4</ele><time>2026-08-13T19:40:05Z</time></trkpt>
<trkpt lat="35.19588" lon="-84.905178"><ele>220.4</ele><time>2026-08-13T19:40:07Z</time></trkpt>
<trkpt lat="35.195876" lon="-84.905143"><ele>220.4</ele><time>2026-08-13T19:40:09Z</time></trkpt>
<trkpt lat="35.195871" lon="-84.905096"><ele>220.4</ele><time>2026-08-13T19:40:12Z</time></trkpt>
<trkpt lat="35.195865" lon="-84.905063"><ele>219.2</ele><time>2026-08-13T19:40:14Z</time></trkpt>
<trkpt lat="35.195863" lon="-84.905029"><ele>219.8</ele><time>2026-08-13T19:40:16Z</time></trkpt>
<trkpt lat="35.195857" lon="-84.904995"><ele>219.8</ele><time>2026-08-13T19:40:18Z</time></trkpt>
<trkpt lat="35.19585" lon="-84.904962"><ele>220.4</ele><time>2026-08-13T19:40:20Z</time></trkpt>
<trkpt lat="35.19585" lon="-84.904926"><ele>220.4</ele><time>2026-08-13T19:40:22Z</time></trkpt>
<trkpt lat="35.195846" lon="-84.90489"><ele>220.7</ele><time>2026-08-13T19:40:24Z</time></trkpt>
<trkpt lat="35.195842" lon="-84.904851"><ele>219.8</ele><time>2026-08-13T19:40:26Z</time></trkpt>
<trkpt lat="35.19584" lon="-84.904814"><ele>219.8</ele><time>2026-08-13T19:40:28Z</time></trkpt>
<trkpt lat="35.195833" lon="-84.904764"><ele>219.8</ele><time>2026-08-13T19:40:31Z</time></trkpt>
<trkpt lat="35.195825" lon="-84.904717"><ele>220.4</ele><time>2026-08-13T19:40:34Z</time></trkpt>
<trkpt lat="35.195819" lon="-84.904683"><ele>221.0</ele><time>2026-08-13T19:40:36Z</time></trkpt>
<trkpt lat="35.195814" lon="-84.904633"><ele>221.3</ele><time>2026-08-13T19:40:39Z</time></trkpt>
<trkpt lat="35.195813" lon="-84.904597"><ele>221.3</ele><time>2026-08-13T19:40:41Z</time></trkpt>
<trkpt lat="35.195809" lon="-84.904563"><ele>221.0</ele><time>2026-08-13T19:40:43Z</time></trkpt>
<trkpt lat="35.195806" lon="-84.904529"><ele>220.1</ele><time>2026-08-13T19:40:45Z</time></trkpt>
<trkpt lat="35.195801" lon="-84.904496"><ele>220.7</ele><time>2026-08-13T19:40:47Z</time></trkpt>
<trkpt lat="35.195799" lon="-84.90446"><ele>220.4</ele><time>2026-08-13T19:40:49Z</time></trkpt>
<trkpt lat="35.195794" lon="-84.904423"><ele>220.1</ele><time>2026-08-13T19:40:51Z</time></trkpt>
<trkpt lat="35.1958" lon="-84.904387"><ele>221.0</ele><time>2026-08-13T19:40:53Z</time></trkpt>
<trkpt lat="35.1958" lon="-84.904352"><ele>221.0</ele><time>2026-08-13T19:40:55Z</time></trkpt>
<trkpt lat="35.195803" lon="-84.904314"><ele>221.0</ele><time>2026-08-13T19:40:57Z</time></trkpt>
<trkpt lat="35.195804" lon="-84.904276"><ele>220.7</ele><time>2026-08-13T19:40:59Z</time></trkpt>
<trkpt lat="35.195807" lon="-84.904239"><ele>221.3</ele><time>2026-08-13T19:41:01Z</time></trkpt>
<trkpt lat="35.19581" lon="-84.904204"><ele>221.0</ele><time>2026-08-13T19:41:03Z</time></trkpt>
<trkpt lat="35.195807" lon="-84.904158"><ele>222.2</ele><time>2026-08-13T19:41:06Z</time></trkpt>
<trkpt lat="35.195811" lon="-84.904112"><ele>221.6</ele><time>2026-08-13T19:41:09Z</time></trkpt>
<trkpt lat="35.195813" lon="-84.904078"><ele>221.6</ele><time>2026-08-13T19:41:11Z</time></trkpt>
<trkpt lat="35.195811" lon="-84.904041"><ele>222.2</ele><time>2026-08-13T19:41:13Z</time></trkpt>
<trkpt lat="35.195809" lon="-84.904007"><ele>222.5</ele><time>2026-08-13T19:41:15Z</time></trkpt>
<trkpt lat="35.195808" lon="-84.903973"><ele>222.8</ele><time>2026-08-13T19:41:17Z</time></trkpt>
<trkpt lat="35.195808" lon="-84.903924"><ele>224.9</ele><time>2026-08-13T19:41:20Z</time></trkpt>
<trkpt lat="35.195815" lon="-84.903887"><ele>225.2</ele><time>2026-08-13T19:41:22Z</time></trkpt>
<trkpt lat="35.195815" lon="-84.903852"><ele>223.1</ele><time>2026-08-13T19:41:24Z</time></trkpt>
<trkpt lat="35.195816" lon="-84.903817"><ele>221.9</ele><time>2026-08-13T19:41:26Z</time></trkpt>
<trkpt lat="35.195815" lon="-84.903783"><ele>219.5</ele><time>2026-08-13T19:41:28Z</time></trkpt>
<trkpt lat="35.195822" lon="-84.903733"><ele>218.8</ele><time>2026-08-13T19:41:31Z</time></trkpt>
<trkpt lat="35.195828" lon="-84.903695"><ele>218.5</ele><time>2026-08-13T19:41:33Z</time></trkpt>
<trkpt lat="35.195832" lon="-84.903661"><ele>218.2</ele><time>2026-08-13T19:41:35Z</time></trkpt>
<trkpt lat="35.195835" lon="-84.903613"><ele>219.5</ele><time>2026-08-13T19:41:38Z</time></trkpt>
<trkpt lat="35.195838" lon="-84.903576"><ele>219.2</ele><time>2026-08-13T19:41:40Z</time></trkpt>
<trkpt lat="35.195843" lon="-84.903543"><ele>220.1</ele><time>2026-08-13T19:41:42Z</time></trkpt>
<trkpt lat="35.195847" lon="-84.903492"><ele>222.2</ele><time>2026-08-13T19:41:45Z</time></trkpt>
<trkpt lat="35.195854" lon="-84.903457"><ele>222.2</ele><time>2026-08-13T19:41:47Z</time></trkpt>
<trkpt lat="35.195864" lon="-84.903419"><ele>221.3</ele><time>2026-08-13T19:41:49Z</time></trkpt>
<trkpt lat="35.195865" lon="-84.903384"><ele>221.6</ele><time>2026-08-13T19:41:51Z</time></trkpt>
<trkpt lat="35.195869" lon="-84.90335"><ele>222.8</ele><time>2026-08-13T19:41:53Z</time></trkpt>
<trkpt lat="35.195878" lon="-84.903316"><ele>221.9</ele><time>2026-08-13T19:41:55Z</time></trkpt>
<trkpt lat="35.195886" lon="-84.903282"><ele>221.9</ele><time>2026-08-13T19:41:57Z</time></trkpt>
<trkpt lat="35.195891" lon="-84.903246"><ele>221.6</ele><time>2026-08-13T19:41:59Z</time></trkpt>
<trkpt lat="35.195894" lon="-84.903211"><ele>222.2</ele><time>2026-08-13T19:42:01Z</time></trkpt>
<trkpt lat="35.195906" lon="-84.903178"><ele>222.2</ele><time>2026-08-13T19:42:03Z</time></trkpt>
<trkpt lat="35.195904" lon="-84.903141"><ele>222.2</ele><time>2026-08-13T19:42:05Z</time></trkpt>
<trkpt lat="35.195907" lon="-84.903106"><ele>221.6</ele><time>2026-08-13T19:42:07Z</time></trkpt>
<trkpt lat="35.195915" lon="-84.903072"><ele>221.9</ele><time>2026-08-13T19:42:09Z</time></trkpt>
<trkpt lat="35.195923" lon="-84.903035"><ele>222.5</ele><time>2026-08-13T19:42:11Z</time></trkpt>
<trkpt lat="35.195929" lon="-84.903001"><ele>223.4</ele><time>2026-08-13T19:42:13Z</time></trkpt>
<trkpt lat="35.195934" lon="-84.902965"><ele>223.1</ele><time>2026-08-13T19:42:15Z</time></trkpt>
<trkpt lat="35.195936" lon="-84.902926"><ele>222.8</ele><time>2026-08-13T19:42:17Z</time></trkpt>
<trkpt lat="35.19594" lon="-84.902888"><ele>222.5</ele><time>2026-08-13T19:42:19Z</time></trkpt>
<trkpt lat="35.195945" lon="-84.902851"><ele>223.7</ele><time>2026-08-13T19:42:21Z</time></trkpt>
<trkpt lat="35.195953" lon="-84.902815"><ele>223.7</ele><time>2026-08-13T19:42:23Z</time></trkpt>
<trkpt lat="35.19596" lon="-84.902778"><ele>223.4</ele><time>2026-08-13T19:42:25Z</time></trkpt>
<trkpt lat="35.195969" lon="-84.902742"><ele>223.7</ele><time>2026-08-13T19:42:27Z</time></trkpt>
<trkpt lat="35.195975" lon="-84.902708"><ele>224.3</ele><time>2026-08-13T19:42:29Z</time></trkpt>
<trkpt lat="35.195979" lon="-84.902674"><ele>224.6</ele><time>2026-08-13T19:42:31Z</time></trkpt>
<trkpt lat="35.195984" lon="-84.90264"><ele>224.9</ele><time>2026-08-13T19:42:33Z</time></trkpt>
<trkpt lat="35.195993" lon="-84.902591"><ele>225.6</ele><time>2026-08-13T19:42:36Z</time></trkpt>
<trkpt lat="35.195998" lon="-84.902556"><ele>225.2</ele><time>2026-08-13T19:42:38Z</time></trkpt>
<trkpt lat="35.196007" lon="-84.902519"><ele>224.3</ele><time>2026-08-13T19:42:40Z</time></trkpt>
<trkpt lat="35.196013" lon="-84.902485"><ele>224.0</ele><time>2026-08-13T19:42:42Z</time></trkpt>
<trkpt lat="35.196028" lon="-84.902454"><ele>224.3</ele><time>2026-08-13T19:42:44Z</time></trkpt>
<trkpt lat="35.196045" lon="-84.902426"><ele>224.3</ele><time>2026-08-13T19:42:46Z</time></trkpt>
<trkpt lat="35.196053" lon="-84.902393"><ele>223.1</ele><time>2026-08-13T19:42:48Z</time></trkpt>
<trkpt lat="35.196057" lon="-84.902358"><ele>223.7</ele><time>2026-08-13T19:42:50Z</time></trkpt>
<trkpt lat="35.196064" lon="-84.902325"><ele>223.4</ele><time>2026-08-13T19:42:52Z</time></trkpt>
<trkpt lat="35.196067" lon="-84.902291"><ele>224.0</ele><time>2026-08-13T19:42:54Z</time></trkpt>
<trkpt lat="35.196067" lon="-84.902242"><ele>223.7</ele><time>2026-08-13T19:42:57Z</time></trkpt>
<trkpt lat="35.196051" lon="-84.902196"><ele>222.5</ele><time>2026-08-13T19:43:00Z</time></trkpt>
<trkpt lat="35.196059" lon="-84.90215"><ele>223.4</ele><time>2026-08-13T19:43:03Z</time></trkpt>
<trkpt lat="35.196065" lon="-84.902115"><ele>221.9</ele><time>2026-08-13T19:43:05Z</time></trkpt>
<trkpt lat="35.196073" lon="-84.902082"><ele>222.2</ele><time>2026-08-13T19:43:07Z</time></trkpt>
<trkpt lat="35.196083" lon="-84.902047"><ele>221.6</ele><time>2026-08-13T19:43:09Z</time></trkpt>
<trkpt lat="35.196094" lon="-84.902001"><ele>221.6</ele><time>2026-08-13T19:43:12Z</time></trkpt>
<trkpt lat="35.196101" lon="-84.901952"><ele>221.9</ele><time>2026-08-13T19:43:15Z</time></trkpt>
<trkpt lat="35.196112" lon="-84.901904"><ele>223.1</ele><time>2026-08-13T19:43:18Z</time></trkpt>
<trkpt lat="35.196121" lon="-84.90187"><ele>223.4</ele><time>2026-08-13T19:43:20Z</time></trkpt>
<trkpt lat="35.196127" lon="-84.901835"><ele>223.1</ele><time>2026-08-13T19:43:22Z</time></trkpt>
<trkpt lat="35.196135" lon="-84.901801"><ele>223.7</ele><time>2026-08-13T19:43:24Z</time></trkpt>
<trkpt lat="35.196144" lon="-84.901769"><ele>223.7</ele><time>2026-08-13T19:43:26Z</time></trkpt>
<trkpt lat="35.196151" lon="-84.90172"><ele>223.7</ele><time>2026-08-13T19:43:29Z</time></trkpt>
<trkpt lat="35.19616" lon="-84.901682"><ele>224.3</ele><time>2026-08-13T19:43:31Z</time></trkpt>
<trkpt lat="35.196169" lon="-84.901646"><ele>224.6</ele><time>2026-08-13T19:43:33Z</time></trkpt>
<trkpt lat="35.196184" lon="-84.901611"><ele>224.0</ele><time>2026-08-13T19:43:35Z</time></trkpt>
<trkpt lat="35.196195" lon="-84.901579"><ele>223.7</ele><time>2026-08-13T19:43:37Z</time></trkpt>
<trkpt lat="35.196208" lon="-84.901543"><ele>223.1</ele><time>2026-08-13T19:43:39Z</time></trkpt>
<trkpt lat="35.19622" lon="-84.90151"><ele>223.4</ele><time>2026-08-13T19:43:41Z</time></trkpt>
<trkpt lat="35.196231" lon="-84.901476"><ele>223.7</ele><time>2026-08-13T19:43:43Z</time></trkpt>
<trkpt lat="35.196235" lon="-84.901439"><ele>222.8</ele><time>2026-08-13T19:43:45Z</time></trkpt>
<trkpt lat="35.196244" lon="-84.901404"><ele>222.5</ele><time>2026-08-13T19:43:47Z</time></trkpt>
<trkpt lat="35.196257" lon="-84.90137"><ele>222.2</ele><time>2026-08-13T19:43:49Z</time></trkpt>
<trkpt lat="35.19627" lon="-84.901338"><ele>221.6</ele><time>2026-08-13T19:43:51Z</time></trkpt>
<trkpt lat="35.196285" lon="-84.901304"><ele>221.9</ele><time>2026-08-13T19:43:53Z</time></trkpt>
<trkpt lat="35.196296" lon="-84.90127"><ele>222.2</ele><time>2026-08-13T19:43:55Z</time></trkpt>
<trkpt lat="35.196307" lon="-84.901236"><ele>220.4</ele><time>2026-08-13T19:43:57Z</time></trkpt>
<trkpt lat="35.19633" lon="-84.901193"><ele>219.5</ele><time>2026-08-13T19:44:00Z</time></trkpt>
<trkpt lat="35.196347" lon="-84.901164"><ele>218.5</ele><time>2026-08-13T19:44:02Z</time></trkpt>
<trkpt lat="35.196365" lon="-84.901135"><ele>218.2</ele><time>2026-08-13T19:44:04Z</time></trkpt>
<trkpt lat="35.19638" lon="-84.901106"><ele>218.5</ele><time>2026-08-13T19:44:06Z</time></trkpt>
<trkpt lat="35.196397" lon="-84.901073"><ele>217.9</ele><time>2026-08-13T19:44:08Z</time></trkpt>
<trkpt lat="35.196417" lon="-84.901045"><ele>218.2</ele><time>2026-08-13T19:44:10Z</time></trkpt>
<trkpt lat="35.196434" lon="-84.901013"><ele>217.6</ele><time>2026-08-13T19:44:12Z</time></trkpt>
<trkpt lat="35.196453" lon="-84.900981"><ele>217.3</ele><time>2026-08-13T19:44:14Z</time></trkpt>
<trkpt lat="35.196473" lon="-84.900953"><ele>217.3</ele><time>2026-08-13T19:44:16Z</time></trkpt>
<trkpt lat="35.196491" lon="-84.900922"><ele>216.7</ele><time>2026-08-13T19:44:18Z</time></trkpt>
<trkpt lat="35.19651" lon="-84.900895"><ele>216.7</ele><time>2026-08-13T19:44:20Z</time></trkpt>
<trkpt lat="35.196533" lon="-84.900867"><ele>217.0</ele><time>2026-08-13T19:44:22Z</time></trkpt>
<trkpt lat="35.196558" lon="-84.900843"><ele>216.7</ele><time>2026-08-13T19:44:24Z</time></trkpt>
<trkpt lat="35.196582" lon="-84.900823"><ele>215.8</ele><time>2026-08-13T19:44:26Z</time></trkpt>
<trkpt lat="35.196609" lon="-84.900811"><ele>215.5</ele><time>2026-08-13T19:44:28Z</time></trkpt>
<trkpt lat="35.196635" lon="-84.900799"><ele>215.8</ele><time>2026-08-13T19:44:30Z</time></trkpt>
<trkpt lat="35.196663" lon="-84.900782"><ele>217.0</ele><time>2026-08-13T19:44:32Z</time></trkpt>
<trkpt lat="35.196689" lon="-84.900764"><ele>217.0</ele><time>2026-08-13T19:44:34Z</time></trkpt>
<trkpt lat="35.196715" lon="-84.900743"><ele>217.9</ele><time>2026-08-13T19:44:36Z</time></trkpt>
<trkpt lat="35.196741" lon="-84.900722"><ele>217.9</ele><time>2026-08-13T19:44:38Z</time></trkpt>
<trkpt lat="35.196766" lon="-84.900703"><ele>218.2</ele><time>2026-08-13T19:44:40Z</time></trkpt>
<trkpt lat="35.196789" lon="-84.900682"><ele>218.5</ele><time>2026-08-13T19:44:42Z</time></trkpt>
<trkpt lat="35.196814" lon="-84.900662"><ele>218.5</ele><time>2026-08-13T19:44:44Z</time></trkpt>
<trkpt lat="35.196846" lon="-84.900632"><ele>217.9</ele><time>2026-08-13T19:44:47Z</time></trkpt>
<trkpt lat="35.196869" lon="-84.900612"><ele>217.6</ele><time>2026-08-13T19:44:49Z</time></trkpt>
<trkpt lat="35.196892" lon="-84.90059"><ele>217.3</ele><time>2026-08-13T19:44:51Z</time></trkpt>
<trkpt lat="35.196915" lon="-84.900569"><ele>217.3</ele><time>2026-08-13T19:44:53Z</time></trkpt>
<trkpt lat="35.196939" lon="-84.900549"><ele>217.6</ele><time>2026-08-13T19:44:55Z</time></trkpt>
<trkpt lat="35.196961" lon="-84.900527"><ele>217.6</ele><time>2026-08-13T19:44:57Z</time></trkpt>
<trkpt lat="35.196983" lon="-84.900504"><ele>217.9</ele><time>2026-08-13T19:44:59Z</time></trkpt>
<trkpt lat="35.197003" lon="-84.900478"><ele>218.2</ele><time>2026-08-13T19:45:01Z</time></trkpt>
<trkpt lat="35.197021" lon="-84.900449"><ele>218.2</ele><time>2026-08-13T19:45:03Z</time></trkpt>
<trkpt lat="35.197039" lon="-84.900421"><ele>218.2</ele><time>2026-08-13T19:45:05Z</time></trkpt>
<trkpt lat="35.197066" lon="-84.900386"><ele>215.8</ele><time>2026-08-13T19:45:08Z</time></trkpt>
<trkpt lat="35.19709" lon="-84.900368"><ele>215.8</ele><time>2026-08-13T19:45:10Z</time></trkpt>
<trkpt lat="35.197113" lon="-84.900345"><ele>215.8</ele><time>2026-08-13T19:45:12Z</time></trkpt>
<trkpt lat="35.197136" lon="-84.900321"><ele>216.1</ele><time>2026-08-13T19:45:14Z</time></trkpt>
<trkpt lat="35.197163" lon="-84.900301"><ele>215.8</ele><time>2026-08-13T19:45:16Z</time></trkpt>
<trkpt lat="35.197192" lon="-84.900286"><ele>216.4</ele><time>2026-08-13T19:45:18Z</time></trkpt>
<trkpt lat="35.197218" lon="-84.90027"><ele>216.1</ele><time>2026-08-13T19:45:20Z</time></trkpt>
<trkpt lat="35.197244" lon="-84.900252"><ele>216.4</ele><time>2026-08-13T19:45:22Z</time></trkpt>
<trkpt lat="35.197268" lon="-84.900233"><ele>216.4</ele><time>2026-08-13T19:45:24Z</time></trkpt>
<trkpt lat="35.197296" lon="-84.900219"><ele>216.1</ele><time>2026-08-13T19:45:26Z</time></trkpt>
<trkpt lat="35.197321" lon="-84.900202"><ele>215.5</ele><time>2026-08-13T19:45:28Z</time></trkpt>
<trkpt lat="35.19734" lon="-84.900175"><ele>216.4</ele><time>2026-08-13T19:45:30Z</time></trkpt>
<trkpt lat="35.197358" lon="-84.900149"><ele>215.5</ele><time>2026-08-13T19:45:32Z</time></trkpt>
<trkpt lat="35.197379" lon="-84.900124"><ele>215.2</ele><time>2026-08-13T19:45:34Z</time></trkpt>
<trkpt lat="35.197398" lon="-84.900099"><ele>214.9</ele><time>2026-08-13T19:45:36Z</time></trkpt>
<trkpt lat="35.197418" lon="-84.900077"><ele>214.9</ele><time>2026-08-13T19:45:38Z</time></trkpt>
<trkpt lat="35.197448" lon="-84.900045"><ele>214.0</ele><time>2026-08-13T19:45:41Z</time></trkpt>
<trkpt lat="35.197474" lon="-84.900007"><ele>213.7</ele><time>2026-08-13T19:45:44Z</time></trkpt>
<trkpt lat="35.197493" lon="-84.899983"><ele>213.4</ele><time>2026-08-13T19:45:46Z</time></trkpt>
<trkpt lat="35.197526" lon="-84.899955"><ele>214.0</ele><time>2026-08-13T19:45:49Z</time></trkpt>
<trkpt lat="35.19755" lon="-84.899933"><ele>214.3</ele><time>2026-08-13T19:45:51Z</time></trkpt>
<trkpt lat="35.197574" lon="-84.899911"><ele>213.7</ele><time>2026-08-13T19:45:53Z</time></trkpt>
<trkpt lat="35.197598" lon="-84.89989"><ele>213.4</ele><time>2026-08-13T19:45:55Z</time></trkpt>
<trkpt lat="35.197624" lon="-84.899871"><ele>213.7</ele><time>2026-08-13T19:45:57Z</time></trkpt>
<trkpt lat="35.19765" lon="-84.899852"><ele>213.7</ele><time>2026-08-13T19:45:59Z</time></trkpt>
<trkpt lat="35.197678" lon="-84.899833"><ele>214.0</ele><time>2026-08-13T19:46:01Z</time></trkpt>
<trkpt lat="35.197704" lon="-84.899815"><ele>214.0</ele><time>2026-08-13T19:46:03Z</time></trkpt>
<trkpt lat="35.19773" lon="-84.899794"><ele>214.0</ele><time>2026-08-13T19:46:05Z</time></trkpt>
<trkpt lat="35.197755" lon="-84.899769"><ele>213.7</ele><time>2026-08-13T19:46:07Z</time></trkpt>
<trkpt lat="35.197779" lon="-84.899747"><ele>214.0</ele><time>2026-08-13T19:46:09Z</time></trkpt>
<trkpt lat="35.197804" lon="-84.899729"><ele>214.0</ele><time>2026-08-13T19:46:11Z</time></trkpt>
<trkpt lat="35.19783" lon="-84.899708"><ele>214.9</ele><time>2026-08-13T19:46:13Z</time></trkpt>
<trkpt lat="35.197854" lon="-84.899686"><ele>214.9</ele><time>2026-08-13T19:46:15Z</time></trkpt>
<trkpt lat="35.197881" lon="-84.899666"><ele>215.5</ele><time>2026-08-13T19:46:17Z</time></trkpt>
<trkpt lat="35.197907" lon="-84.899645"><ele>215.2</ele><time>2026-08-13T19:46:19Z</time></trkpt>
<trkpt lat="35.197932" lon="-84.899624"><ele>215.5</ele><time>2026-08-13T19:46:21Z</time></trkpt>
<trkpt lat="35.197954" lon="-84.899598"><ele>215.5</ele><time>2026-08-13T19:46:23Z</time></trkpt>
<trkpt lat="35.197977" lon="-84.899572"><ele>215.2</ele><time>2026-08-13T19:46:25Z</time></trkpt>
<trkpt lat="35.197997" lon="-84.899548"><ele>214.9</ele><time>2026-08-13T19:46:27Z</time></trkpt>
<trkpt lat="35.198025" lon="-84.89951"><ele>214.9</ele><time>2026-08-13T19:46:30Z</time></trkpt>
<trkpt lat="35.198051" lon="-84.899494"><ele>214.9</ele><time>2026-08-13T19:46:32Z</time></trkpt>
<trkpt lat="35.198075" lon="-84.899524"><ele>214.6</ele><time>2026-08-13T19:46:35Z</time></trkpt>
<trkpt lat="35.198088" lon="-84.899569"><ele>214.6</ele><time>2026-08-13T19:46:38Z</time></trkpt>
<trkpt lat="35.198104" lon="-84.899612"><ele>214.6</ele><time>2026-08-13T19:46:41Z</time></trkpt>
<trkpt lat="35.198118" lon="-84.899657"><ele>214.3</ele><time>2026-08-13T19:46:44Z</time></trkpt>
<trkpt lat="35.198133" lon="-84.899702"><ele>214.0</ele><time>2026-08-13T19:46:47Z</time></trkpt>
<trkpt lat="35.198147" lon="-84.899747"><ele>213.7</ele><time>2026-08-13T19:46:50Z</time></trkpt>
<trkpt lat="35.198166" lon="-84.899791"><ele>213.4</ele><time>2026-08-13T19:46:53Z</time></trkpt>
<trkpt lat="35.198181" lon="-84.899836"><ele>213.4</ele><time>2026-08-13T19:46:56Z</time></trkpt>
<trkpt lat="35.198197" lon="-84.899882"><ele>213.4</ele><time>2026-08-13T19:46:59Z</time></trkpt>
<trkpt lat="35.19821" lon="-84.89993"><ele>213.4</ele><time>2026-08-13T19:47:02Z</time></trkpt>
<trkpt lat="35.198231" lon="-84.89997"><ele>213.4</ele><time>2026-08-13T19:47:05Z</time></trkpt>
<trkpt lat="35.198257" lon="-84.900006"><ele>213.7</ele><time>2026-08-13T19:47:08Z</time></trkpt>
<trkpt lat="35.198277" lon="-84.90003"><ele>213.7</ele><time>2026-08-13T19:47:10Z</time></trkpt>
<trkpt lat="35.198299" lon="-84.900052"><ele>213.7</ele><time>2026-08-13T19:47:12Z</time></trkpt>
<trkpt lat="35.198273" lon="-84.900018"><ele>214.6</ele><time>2026-08-13T19:47:20Z</time></trkpt>
<trkpt lat="35.198252" lon="-84.899975"><ele>214.9</ele><time>2026-08-13T19:47:23Z</time></trkpt>
<trkpt lat="35.198232" lon="-84.899934"><ele>214.3</ele><time>2026-08-13T19:47:26Z</time></trkpt>
<trkpt lat="35.198222" lon="-84.899902"><ele>214.6</ele><time>2026-08-13T19:47:28Z</time></trkpt>
<trkpt lat="35.198211" lon="-84.899871"><ele>214.3</ele><time>2026-08-13T19:47:30Z</time></trkpt>
<trkpt lat="35.198199" lon="-84.89984"><ele>214.3</ele><time>2026-08-13T19:47:32Z</time></trkpt>
<trkpt lat="35.198183" lon="-84.899795"><ele>214.6</ele><time>2026-08-13T19:47:35Z</time></trkpt>
<trkpt lat="35.198167" lon="-84.899749"><ele>214.9</ele><time>2026-08-13T19:47:38Z</time></trkpt>
<trkpt lat="35.198149" lon="-84.899705"><ele>214.9</ele><time>2026-08-13T19:47:41Z</time></trkpt>
<trkpt lat="35.198133" lon="-84.89966"><ele>214.6</ele><time>2026-08-13T19:47:44Z</time></trkpt>
<trkpt lat="35.19812" lon="-84.899631"><ele>214.6</ele><time>2026-08-13T19:47:46Z</time></trkpt>
<trkpt lat="35.198106" lon="-84.899601"><ele>214.6</ele><time>2026-08-13T19:47:48Z</time></trkpt>
<trkpt lat="35.198094" lon="-84.899571"><ele>214.9</ele><time>2026-08-13T19:47:50Z</time></trkpt>
<trkpt lat="35.198083" lon="-84.89954"><ele>215.5</ele><time>2026-08-13T19:47:52Z</time></trkpt>
<trkpt lat="35.198068" lon="-84.89951"><ele>216.1</ele><time>2026-08-13T19:47:54Z</time></trkpt>
<trkpt lat="35.198037" lon="-84.89949"><ele>216.1</ele><time>2026-08-13T19:47:57Z</time></trkpt>
<trkpt lat="35.198015" lon="-84.899514"><ele>216.1</ele><time>2026-08-13T19:47:59Z</time></trkpt>
<trkpt lat="35.197995" lon="-84.899541"><ele>215.8</ele><time>2026-08-13T19:48:01Z</time></trkpt>
<trkpt lat="35.197968" lon="-84.899577"><ele>216.1</ele><time>2026-08-13T19:48:04Z</time></trkpt>
<trkpt lat="35.197935" lon="-84.899606"><ele>215.8</ele><time>2026-08-13T19:48:07Z</time></trkpt>
<trkpt lat="35.197903" lon="-84.899634"><ele>215.8</ele><time>2026-08-13T19:48:10Z</time></trkpt>
<trkpt lat="35.19787" lon="-84.89966"><ele>215.8</ele><time>2026-08-13T19:48:13Z</time></trkpt>
<trkpt lat="35.197846" lon="-84.899677"><ele>216.1</ele><time>2026-08-13T19:48:15Z</time></trkpt>
<trkpt lat="35.197815" lon="-84.899707"><ele>216.7</ele><time>2026-08-13T19:48:18Z</time></trkpt>
<trkpt lat="35.197784" lon="-84.899737"><ele>216.7</ele><time>2026-08-13T19:48:21Z</time></trkpt>
<trkpt lat="35.197751" lon="-84.899765"><ele>217.0</ele><time>2026-08-13T19:48:24Z</time></trkpt>
<trkpt lat="35.197727" lon="-84.899785"><ele>217.3</ele><time>2026-08-13T19:48:26Z</time></trkpt>
<trkpt lat="35.197703" lon="-84.899804"><ele>217.3</ele><time>2026-08-13T19:48:28Z</time></trkpt>
<trkpt lat="35.19768" lon="-84.899823"><ele>216.7</ele><time>2026-08-13T19:48:30Z</time></trkpt>
<trkpt lat="35.197647" lon="-84.899848"><ele>217.0</ele><time>2026-08-13T19:48:33Z</time></trkpt>
<trkpt lat="35.197612" lon="-84.899876"><ele>216.4</ele><time>2026-08-13T19:48:36Z</time></trkpt>
<trkpt lat="35.197588" lon="-84.899895"><ele>216.7</ele><time>2026-08-13T19:48:38Z</time></trkpt>
<trkpt lat="35.197563" lon="-84.899912"><ele>216.7</ele><time>2026-08-13T19:48:40Z</time></trkpt>
<trkpt lat="35.197539" lon="-84.899934"><ele>216.4</ele><time>2026-08-13T19:48:42Z</time></trkpt>
<trkpt lat="35.197506" lon="-84.899962"><ele>215.5</ele><time>2026-08-13T19:48:45Z</time></trkpt>
<trkpt lat="35.197474" lon="-84.899994"><ele>215.5</ele><time>2026-08-13T19:48:48Z</time></trkpt>
<trkpt lat="35.197455" lon="-84.900022"><ele>215.5</ele><time>2026-08-13T19:48:50Z</time></trkpt>
<trkpt lat="35.197436" lon="-84.90005"><ele>215.5</ele><time>2026-08-13T19:48:52Z</time></trkpt>
<trkpt lat="35.197408" lon="-84.900086"><ele>215.8</ele><time>2026-08-13T19:48:55Z</time></trkpt>
<trkpt lat="35.19738" lon="-84.900122"><ele>216.4</ele><time>2026-08-13T19:48:58Z</time></trkpt>
<trkpt lat="35.197361" lon="-84.900148"><ele>216.4</ele><time>2026-08-13T19:49:00Z</time></trkpt>
<trkpt lat="35.197341" lon="-84.900172"><ele>216.4</ele><time>2026-08-13T19:49:02Z</time></trkpt>
<trkpt lat="35.197319" lon="-84.900194"><ele>216.7</ele><time>2026-08-13T19:49:04Z</time></trkpt>
<trkpt lat="35.197297" lon="-84.900218"><ele>216.7</ele><time>2026-08-13T19:49:06Z</time></trkpt>
<trkpt lat="35.197264" lon="-84.900244"><ele>217.0</ele><time>2026-08-13T19:49:09Z</time></trkpt>
<trkpt lat="35.197238" lon="-84.90026"><ele>217.3</ele><time>2026-08-13T19:49:11Z</time></trkpt>
<trkpt lat="35.197213" lon="-84.900276"><ele>217.3</ele><time>2026-08-13T19:49:13Z</time></trkpt>
<trkpt lat="35.197187" lon="-84.900293"><ele>218.2</ele><time>2026-08-13T19:49:15Z</time></trkpt>
<trkpt lat="35.197159" lon="-84.900312"><ele>218.2</ele><time>2026-08-13T19:49:17Z</time></trkpt>
<trkpt lat="35.197132" lon="-84.900328"><ele>218.2</ele><time>2026-08-13T19:49:19Z</time></trkpt>
<trkpt lat="35.197108" lon="-84.900346"><ele>218.2</ele><time>2026-08-13T19:49:21Z</time></trkpt>
<trkpt lat="35.197085" lon="-84.900364"><ele>217.6</ele><time>2026-08-13T19:49:23Z</time></trkpt>
<trkpt lat="35.197063" lon="-84.900387"><ele>217.3</ele><time>2026-08-13T19:49:25Z</time></trkpt>
<trkpt lat="35.197039" lon="-84.900424"><ele>217.3</ele><time>2026-08-13T19:49:28Z</time></trkpt>
<trkpt lat="35.197021" lon="-84.900449"><ele>217.0</ele><time>2026-08-13T19:49:30Z</time></trkpt>
<trkpt lat="35.197004" lon="-84.900478"><ele>216.7</ele><time>2026-08-13T19:49:32Z</time></trkpt>
<trkpt lat="35.196985" lon="-84.900503"><ele>216.4</ele><time>2026-08-13T19:49:34Z</time></trkpt>
<trkpt lat="35.196963" lon="-84.900525"><ele>216.4</ele><time>2026-08-13T19:49:36Z</time></trkpt>
<trkpt lat="35.196941" lon="-84.900547"><ele>216.1</ele><time>2026-08-13T19:49:38Z</time></trkpt>
<trkpt lat="35.196918" lon="-84.90057"><ele>216.4</ele><time>2026-08-13T19:49:40Z</time></trkpt>
<trkpt lat="35.196895" lon="-84.900591"><ele>216.1</ele><time>2026-08-13T19:49:42Z</time></trkpt>
<trkpt lat="35.196872" lon="-84.900613"><ele>216.1</ele><time>2026-08-13T19:49:44Z</time></trkpt>
<trkpt lat="35.196848" lon="-84.900633"><ele>216.1</ele><time>2026-08-13T19:49:46Z</time></trkpt>
<trkpt lat="35.196825" lon="-84.900653"><ele>216.4</ele><time>2026-08-13T19:49:48Z</time></trkpt>
<trkpt lat="35.1968" lon="-84.900675"><ele>217.0</ele><time>2026-08-13T19:49:50Z</time></trkpt>
<trkpt lat="35.196776" lon="-84.900697"><ele>217.0</ele><time>2026-08-13T19:49:52Z</time></trkpt>
<trkpt lat="35.196754" lon="-84.900717"><ele>217.0</ele><time>2026-08-13T19:49:54Z</time></trkpt>
<trkpt lat="35.196729" lon="-84.900736"><ele>217.0</ele><time>2026-08-13T19:49:56Z</time></trkpt>
<trkpt lat="35.196705" lon="-84.900756"><ele>216.7</ele><time>2026-08-13T19:49:58Z</time></trkpt>
<trkpt lat="35.196679" lon="-84.900771"><ele>216.4</ele><time>2026-08-13T19:50:00Z</time></trkpt>
<trkpt lat="35.196653" lon="-84.900785"><ele>216.7</ele><time>2026-08-13T19:50:02Z</time></trkpt>
<trkpt lat="35.196629" lon="-84.900801"><ele>216.7</ele><time>2026-08-13T19:50:04Z</time></trkpt>
<trkpt lat="35.196605" lon="-84.900819"><ele>217.0</ele><time>2026-08-13T19:50:06Z</time></trkpt>
<trkpt lat="35.196582" lon="-84.900838"><ele>217.0</ele><time>2026-08-13T19:50:08Z</time></trkpt>
<trkpt lat="35.196557" lon="-84.900854"><ele>216.7</ele><time>2026-08-13T19:50:10Z</time></trkpt>
<trkpt lat="35.196525" lon="-84.900883"><ele>216.4</ele><time>2026-08-13T19:50:13Z</time></trkpt>
<trkpt lat="35.196495" lon="-84.900915"><ele>216.7</ele><time>2026-08-13T19:50:16Z</time></trkpt>
<trkpt lat="35.196479" lon="-84.900944"><ele>216.7</ele><time>2026-08-13T19:50:18Z</time></trkpt>
<trkpt lat="35.196456" lon="-84.900985"><ele>216.7</ele><time>2026-08-13T19:50:21Z</time></trkpt>
<trkpt lat="35.196434" lon="-84.901026"><ele>216.1</ele><time>2026-08-13T19:50:24Z</time></trkpt>
<trkpt lat="35.196419" lon="-84.901055"><ele>216.7</ele><time>2026-08-13T19:50:26Z</time></trkpt>
<trkpt lat="35.196404" lon="-84.901085"><ele>216.7</ele><time>2026-08-13T19:50:28Z</time></trkpt>
<trkpt lat="35.19639" lon="-84.901116"><ele>216.7</ele><time>2026-08-13T19:50:30Z</time></trkpt>
<trkpt lat="35.196377" lon="-84.901148"><ele>217.0</ele><time>2026-08-13T19:50:32Z</time></trkpt>
<trkpt lat="35.196362" lon="-84.90118"><ele>217.0</ele><time>2026-08-13T19:50:34Z</time></trkpt>
<trkpt lat="35.196343" lon="-84.901208"><ele>217.3</ele><time>2026-08-13T19:50:36Z</time></trkpt>
<trkpt lat="35.19633" lon="-84.90124"><ele>216.7</ele><time>2026-08-13T19:50:38Z</time></trkpt>
<trkpt lat="35.196316" lon="-84.901271"><ele>216.7</ele><time>2026-08-13T19:50:40Z</time></trkpt>
<trkpt lat="35.1963" lon="-84.901299"><ele>216.4</ele><time>2026-08-13T19:50:42Z</time></trkpt>
<trkpt lat="35.196288" lon="-84.90133"><ele>217.0</ele><time>2026-08-13T19:50:44Z</time></trkpt>
<trkpt lat="35.196275" lon="-84.901361"><ele>217.3</ele><time>2026-08-13T19:50:46Z</time></trkpt>
<trkpt lat="35.196263" lon="-84.901393"><ele>217.6</ele><time>2026-08-13T19:50:48Z</time></trkpt>
<trkpt lat="35.196245" lon="-84.901438"><ele>217.6</ele><time>2026-08-13T19:50:51Z</time></trkpt>
<trkpt lat="35.196222" lon="-84.901482"><ele>218.5</ele><time>2026-08-13T19:50:54Z</time></trkpt>
<trkpt lat="35.196212" lon="-84.901515"><ele>219.2</ele><time>2026-08-13T19:50:56Z</time></trkpt>
<trkpt lat="35.196198" lon="-84.901546"><ele>219.5</ele><time>2026-08-13T19:50:58Z</time></trkpt>
<trkpt lat="35.196187" lon="-84.901578"><ele>219.2</ele><time>2026-08-13T19:51:00Z</time></trkpt>
<trkpt lat="35.196175" lon="-84.901609"><ele>219.5</ele><time>2026-08-13T19:51:02Z</time></trkpt>
<trkpt lat="35.196164" lon="-84.901653"><ele>219.8</ele><time>2026-08-13T19:51:05Z</time></trkpt>
<trkpt lat="35.196155" lon="-84.901687"><ele>220.1</ele><time>2026-08-13T19:51:07Z</time></trkpt>
<trkpt lat="35.196144" lon="-84.901721"><ele>220.7</ele><time>2026-08-13T19:51:09Z</time></trkpt>
<trkpt lat="35.196135" lon="-84.901753"><ele>220.7</ele><time>2026-08-13T19:51:11Z</time></trkpt>
<trkpt lat="35.196126" lon="-84.901785"><ele>221.3</ele><time>2026-08-13T19:51:13Z</time></trkpt>
<trkpt lat="35.196112" lon="-84.901833"><ele>221.6</ele><time>2026-08-13T19:51:16Z</time></trkpt>
<trkpt lat="35.196105" lon="-84.901868"><ele>223.1</ele><time>2026-08-13T19:51:18Z</time></trkpt>
<trkpt lat="35.196088" lon="-84.901901"><ele>225.9</ele><time>2026-08-13T19:51:20Z</time></trkpt>
<trkpt lat="35.196077" lon="-84.901936"><ele>226.2</ele><time>2026-08-13T19:51:22Z</time></trkpt>
<trkpt lat="35.196068" lon="-84.901971"><ele>224.0</ele><time>2026-08-13T19:51:24Z</time></trkpt>
<trkpt lat="35.196064" lon="-84.902005"><ele>224.6</ele><time>2026-08-13T19:51:26Z</time></trkpt>
<trkpt lat="35.196062" lon="-84.902039"><ele>223.7</ele><time>2026-08-13T19:51:28Z</time></trkpt>
<trkpt lat="35.196055" lon="-84.902073"><ele>222.8</ele><time>2026-08-13T19:51:30Z</time></trkpt>
<trkpt lat="35.196049" lon="-84.902121"><ele>222.5</ele><time>2026-08-13T19:51:33Z</time></trkpt>
<trkpt lat="35.196043" lon="-84.902168"><ele>221.6</ele><time>2026-08-13T19:51:36Z</time></trkpt>
<trkpt lat="35.196036" lon="-84.902214"><ele>221.6</ele><time>2026-08-13T19:51:39Z</time></trkpt>
<trkpt lat="35.196034" lon="-84.902259"><ele>221.0</ele><time>2026-08-13T19:51:42Z</time></trkpt>
<trkpt lat="35.196036" lon="-84.902308"><ele>220.1</ele><time>2026-08-13T19:51:45Z</time></trkpt>
<trkpt lat="35.196036" lon="-84.902358"><ele>219.5</ele><time>2026-08-13T19:51:48Z</time></trkpt>
<trkpt lat="35.196021" lon="-84.902388"><ele>220.7</ele><time>2026-08-13T19:51:50Z</time></trkpt>
<trkpt lat="35.196016" lon="-84.902422"><ele>220.7</ele><time>2026-08-13T19:51:52Z</time></trkpt>
<trkpt lat="35.196008" lon="-84.902466"><ele>220.4</ele><time>2026-08-13T19:51:55Z</time></trkpt>
<trkpt lat="35.195988" lon="-84.902506"><ele>221.3</ele><time>2026-08-13T19:51:58Z</time></trkpt>
<trkpt lat="35.195972" lon="-84.902548"><ele>221.9</ele><time>2026-08-13T19:52:01Z</time></trkpt>
<trkpt lat="35.195971" lon="-84.902598"><ele>221.3</ele><time>2026-08-13T19:52:04Z</time></trkpt>
<trkpt lat="35.195965" lon="-84.902646"><ele>222.2</ele><time>2026-08-13T19:52:07Z</time></trkpt>
<trkpt lat="35.195961" lon="-84.902681"><ele>222.8</ele><time>2026-08-13T19:52:09Z</time></trkpt>
<trkpt lat="35.195962" lon="-84.902717"><ele>221.6</ele><time>2026-08-13T19:52:11Z</time></trkpt>
<trkpt lat="35.195956" lon="-84.902764"><ele>220.7</ele><time>2026-08-13T19:52:14Z</time></trkpt>
<trkpt lat="35.195949" lon="-84.902812"><ele>221.9</ele><time>2026-08-13T19:52:17Z</time></trkpt>
<trkpt lat="35.195946" lon="-84.902847"><ele>221.9</ele><time>2026-08-13T19:52:19Z</time></trkpt>
<trkpt lat="35.195942" lon="-84.90288"><ele>221.9</ele><time>2026-08-13T19:52:21Z</time></trkpt>
<trkpt lat="35.195939" lon="-84.902929"><ele>221.9</ele><time>2026-08-13T19:52:24Z</time></trkpt>
<trkpt lat="35.195933" lon="-84.902972"><ele>221.0</ele><time>2026-08-13T19:52:27Z</time></trkpt>
<trkpt lat="35.195926" lon="-84.903016"><ele>221.0</ele><time>2026-08-13T19:52:30Z</time></trkpt>
<trkpt lat="35.19591" lon="-84.90306"><ele>219.5</ele><time>2026-08-13T19:52:33Z</time></trkpt>
<trkpt lat="35.195896" lon="-84.903106"><ele>219.2</ele><time>2026-08-13T19:52:36Z</time></trkpt>
<trkpt lat="35.195889" lon="-84.903158"><ele>217.9</ele><time>2026-08-13T19:52:39Z</time></trkpt>
<trkpt lat="35.195891" lon="-84.903193"><ele>218.8</ele><time>2026-08-13T19:52:41Z</time></trkpt>
<trkpt lat="35.195881" lon="-84.90324"><ele>219.8</ele><time>2026-08-13T19:52:44Z</time></trkpt>
<trkpt lat="35.195872" lon="-84.903273"><ele>220.1</ele><time>2026-08-13T19:52:46Z</time></trkpt>
<trkpt lat="35.195865" lon="-84.903323"><ele>221.3</ele><time>2026-08-13T19:52:49Z</time></trkpt>
<trkpt lat="35.195855" lon="-84.903371"><ele>221.3</ele><time>2026-08-13T19:52:52Z</time></trkpt>
<trkpt lat="35.195839" lon="-84.903416"><ele>220.7</ele><time>2026-08-13T19:52:55Z</time></trkpt>
<trkpt lat="35.195832" lon="-84.903449"><ele>220.7</ele><time>2026-08-13T19:52:57Z</time></trkpt>
<trkpt lat="35.19583" lon="-84.903497"><ele>220.4</ele><time>2026-08-13T19:53:00Z</time></trkpt>
<trkpt lat="35.195833" lon="-84.903533"><ele>220.4</ele><time>2026-08-13T19:53:02Z</time></trkpt>
<trkpt lat="35.195832" lon="-84.903567"><ele>221.3</ele><time>2026-08-13T19:53:04Z</time></trkpt>
<trkpt lat="35.195823" lon="-84.903601"><ele>221.0</ele><time>2026-08-13T19:53:06Z</time></trkpt>
<trkpt lat="35.19582" lon="-84.903634"><ele>221.6</ele><time>2026-08-13T19:53:08Z</time></trkpt>
<trkpt lat="35.195816" lon="-84.903685"><ele>221.0</ele><time>2026-08-13T19:53:11Z</time></trkpt>
<trkpt lat="35.195808" lon="-84.903732"><ele>220.7</ele><time>2026-08-13T19:53:14Z</time></trkpt>
<trkpt lat="35.195805" lon="-84.903776"><ele>220.7</ele><time>2026-08-13T19:53:17Z</time></trkpt>
<trkpt lat="35.195801" lon="-84.903823"><ele>221.0</ele><time>2026-08-13T19:53:20Z</time></trkpt>
<trkpt lat="35.195801" lon="-84.903869"><ele>221.0</ele><time>2026-08-13T19:53:23Z</time></trkpt>
<trkpt lat="35.195796" lon="-84.903913"><ele>220.1</ele><time>2026-08-13T19:53:26Z</time></trkpt>
<trkpt lat="35.195789" lon="-84.903958"><ele>221.3</ele><time>2026-08-13T19:53:29Z</time></trkpt>
<trkpt lat="35.195791" lon="-84.904005"><ele>221.9</ele><time>2026-08-13T19:53:32Z</time></trkpt>
<trkpt lat="35.195797" lon="-84.904054"><ele>221.3</ele><time>2026-08-13T19:53:35Z</time></trkpt>
<trkpt lat="35.195798" lon="-84.904089"><ele>221.3</ele><time>2026-08-13T19:53:37Z</time></trkpt>
<trkpt lat="35.195798" lon="-84.904123"><ele>221.9</ele><time>2026-08-13T19:53:39Z</time></trkpt>
<trkpt lat="35.195798" lon="-84.904157"><ele>221.9</ele><time>2026-08-13T19:53:41Z</time></trkpt>
<trkpt lat="35.1958" lon="-84.904203"><ele>222.5</ele><time>2026-08-13T19:53:44Z</time></trkpt>
<trkpt lat="35.195792" lon="-84.90425"><ele>221.3</ele><time>2026-08-13T19:53:47Z</time></trkpt>
<trkpt lat="35.195792" lon="-84.904296"><ele>221.6</ele><time>2026-08-13T19:53:50Z</time></trkpt>
<trkpt lat="35.195789" lon="-84.904339"><ele>221.9</ele><time>2026-08-13T19:53:53Z</time></trkpt>
<trkpt lat="35.195787" lon="-84.904387"><ele>220.7</ele><time>2026-08-13T19:53:56Z</time></trkpt>
<trkpt lat="35.195788" lon="-84.904437"><ele>223.7</ele><time>2026-08-13T19:53:59Z</time></trkpt>
<trkpt lat="35.19579" lon="-84.904485"><ele>223.7</ele><time>2026-08-13T19:54:02Z</time></trkpt>
<trkpt lat="35.19579" lon="-84.904531"><ele>221.3</ele><time>2026-08-13T19:54:05Z</time></trkpt>
<trkpt lat="35.195798" lon="-84.904564"><ele>222.2</ele><time>2026-08-13T19:54:07Z</time></trkpt>
<trkpt lat="35.195799" lon="-84.904599"><ele>221.9</ele><time>2026-08-13T19:54:09Z</time></trkpt>
<trkpt lat="35.195799" lon="-84.904633"><ele>221.0</ele><time>2026-08-13T19:54:11Z</time></trkpt>
<trkpt lat="35.195803" lon="-84.904668"><ele>221.0</ele><time>2026-08-13T19:54:13Z</time></trkpt>
<trkpt lat="35.195806" lon="-84.904704"><ele>221.3</ele><time>2026-08-13T19:54:15Z</time></trkpt>
<trkpt lat="35.195812" lon="-84.904738"><ele>221.0</ele><time>2026-08-13T19:54:17Z</time></trkpt>
<trkpt lat="35.195818" lon="-84.904772"><ele>221.3</ele><time>2026-08-13T19:54:19Z</time></trkpt>
<trkpt lat="35.195824" lon="-84.904822"><ele>220.4</ele><time>2026-08-13T19:54:22Z</time></trkpt>
<trkpt lat="35.195827" lon="-84.904855"><ele>220.1</ele><time>2026-08-13T19:54:24Z</time></trkpt>
<trkpt lat="35.195835" lon="-84.904902"><ele>220.1</ele><time>2026-08-13T19:54:27Z</time></trkpt>
<trkpt lat="35.195842" lon="-84.904951"><ele>219.2</ele><time>2026-08-13T19:54:30Z</time></trkpt>
<trkpt lat="35.195846" lon="-84.904985"><ele>219.5</ele><time>2026-08-13T19:54:32Z</time></trkpt>
<trkpt lat="35.19585" lon="-84.905018"><ele>219.2</ele><time>2026-08-13T19:54:34Z</time></trkpt>
<trkpt lat="35.19586" lon="-84.905066"><ele>218.8</ele><time>2026-08-13T19:54:37Z</time></trkpt>
<trkpt lat="35.195873" lon="-84.905113"><ele>219.2</ele><time>2026-08-13T19:54:40Z</time></trkpt>
<trkpt lat="35.195879" lon="-84.905145"><ele>219.2</ele><time>2026-08-13T19:54:42Z</time></trkpt>
<trkpt lat="35.195886" lon="-84.905179"><ele>219.2</ele><time>2026-08-13T19:54:44Z</time></trkpt>
<trkpt lat="35.195896" lon="-84.905224"><ele>219.2</ele><time>2026-08-13T19:54:47Z</time></trkpt>
<trkpt lat="35.195905" lon="-84.905257"><ele>218.8</ele><time>2026-08-13T19:54:49Z</time></trkpt>
<trkpt lat="35.195911" lon="-84.905305"><ele>218.5</ele><time>2026-08-13T19:54:52Z</time></trkpt>
<trkpt lat="35.195917" lon="-84.905353"><ele>218.8</ele><time>2026-08-13T19:54:55Z</time></trkpt>
<trkpt lat="35.19593" lon="-84.905399"><ele>219.2</ele><time>2026-08-13T19:54:58Z</time></trkpt>
<trkpt lat="35.195939" lon="-84.905447"><ele>219.5</ele><time>2026-08-13T19:55:01Z</time></trkpt>
<trkpt lat="35.195942" lon="-84.90548"><ele>219.2</ele><time>2026-08-13T19:55:03Z</time></trkpt>
<trkpt lat="35.195947" lon="-84.90553"><ele>219.5</ele><time>2026-08-13T19:55:06Z</time></trkpt>
<trkpt lat="35.195953" lon="-84.905578"><ele>219.8</ele><time>2026-08-13T19:55:09Z</time></trkpt>
<trkpt lat="35.195957" lon="-84.905612"><ele>220.1</ele><time>2026-08-13T19:55:11Z</time></trkpt>
<trkpt lat="35.195963" lon="-84.905661"><ele>220.1</ele><time>2026-08-13T19:55:14Z</time></trkpt>
<trkpt lat="35.195969" lon="-84.90571"><ele>220.1</ele><time>2026-08-13T19:55:17Z</time></trkpt>
<trkpt lat="35.195968" lon="-84.905745"><ele>219.5</ele><time>2026-08-13T19:55:19Z</time></trkpt>
<trkpt lat="35.19597" lon="-84.905779"><ele>219.8</ele><time>2026-08-13T19:55:21Z</time></trkpt>
<trkpt lat="35.19597" lon="-84.905829"><ele>219.5</ele><time>2026-08-13T19:55:24Z</time></trkpt>
<trkpt lat="35.19597" lon="-84.905863"><ele>219.2</ele><time>2026-08-13T19:55:26Z</time></trkpt>
<trkpt lat="35.19597" lon="-84.905911"><ele>219.5</ele><time>2026-08-13T19:55:29Z</time></trkpt>
<trkpt lat="35.195972" lon="-84.90596"><ele>219.2</ele><time>2026-08-13T19:55:32Z</time></trkpt>
<trkpt lat="35.195971" lon="-84.905994"><ele>219.2</ele><time>2026-08-13T19:55:34Z</time></trkpt>
<trkpt lat="35.195971" lon="-84.906043"><ele>219.2</ele><time>2026-08-13T19:55:37Z</time></trkpt>
<trkpt lat="35.195975" lon="-84.906092"><ele>219.2</ele><time>2026-08-13T19:55:40Z</time></trkpt>
<trkpt lat="35.195977" lon="-84.906141"><ele>219.2</ele><time>2026-08-13T19:55:43Z</time></trkpt>
<trkpt lat="35.195979" lon="-84.906174"><ele>219.5</ele><time>2026-08-13T19:55:45Z</time></trkpt>
<trkpt lat="35.195976" lon="-84.906223"><ele>219.5</ele><time>2026-08-13T19:55:48Z</time></trkpt>
<trkpt lat="35.195981" lon="-84.90627"><ele>219.5</ele><time>2026-08-13T19:55:51Z</time></trkpt>
<trkpt lat="35.195986" lon="-84.906304"><ele>220.1</ele><time>2026-08-13T19:55:53Z</time></trkpt>
<trkpt lat="35.195986" lon="-84.90635"><ele>219.8</ele><time>2026-08-13T19:55:56Z</time></trkpt>
<trkpt lat="35.195985" lon="-84.906384"><ele>220.4</ele><time>2026-08-13T19:55:58Z</time></trkpt>
<trkpt lat="35.195991" lon="-84.906417"><ele>220.7</ele><time>2026-08-13T19:56:00Z</time></trkpt>
<trkpt lat="35.195994" lon="-84.90645"><ele>220.4</ele><time>2026-08-13T19:56:02Z</time></trkpt>
<trkpt lat="35.195997" lon="-84.906497"><ele>220.1</ele><time>2026-08-13T19:56:05Z</time></trkpt>
<trkpt lat="35.195997" lon="-84.906546"><ele>219.8</ele><time>2026-08-13T19:56:08Z</time></trkpt>
<trkpt lat="35.195999" lon="-84.906595"><ele>219.8</ele><time>2026-08-13T19:56:11Z</time></trkpt>
<trkpt lat="35.196002" lon="-84.906643"><ele>219.8</ele><time>2026-08-13T19:56:14Z</time></trkpt>
<trkpt lat="35.196005" lon="-84.906687"><ele>220.4</ele><time>2026-08-13T19:56:17Z</time></trkpt>
<trkpt lat="35.196009" lon="-84.906734"><ele>220.4</ele><time>2026-08-13T19:56:20Z</time></trkpt>
<trkpt lat="35.196014" lon="-84.90678"><ele>220.7</ele><time>2026-08-13T19:56:23Z</time></trkpt>
<trkpt lat="35.196016" lon="-84.906827"><ele>220.7</ele><time>2026-08-13T19:56:26Z</time></trkpt>
<trkpt lat="35.196013" lon="-84.906876"><ele>221.3</ele><time>2026-08-13T19:56:29Z</time></trkpt>
<trkpt lat="35.19601" lon="-84.906927"><ele>221.6</ele><time>2026-08-13T19:56:32Z</time></trkpt>
<trkpt lat="35.196012" lon="-84.906976"><ele>221.6</ele><time>2026-08-13T19:56:35Z</time></trkpt>
<trkpt lat="35.196013" lon="-84.90701"><ele>221.9</ele><time>2026-08-13T19:56:37Z</time></trkpt>
<trkpt lat="35.196015" lon="-84.907045"><ele>221.6</ele><time>2026-08-13T19:56:39Z</time></trkpt>
<trkpt lat="35.196013" lon="-84.907094"><ele>221.6</ele><time>2026-08-13T19:56:42Z</time></trkpt>
<trkpt lat="35.196008" lon="-84.907143"><ele>221.0</ele><time>2026-08-13T19:56:45Z</time></trkpt>
<trkpt lat="35.196003" lon="-84.907176"><ele>221.0</ele><time>2026-08-13T19:56:47Z</time></trkpt>
<trkpt lat="35.196001" lon="-84.907211"><ele>221.0</ele><time>2026-08-13T19:56:49Z</time></trkpt>
<trkpt lat="35.195999" lon="-84.907245"><ele>221.3</ele><time>2026-08-13T19:56:51Z</time></trkpt>
<trkpt lat="35.195996" lon="-84.907279"><ele>221.3</ele><time>2026-08-13T19:56:53Z</time></trkpt>
<trkpt lat="35.195991" lon="-84.907328"><ele>221.6</ele><time>2026-08-13T19:56:56Z</time></trkpt>
<trkpt lat="35.195984" lon="-84.907377"><ele>221.6</ele><time>2026-08-13T19:56:59Z</time></trkpt>
<trkpt lat="35.195977" lon="-84.907423"><ele>221.6</ele><time>2026-08-13T19:57:02Z</time></trkpt>
<trkpt lat="35.195973" lon="-84.907473"><ele>221.6</ele><time>2026-08-13T19:57:05Z</time></trkpt>
<trkpt lat="35.195965" lon="-84.907521"><ele>221.9</ele><time>2026-08-13T19:57:08Z</time></trkpt>
<trkpt lat="35.195954" lon="-84.907568"><ele>221.6</ele><time>2026-08-13T19:57:11Z</time></trkpt>
<trkpt lat="35.195948" lon="-84.907601"><ele>221.9</ele><time>2026-08-13T19:57:13Z</time></trkpt>
<trkpt lat="35.195939" lon="-84.907633"><ele>221.3</ele><time>2026-08-13T19:57:15Z</time></trkpt>
<trkpt lat="35.195924" lon="-84.907679"><ele>221.0</ele><time>2026-08-13T19:57:18Z</time></trkpt>
<trkpt lat="35.195911" lon="-84.907727"><ele>220.7</ele><time>2026-08-13T19:57:21Z</time></trkpt>
<trkpt lat="35.195902" lon="-84.907776"><ele>221.0</ele><time>2026-08-13T19:57:24Z</time></trkpt>
<trkpt lat="35.195894" lon="-84.907809"><ele>221.0</ele><time>2026-08-13T19:57:26Z</time></trkpt>
<trkpt lat="35.195888" lon="-84.907859"><ele>220.7</ele><time>2026-08-13T19:57:29Z</time></trkpt>
<trkpt lat="35.19588" lon="-84.907892"><ele>220.1</ele><time>2026-08-13T19:57:31Z</time></trkpt>
<trkpt lat="35.195871" lon="-84.907939"><ele>219.8</ele><time>2026-08-13T19:57:34Z</time></trkpt>
<trkpt lat="35.195865" lon="-84.907972"><ele>219.5</ele><time>2026-08-13T19:57:36Z</time></trkpt>
<trkpt lat="35.195863" lon="-84.908007"><ele>219.5</ele><time>2026-08-13T19:57:38Z</time></trkpt>
<trkpt lat="35.19586" lon="-84.908042"><ele>219.5</ele><time>2026-08-13T19:57:40Z</time></trkpt>
<trkpt lat="35.195855" lon="-84.908077"><ele>220.1</ele><time>2026-08-13T19:57:42Z</time></trkpt>
<trkpt lat="35.195845" lon="-84.90811"><ele>220.4</ele><time>2026-08-13T19:57:44Z</time></trkpt>
<trkpt lat="35.195838" lon="-84.908145"><ele>220.4</ele><time>2026-08-13T19:57:46Z</time></trkpt>
<trkpt lat="35.195831" lon="-84.908179"><ele>220.7</ele><time>2026-08-13T19:57:48Z</time></trkpt>
<trkpt lat="35.195826" lon="-84.908217"><ele>220.7</ele><time>2026-08-13T19:57:50Z</time></trkpt>
<trkpt lat="35.19582" lon="-84.908251"><ele>220.7</ele><time>2026-08-13T19:57:52Z</time></trkpt>
<trkpt lat="35.195817" lon="-84.908288"><ele>221.0</ele><time>2026-08-13T19:57:54Z</time></trkpt>
<trkpt lat="35.195814" lon="-84.908323"><ele>221.0</ele><time>2026-08-13T19:57:56Z</time></trkpt>
<trkpt lat="35.195812" lon="-84.908357"><ele>220.7</ele><time>2026-08-13T19:57:58Z</time></trkpt>
<trkpt lat="35.19581" lon="-84.90839"><ele>220.4</ele><time>2026-08-13T19:58:00Z</time></trkpt>
<trkpt lat="35.195807" lon="-84.908423"><ele>220.4</ele><time>2026-08-13T19:58:02Z</time></trkpt>
<trkpt lat="35.195806" lon="-84.908475"><ele>221.0</ele><time>2026-08-13T19:58:05Z</time></trkpt>
<trkpt lat="35.195805" lon="-84.90851"><ele>221.0</ele><time>2026-08-13T19:58:07Z</time></trkpt>
<trkpt lat="35.195803" lon="-84.908546"><ele>221.0</ele><time>2026-08-13T19:58:09Z</time></trkpt>
<trkpt lat="35.195801" lon="-84.908581"><ele>221.3</ele><time>2026-08-13T19:58:11Z</time></trkpt>
<trkpt lat="35.1958" lon="-84.908617"><ele>221.6</ele><time>2026-08-13T19:58:13Z</time></trkpt>
<trkpt lat="35.195794" lon="-84.908651"><ele>221.6</ele><time>2026-08-13T19:58:15Z</time></trkpt>
<trkpt lat="35.195792" lon="-84.908686"><ele>221.6</ele><time>2026-08-13T19:58:17Z</time></trkpt>
<trkpt lat="35.195792" lon="-84.908721"><ele>221.6</ele><time>2026-08-13T19:58:19Z</time></trkpt>
<trkpt lat="35.195788" lon="-84.908757"><ele>221.3</ele><time>2026-08-13T19:58:21Z</time></trkpt>
<trkpt lat="35.195781" lon="-84.908794"><ele>221.3</ele><time>2026-08-13T19:58:23Z</time></trkpt>
<trkpt lat="35.195782" lon="-84.90883"><ele>221.3</ele><time>2026-08-13T19:58:25Z</time></trkpt>
<trkpt lat="35.195786" lon="-84.908869"><ele>221.3</ele><time>2026-08-13T19:58:27Z</time></trkpt>
<trkpt lat="35.195796" lon="-84.908916"><ele>221.0</ele><time>2026-08-13T19:58:30Z</time></trkpt>
<trkpt lat="35.195812" lon="-84.908945"><ele>221.0</ele><time>2026-08-13T19:58:32Z</time></trkpt>
<trkpt lat="35.195833" lon="-84.908967"><ele>220.7</ele><time>2026-08-13T19:58:34Z</time></trkpt>
<trkpt lat="35.19586" lon="-84.90898"><ele>220.4</ele><time>2026-08-13T19:58:36Z</time></trkpt>
<trkpt lat="35.195888" lon="-84.90899"><ele>220.4</ele><time>2026-08-13T19:58:38Z</time></trkpt>
<trkpt lat="35.195929" lon="-84.908999"><ele>220.4</ele><time>2026-08-13T19:58:41Z</time></trkpt>
<trkpt lat="35.195958" lon="-84.909003"><ele>220.4</ele><time>2026-08-13T19:58:43Z</time></trkpt>
<trkpt lat="35.195999" lon="-84.909005"><ele>220.1</ele><time>2026-08-13T19:58:46Z</time></trkpt>
<trkpt lat="35.196028" lon="-84.909003"><ele>219.5</ele><time>2026-08-13T19:58:48Z</time></trkpt>
<trkpt lat="35.196057" lon="-84.909001"><ele>219.8</ele><time>2026-08-13T19:58:50Z</time></trkpt>
<trkpt lat="35.196087" lon="-84.908996"><ele>220.1</ele><time>2026-08-13T19:58:52Z</time></trkpt>
<trkpt lat="35.196115" lon="-84.908991"><ele>220.7</ele><time>2026-08-13T19:58:54Z</time></trkpt>
<trkpt lat="35.196143" lon="-84.908985"><ele>220.7</ele><time>2026-08-13T19:58:56Z</time></trkpt>
<trkpt lat="35.196184" lon="-84.908976"><ele>220.4</ele><time>2026-08-13T19:58:59Z</time></trkpt>
<trkpt lat="35.196224" lon="-84.908965"><ele>220.1</ele><time>2026-08-13T19:59:02Z</time></trkpt>
<trkpt lat="35.196252" lon="-84.908959"><ele>220.7</ele><time>2026-08-13T19:59:04Z</time></trkpt>
<trkpt lat="35.196291" lon="-84.908946"><ele>220.7</ele><time>2026-08-13T19:59:07Z</time></trkpt>
<trkpt lat="35.196319" lon="-84.908937"><ele>220.7</ele><time>2026-08-13T19:59:09Z</time></trkpt>
<trkpt lat="35.196346" lon="-84.908929"><ele>220.1</ele><time>2026-08-13T19:59:11Z</time></trkpt>
<trkpt lat="35.196373" lon="-84.908921"><ele>220.1</ele><time>2026-08-13T19:59:13Z</time></trkpt>
<trkpt lat="35.196403" lon="-84.908915"><ele>220.1</ele><time>2026-08-13T19:59:15Z</time></trkpt>
<trkpt lat="35.196432" lon="-84.908905"><ele>220.4</ele><time>2026-08-13T19:59:17Z</time></trkpt>
<trkpt lat="35.196459" lon="-84.908893"><ele>220.7</ele><time>2026-08-13T19:59:19Z</time></trkpt>
<trkpt lat="35.196487" lon="-84.908882"><ele>221.0</ele><time>2026-08-13T19:59:21Z</time></trkpt>
<trkpt lat="35.196517" lon="-84.908872"><ele>221.6</ele><time>2026-08-13T19:59:23Z</time></trkpt>
<trkpt lat="35.196543" lon="-84.90886"><ele>221.6</ele><time>2026-08-13T19:59:25Z</time></trkpt>
<trkpt lat="35.19657" lon="-84.908847"><ele>221.3</ele><time>2026-08-13T19:59:27Z</time></trkpt>
<trkpt lat="35.196599" lon="-84.908834"><ele>220.7</ele><time>2026-08-13T19:59:29Z</time></trkpt>
<trkpt lat="35.196624" lon="-84.908818"><ele>220.1</ele><time>2026-08-13T19:59:31Z</time></trkpt>
<trkpt lat="35.196649" lon="-84.908803"><ele>219.8</ele><time>2026-08-13T19:59:33Z</time></trkpt>
<trkpt lat="35.196676" lon="-84.908786"><ele>219.2</ele><time>2026-08-13T19:59:35Z</time></trkpt>
<trkpt lat="35.196701" lon="-84.908769"><ele>218.8</ele><time>2026-08-13T19:59:37Z</time></trkpt>
<trkpt lat="35.196725" lon="-84.90875"><ele>218.5</ele><time>2026-08-13T19:59:39Z</time></trkpt>
<trkpt lat="35.196752" lon="-84.908735"><ele>218.5</ele><time>2026-08-13T19:59:41Z</time></trkpt>
<trkpt lat="35.196778" lon="-84.90872"><ele>218.5</ele><time>2026-08-13T19:59:43Z</time></trkpt>
<trkpt lat="35.196805" lon="-84.908706"><ele>218.2</ele><time>2026-08-13T19:59:45Z</time></trkpt>
<trkpt lat="35.196829" lon="-84.90869"><ele>218.2</ele><time>2026-08-13T19:59:47Z</time></trkpt>
<trkpt lat="35.196856" lon="-84.908675"><ele>217.9</ele><time>2026-08-13T19:59:49Z</time></trkpt>
<trkpt lat="35.196884" lon="-84.908663"><ele>218.2</ele><time>2026-08-13T19:59:51Z</time></trkpt>
<trkpt lat="35.196912" lon="-84.908648"><ele>218.5</ele><time>2026-08-13T19:59:53Z</time></trkpt>
<trkpt lat="35.196939" lon="-84.908631"><ele>218.8</ele><time>2026-08-13T19:59:55Z</time></trkpt>
<trkpt lat="35.196964" lon="-84.908612"><ele>219.2</ele><time>2026-08-13T19:59:57Z</time></trkpt>
<trkpt lat="35.19699" lon="-84.908594"><ele>219.5</ele><time>2026-08-13T19:59:59Z</time></trkpt>
<trkpt lat="35.197015" lon="-84.908573"><ele>219.5</ele><time>2026-08-13T20:00:01Z</time></trkpt>
<trkpt lat="35.19704" lon="-84.908552"><ele>219.5</ele><time>2026-08-13T20:00:03Z</time></trkpt>
<trkpt lat="35.197064" lon="-84.908527"><ele>219.5</ele><time>2026-08-13T20:00:05Z</time></trkpt>
<trkpt lat="35.197078" lon="-84.908496"><ele>219.8</ele><time>2026-08-13T20:00:07Z</time></trkpt>
<trkpt lat="35.197084" lon="-84.908461"><ele>219.8</ele><time>2026-08-13T20:00:09Z</time></trkpt>
<trkpt lat="35.197083" lon="-84.908424"><ele>219.5</ele><time>2026-08-13T20:00:11Z</time></trkpt>
<trkpt lat="35.197075" lon="-84.908388"><ele>219.8</ele><time>2026-08-13T20:00:13Z</time></trkpt>
<trkpt lat="35.197059" lon="-84.908356"><ele>219.8</ele><time>2026-08-13T20:00:15Z</time></trkpt>
<trkpt lat="35.19704" lon="-84.908315"><ele>220.1</ele><time>2026-08-13T20:00:18Z</time></trkpt>
<trkpt lat="35.197022" lon="-84.908272"><ele>219.5</ele><time>2026-08-13T20:00:21Z</time></trkpt>
<trkpt lat="35.197018" lon="-84.908236"><ele>219.2</ele><time>2026-08-13T20:00:23Z</time></trkpt>
<trkpt lat="35.197018" lon="-84.908199"><ele>219.5</ele><time>2026-08-13T20:00:25Z</time></trkpt>
<trkpt lat="35.197006" lon="-84.908154"><ele>220.4</ele><time>2026-08-13T20:00:28Z</time></trkpt>
<trkpt lat="35.197007" lon="-84.908111"><ele>220.7</ele><time>2026-08-13T20:00:30Z</time></trkpt>
<trkpt lat="35.19701" lon="-84.90807"><ele>221.0</ele><time>2026-08-13T20:00:32Z</time></trkpt>
<trkpt lat="35.197013" lon="-84.908031"><ele>221.0</ele><time>2026-08-13T20:00:34Z</time></trkpt>
<trkpt lat="35.197013" lon="-84.907993"><ele>221.0</ele><time>2026-08-13T20:00:36Z</time></trkpt>
<trkpt lat="35.197014" lon="-84.907955"><ele>221.0</ele><time>2026-08-13T20:00:38Z</time></trkpt>
<trkpt lat="35.197018" lon="-84.907915"><ele>221.3</ele><time>2026-08-13T20:00:40Z</time></trkpt>
<trkpt lat="35.197018" lon="-84.907877"><ele>220.7</ele><time>2026-08-13T20:00:42Z</time></trkpt>
<trkpt lat="35.19702" lon="-84.907839"><ele>221.0</ele><time>2026-08-13T20:00:44Z</time></trkpt>
<trkpt lat="35.197021" lon="-84.907803"><ele>220.7</ele><time>2026-08-13T20:00:46Z</time></trkpt>
<trkpt lat="35.197021" lon="-84.907769"><ele>221.3</ele><time>2026-08-13T20:00:48Z</time></trkpt>
<trkpt lat="35.197019" lon="-84.907733"><ele>221.3</ele><time>2026-08-13T20:00:50Z</time></trkpt>
<trkpt lat="35.197016" lon="-84.907699"><ele>221.3</ele><time>2026-08-13T20:00:52Z</time></trkpt>
<trkpt lat="35.197023" lon="-84.907664"><ele>221.0</ele><time>2026-08-13T20:00:54Z</time></trkpt>
<trkpt lat="35.197019" lon="-84.907626"><ele>220.7</ele><time>2026-08-13T20:00:56Z</time></trkpt>
<trkpt lat="35.19701" lon="-84.907592"><ele>221.0</ele><time>2026-08-13T20:00:58Z</time></trkpt>
<trkpt lat="35.196999" lon="-84.907561"><ele>221.3</ele><time>2026-08-13T20:01:00Z</time></trkpt>
<trkpt lat="35.197" lon="-84.907525"><ele>221.3</ele><time>2026-08-13T20:01:02Z</time></trkpt>
<trkpt lat="35.19699" lon="-84.907491"><ele>221.6</ele><time>2026-08-13T20:01:04Z</time></trkpt>
<trkpt lat="35.196986" lon="-84.907454"><ele>221.9</ele><time>2026-08-13T20:01:06Z</time></trkpt>
<trkpt lat="35.196985" lon="-84.907418"><ele>222.2</ele><time>2026-08-13T20:01:08Z</time></trkpt>
<trkpt lat="35.196982" lon="-84.907384"><ele>222.5</ele><time>2026-08-13T20:01:10Z</time></trkpt>
<trkpt lat="35.196981" lon="-84.907348"><ele>222.2</ele><time>2026-08-13T20:01:12Z</time></trkpt>
<trkpt lat="35.19698" lon="-84.907314"><ele>221.0</ele><time>2026-08-13T20:01:14Z</time></trkpt>
<trkpt lat="35.19698" lon="-84.90728"><ele>221.3</ele><time>2026-08-13T20:01:16Z</time></trkpt>
<trkpt lat="35.196969" lon="-84.907245"><ele>220.7</ele><time>2026-08-13T20:01:18Z</time></trkpt>
<trkpt lat="35.196964" lon="-84.907202"><ele>220.7</ele><time>2026-08-13T20:01:21Z</time></trkpt>
<trkpt lat="35.196961" lon="-84.907158"><ele>220.1</ele><time>2026-08-13T20:01:24Z</time></trkpt>
<trkpt lat="35.196962" lon="-84.907124"><ele>219.8</ele><time>2026-08-13T20:01:26Z</time></trkpt>
<trkpt lat="35.196948" lon="-84.907077"><ele>220.4</ele><time>2026-08-13T20:01:29Z</time></trkpt>
<trkpt lat="35.196936" lon="-84.907045"><ele>220.7</ele><time>2026-08-13T20:01:31Z</time></trkpt>
<trkpt lat="35.196925" lon="-84.907012"><ele>220.4</ele><time>2026-08-13T20:01:33Z</time></trkpt>
<trkpt lat="35.196915" lon="-84.906979"><ele>221.0</ele><time>2026-08-13T20:01:35Z</time></trkpt>
<trkpt lat="35.196908" lon="-84.906942"><ele>221.0</ele><time>2026-08-13T20:01:37Z</time></trkpt>
<trkpt lat="35.196905" lon="-84.906906"><ele>221.0</ele><time>2026-08-13T20:01:39Z</time></trkpt>
<trkpt lat="35.196899" lon="-84.90687"><ele>221.0</ele><time>2026-08-13T20:01:41Z</time></trkpt>
<trkpt lat="35.196896" lon="-84.906832"><ele>221.0</ele><time>2026-08-13T20:01:43Z</time></trkpt>
<trkpt lat="35.196898" lon="-84.906791"><ele>221.0</ele><time>2026-08-13T20:01:45Z</time></trkpt>
<trkpt lat="35.196898" lon="-84.906752"><ele>220.4</ele><time>2026-08-13T20:01:47Z</time></trkpt>
<trkpt lat="35.196897" lon="-84.906717"><ele>220.4</ele><time>2026-08-13T20:01:49Z</time></trkpt>
<trkpt lat="35.196897" lon="-84.906681"><ele>221.0</ele><time>2026-08-13T20:01:51Z</time></trkpt>
<trkpt lat="35.196899" lon="-84.906644"><ele>220.7</ele><time>2026-08-13T20:01:53Z</time></trkpt>
<trkpt lat="35.196899" lon="-84.906606"><ele>221.0</ele><time>2026-08-13T20:01:55Z</time></trkpt>
<trkpt lat="35.196898" lon="-84.906567"><ele>221.0</ele><time>2026-08-13T20:01:57Z</time></trkpt>
<trkpt lat="35.196896" lon="-84.906533"><ele>221.3</ele><time>2026-08-13T20:01:59Z</time></trkpt>
<trkpt lat="35.196894" lon="-84.906499"><ele>221.6</ele><time>2026-08-13T20:02:01Z</time></trkpt>
<trkpt lat="35.196891" lon="-84.906463"><ele>221.3</ele><time>2026-08-13T20:02:03Z</time></trkpt>
<trkpt lat="35.196888" lon="-84.906428"><ele>221.0</ele><time>2026-08-13T20:02:05Z</time></trkpt>
<trkpt lat="35.196887" lon="-84.90639"><ele>220.1</ele><time>2026-08-13T20:02:07Z</time></trkpt>
<trkpt lat="35.196891" lon="-84.906351"><ele>219.8</ele><time>2026-08-13T20:02:09Z</time></trkpt>
<trkpt lat="35.196888" lon="-84.906314"><ele>220.7</ele><time>2026-08-13T20:02:11Z</time></trkpt>
<trkpt lat="35.196884" lon="-84.906276"><ele>220.4</ele><time>2026-08-13T20:02:13Z</time></trkpt>
<trkpt lat="35.196882" lon="-84.90624"><ele>220.1</ele><time>2026-08-13T20:02:15Z</time></trkpt>
<trkpt lat="35.19688" lon="-84.906203"><ele>220.4</ele><time>2026-08-13T20:02:17Z</time></trkpt>
<trkpt lat="35.196874" lon="-84.906169"><ele>220.4</ele><time>2026-08-13T20:02:19Z</time></trkpt>
<trkpt lat="35.19687" lon="-84.906133"><ele>220.7</ele><time>2026-08-13T20:02:21Z</time></trkpt>
<trkpt lat="35.196868" lon="-84.906093"><ele>221.9</ele><time>2026-08-13T20:02:23Z</time></trkpt>
<trkpt lat="35.196871" lon="-84.906054"><ele>221.3</ele><time>2026-08-13T20:02:25Z</time></trkpt>
<trkpt lat="35.196867" lon="-84.906019"><ele>220.4</ele><time>2026-08-13T20:02:27Z</time></trkpt>
<trkpt lat="35.196861" lon="-84.905985"><ele>220.1</ele><time>2026-08-13T20:02:29Z</time></trkpt>
<trkpt lat="35.196865" lon="-84.905949"><ele>220.1</ele><time>2026-08-13T20:02:31Z</time></trkpt>
<trkpt lat="35.196859" lon="-84.905901"><ele>221.3</ele><time>2026-08-13T20:02:34Z</time></trkpt>
<trkpt lat="35.196859" lon="-84.905853"><ele>220.7</ele><time>2026-08-13T20:02:37Z</time></trkpt>
<trkpt lat="35.196852" lon="-84.90582"><ele>219.5</ele><time>2026-08-13T20:02:39Z</time></trkpt>
<trkpt lat="35.196852" lon="-84.905786"><ele>221.3</ele><time>2026-08-13T20:02:41Z</time></trkpt>
<trkpt lat="35.19685" lon="-84.905756"><ele>220.4</ele><time>2026-08-13T20:02:43Z</time></trkpt>
<trkpt lat="35.196849" lon="-84.905761"><ele>220.1</ele><time>2026-08-13T20:02:44Z</time></trkpt>
<trkpt lat="35.196849" lon="-84.90573"><ele>220.1</ele><time>2026-08-13T20:02:45Z</time></trkpt>
<trkpt lat="35.196831" lon="-84.905698"><ele>219.2</ele><time>2026-08-13T20:02:47Z</time></trkpt>
<trkpt lat="35.196834" lon="-84.905654"><ele>220.1</ele><time>2026-08-13T20:02:49Z</time></trkpt>
<trkpt lat="35.196829" lon="-84.905617"><ele>219.8</ele><time>2026-08-13T20:02:51Z</time></trkpt>
<trkpt lat="35.196815" lon="-84.90557"><ele>219.8</ele><time>2026-08-13T20:02:54Z</time></trkpt>
<trkpt lat="35.196819" lon="-84.905523"><ele>220.7</ele><time>2026-08-13T20:02:56Z</time></trkpt>
<trkpt lat="35.196817" lon="-84.905483"><ele>220.4</ele><time>2026-08-13T20:02:58Z</time></trkpt>
<trkpt lat="35.196813" lon="-84.905445"><ele>219.8</ele><time>2026-08-13T20:03:00Z</time></trkpt>
<trkpt lat="35.196818" lon="-84.90541"><ele>218.8</ele><time>2026-08-13T20:03:02Z</time></trkpt>
<trkpt lat="35.196812" lon="-84.905375"><ele>219.2</ele><time>2026-08-13T20:03:04Z</time></trkpt>
<trkpt lat="35.196815" lon="-84.905339"><ele>219.5</ele><time>2026-08-13T20:03:06Z</time></trkpt>
<trkpt lat="35.19681" lon="-84.905305"><ele>219.2</ele><time>2026-08-13T20:03:08Z</time></trkpt>
<trkpt lat="35.196806" lon="-84.905272"><ele>220.1</ele><time>2026-08-13T20:03:10Z</time></trkpt>
<trkpt lat="35.1968" lon="-84.905225"><ele>220.1</ele><time>2026-08-13T20:03:13Z</time></trkpt>
<trkpt lat="35.196798" lon="-84.905189"><ele>220.4</ele><time>2026-08-13T20:03:15Z</time></trkpt>
<trkpt lat="35.196794" lon="-84.905156"><ele>220.4</ele><time>2026-08-13T20:03:17Z</time></trkpt>
<trkpt lat="35.196791" lon="-84.90512"><ele>220.4</ele><time>2026-08-13T20:03:19Z</time></trkpt>
<trkpt lat="35.196792" lon="-84.905085"><ele>220.4</ele><time>2026-08-13T20:03:21Z</time></trkpt>
<trkpt lat="35.19679" lon="-84.905051"><ele>220.4</ele><time>2026-08-13T20:03:23Z</time></trkpt>
<trkpt lat="35.196786" lon="-84.905015"><ele>220.4</ele><time>2026-08-13T20:03:25Z</time></trkpt>
<trkpt lat="35.196785" lon="-84.904977"><ele>220.1</ele><time>2026-08-13T20:03:27Z</time></trkpt>
<trkpt lat="35.196779" lon="-84.904943"><ele>220.1</ele><time>2026-08-13T20:03:29Z</time></trkpt>
<trkpt lat="35.196773" lon="-84.904906"><ele>220.1</ele><time>2026-08-13T20:03:31Z</time></trkpt>
<trkpt lat="35.196769" lon="-84.90487"><ele>219.8</ele><time>2026-08-13T20:03:33Z</time></trkpt>
<trkpt lat="35.196763" lon="-84.904831"><ele>219.8</ele><time>2026-08-13T20:03:35Z</time></trkpt>
<trkpt lat="35.196755" lon="-84.904796"><ele>220.1</ele><time>2026-08-13T20:03:37Z</time></trkpt>
<trkpt lat="35.196747" lon="-84.904761"><ele>219.5</ele><time>2026-08-13T20:03:39Z</time></trkpt>
<trkpt lat="35.196745" lon="-84.904727"><ele>219.2</ele><time>2026-08-13T20:03:41Z</time></trkpt>
<trkpt lat="35.196747" lon="-84.904691"><ele>219.5</ele><time>2026-08-13T20:03:43Z</time></trkpt>
<trkpt lat="35.196742" lon="-84.904653"><ele>220.7</ele><time>2026-08-13T20:03:45Z</time></trkpt>
<trkpt lat="35.19674" lon="-84.904616"><ele>220.4</ele><time>2026-08-13T20:03:47Z</time></trkpt>
<trkpt lat="35.19674" lon="-84.90458"><ele>220.7</ele><time>2026-08-13T20:03:49Z</time></trkpt>
<trkpt lat="35.196742" lon="-84.904544"><ele>222.2</ele><time>2026-08-13T20:03:51Z</time></trkpt>
<trkpt lat="35.196738" lon="-84.904494"><ele>222.2</ele><time>2026-08-13T20:03:54Z</time></trkpt>
<trkpt lat="35.196741" lon="-84.90446"><ele>221.3</ele><time>2026-08-13T20:03:56Z</time></trkpt>
<trkpt lat="35.196739" lon="-84.904411"><ele>220.7</ele><time>2026-08-13T20:03:59Z</time></trkpt>
<trkpt lat="35.196736" lon="-84.904376"><ele>220.4</ele><time>2026-08-13T20:04:01Z</time></trkpt>
<trkpt lat="35.196736" lon="-84.90434"><ele>219.8</ele><time>2026-08-13T20:04:03Z</time></trkpt>
<trkpt lat="35.196736" lon="-84.904301"><ele>219.8</ele><time>2026-08-13T20:04:05Z</time></trkpt>
<trkpt lat="35.196735" lon="-84.90426"><ele>219.8</ele><time>2026-08-13T20:04:07Z</time></trkpt>
<trkpt lat="35.196738" lon="-84.904224"><ele>219.2</ele><time>2026-08-13T20:04:09Z</time></trkpt>
<trkpt lat="35.19674" lon="-84.904188"><ele>219.2</ele><time>2026-08-13T20:04:11Z</time></trkpt>
<trkpt lat="35.196745" lon="-84.904153"><ele>219.8</ele><time>2026-08-13T20:04:13Z</time></trkpt>
<trkpt lat="35.196747" lon="-84.904106"><ele>219.8</ele><time>2026-08-13T20:04:16Z</time></trkpt>
<trkpt lat="35.196751" lon="-84.90406"><ele>220.1</ele><time>2026-08-13T20:04:19Z</time></trkpt>
<trkpt lat="35.196751" lon="-84.904024"><ele>219.8</ele><time>2026-08-13T20:04:21Z</time></trkpt>
<trkpt lat="35.196746" lon="-84.903977"><ele>219.2</ele><time>2026-08-13T20:04:24Z</time></trkpt>
<trkpt lat="35.196747" lon="-84.903926"><ele>219.8</ele><time>2026-08-13T20:04:27Z</time></trkpt>
<trkpt lat="35.19675" lon="-84.903888"><ele>220.4</ele><time>2026-08-13T20:04:29Z</time></trkpt>
<trkpt lat="35.196753" lon="-84.903847"><ele>220.1</ele><time>2026-08-13T20:04:31Z</time></trkpt>
<trkpt lat="35.196759" lon="-84.903809"><ele>219.8</ele><time>2026-08-13T20:04:33Z</time></trkpt>
<trkpt lat="35.196762" lon="-84.903774"><ele>219.2</ele><time>2026-08-13T20:04:35Z</time></trkpt>
<trkpt lat="35.196764" lon="-84.903738"><ele>219.8</ele><time>2026-08-13T20:04:37Z</time></trkpt>
<trkpt lat="35.196768" lon="-84.903703"><ele>219.5</ele><time>2026-08-13T20:04:39Z</time></trkpt>
<trkpt lat="35.196769" lon="-84.903669"><ele>220.1</ele><time>2026-08-13T20:04:41Z</time></trkpt>
<trkpt lat="35.196771" lon="-84.903617"><ele>220.1</ele><time>2026-08-13T20:04:44Z</time></trkpt>
<trkpt lat="35.196771" lon="-84.903582"><ele>220.1</ele><time>2026-08-13T20:04:46Z</time></trkpt>
<trkpt lat="35.196772" lon="-84.903536"><ele>220.7</ele><time>2026-08-13T20:04:49Z</time></trkpt>
<trkpt lat="35.196776" lon="-84.9035"><ele>221.3</ele><time>2026-08-13T20:04:51Z</time></trkpt>
<trkpt lat="35.196779" lon="-84.903463"><ele>221.3</ele><time>2026-08-13T20:04:53Z</time></trkpt>
<trkpt lat="35.196783" lon="-84.903428"><ele>221.0</ele><time>2026-08-13T20:04:55Z</time></trkpt>
<trkpt lat="35.196785" lon="-84.903392"><ele>221.3</ele><time>2026-08-13T20:04:57Z</time></trkpt>
<trkpt lat="35.196788" lon="-84.903358"><ele>220.4</ele><time>2026-08-13T20:04:59Z</time></trkpt>
<trkpt lat="35.196788" lon="-84.903322"><ele>220.4</ele><time>2026-08-13T20:05:01Z</time></trkpt>
<trkpt lat="35.196789" lon="-84.903288"><ele>219.5</ele><time>2026-08-13T20:05:03Z</time></trkpt>
<trkpt lat="35.19679" lon="-84.903252"><ele>218.5</ele><time>2026-08-13T20:05:05Z</time></trkpt>
<trkpt lat="35.196795" lon="-84.903218"><ele>218.2</ele><time>2026-08-13T20:05:07Z</time></trkpt>
<trkpt lat="35.1968" lon="-84.903181"><ele>218.5</ele><time>2026-08-13T20:05:09Z</time></trkpt>
<trkpt lat="35.196803" lon="-84.903144"><ele>219.2</ele><time>2026-08-13T20:05:11Z</time></trkpt>
<trkpt lat="35.196802" lon="-84.903111"><ele>219.2</ele><time>2026-08-13T20:05:13Z</time></trkpt>
<trkpt lat="35.196802" lon="-84.903075"><ele>220.1</ele><time>2026-08-13T20:05:15Z</time></trkpt>
<trkpt lat="35.196801" lon="-84.903039"><ele>220.4</ele><time>2026-08-13T20:05:17Z</time></trkpt>
<trkpt lat="35.196797" lon="-84.903003"><ele>220.4</ele><time>2026-08-13T20:05:19Z</time></trkpt>
<trkpt lat="35.196798" lon="-84.902968"><ele>221.3</ele><time>2026-08-13T20:05:21Z</time></trkpt>
<trkpt lat="35.196802" lon="-84.902931"><ele>221.6</ele><time>2026-08-13T20:05:23Z</time></trkpt>
<trkpt lat="35.19681" lon="-84.902898"><ele>221.3</ele><time>2026-08-13T20:05:25Z</time></trkpt>
<trkpt lat="35.196814" lon="-84.902853"><ele>221.0</ele><time>2026-08-13T20:05:28Z</time></trkpt>
<trkpt lat="35.196819" lon="-84.902815"><ele>221.0</ele><time>2026-08-13T20:05:30Z</time></trkpt>
<trkpt lat="35.196815" lon="-84.902765"><ele>220.7</ele><time>2026-08-13T20:05:33Z</time></trkpt>
<trkpt lat="35.196816" lon="-84.90273"><ele>220.4</ele><time>2026-08-13T20:05:35Z</time></trkpt>
<trkpt lat="35.196819" lon="-84.902694"><ele>220.7</ele><time>2026-08-13T20:05:37Z</time></trkpt>
<trkpt lat="35.196822" lon="-84.902657"><ele>221.0</ele><time>2026-08-13T20:05:39Z</time></trkpt>
<trkpt lat="35.196824" lon="-84.902621"><ele>220.4</ele><time>2026-08-13T20:05:41Z</time></trkpt>
<trkpt lat="35.196829" lon="-84.902586"><ele>219.8</ele><time>2026-08-13T20:05:43Z</time></trkpt>
<trkpt lat="35.196838" lon="-84.902552"><ele>219.8</ele><time>2026-08-13T20:05:45Z</time></trkpt>
<trkpt lat="35.196846" lon="-84.902518"><ele>219.5</ele><time>2026-08-13T20:05:47Z</time></trkpt>
<trkpt lat="35.196855" lon="-84.902482"><ele>219.5</ele><time>2026-08-13T20:05:49Z</time></trkpt>
<trkpt lat="35.196863" lon="-84.902446"><ele>219.8</ele><time>2026-08-13T20:05:51Z</time></trkpt>
<trkpt lat="35.196871" lon="-84.902411"><ele>220.7</ele><time>2026-08-13T20:05:53Z</time></trkpt>
<trkpt lat="35.196879" lon="-84.902376"><ele>221.3</ele><time>2026-08-13T20:05:55Z</time></trkpt>
<trkpt lat="35.196891" lon="-84.902343"><ele>221.3</ele><time>2026-08-13T20:05:57Z</time></trkpt>
<trkpt lat="35.19691" lon="-84.902303"><ele>221.6</ele><time>2026-08-13T20:06:00Z</time></trkpt>
<trkpt lat="35.196924" lon="-84.902272"><ele>221.3</ele><time>2026-08-13T20:06:02Z</time></trkpt>
<trkpt lat="35.196939" lon="-84.902241"><ele>221.3</ele><time>2026-08-13T20:06:04Z</time></trkpt>
<trkpt lat="35.19696" lon="-84.902201"><ele>220.7</ele><time>2026-08-13T20:06:07Z</time></trkpt>
<trkpt lat="35.196983" lon="-84.902161"><ele>220.1</ele><time>2026-08-13T20:06:10Z</time></trkpt>
<trkpt lat="35.197" lon="-84.902134"><ele>220.1</ele><time>2026-08-13T20:06:12Z</time></trkpt>
<trkpt lat="35.197017" lon="-84.902105"><ele>220.4</ele><time>2026-08-13T20:06:14Z</time></trkpt>
<trkpt lat="35.197033" lon="-84.902075"><ele>220.4</ele><time>2026-08-13T20:06:16Z</time></trkpt>
<trkpt lat="35.197053" lon="-84.902045"><ele>220.1</ele><time>2026-08-13T20:06:18Z</time></trkpt>
<trkpt lat="35.197072" lon="-84.902015"><ele>220.1</ele><time>2026-08-13T20:06:20Z</time></trkpt>
<trkpt lat="35.197089" lon="-84.901988"><ele>219.5</ele><time>2026-08-13T20:06:22Z</time></trkpt>
<trkpt lat="35.197107" lon="-84.901958"><ele>219.5</ele><time>2026-08-13T20:06:24Z</time></trkpt>
<trkpt lat="35.197121" lon="-84.901926"><ele>219.5</ele><time>2026-08-13T20:06:26Z</time></trkpt>
<trkpt lat="35.197138" lon="-84.901896"><ele>218.8</ele><time>2026-08-13T20:06:28Z</time></trkpt>
<trkpt lat="35.197159" lon="-84.90187"><ele>218.8</ele><time>2026-08-13T20:06:30Z</time></trkpt>
<trkpt lat="35.197175" lon="-84.901838"><ele>218.8</ele><time>2026-08-13T20:06:32Z</time></trkpt>
<trkpt lat="35.197192" lon="-84.901807"><ele>218.8</ele><time>2026-08-13T20:06:34Z</time></trkpt>
<trkpt lat="35.197212" lon="-84.901776"><ele>218.8</ele><time>2026-08-13T20:06:36Z</time></trkpt>
<trkpt lat="35.19723" lon="-84.901746"><ele>218.5</ele><time>2026-08-13T20:06:38Z</time></trkpt>
<trkpt lat="35.197246" lon="-84.901712"><ele>218.2</ele><time>2026-08-13T20:06:40Z</time></trkpt>
<trkpt lat="35.197263" lon="-84.901678"><ele>218.5</ele><time>2026-08-13T20:06:42Z</time></trkpt>
<trkpt lat="35.197282" lon="-84.901648"><ele>218.2</ele><time>2026-08-13T20:06:44Z</time></trkpt>
<trkpt lat="35.197301" lon="-84.901616"><ele>217.9</ele><time>2026-08-13T20:06:46Z</time></trkpt>
<trkpt lat="35.197318" lon="-84.901584"><ele>218.2</ele><time>2026-08-13T20:06:48Z</time></trkpt>
<trkpt lat="35.197336" lon="-84.901555"><ele>217.9</ele><time>2026-08-13T20:06:50Z</time></trkpt>
<trkpt lat="35.197355" lon="-84.901528"><ele>217.6</ele><time>2026-08-13T20:06:52Z</time></trkpt>
<trkpt lat="35.197374" lon="-84.901502"><ele>217.6</ele><time>2026-08-13T20:06:54Z</time></trkpt>
<trkpt lat="35.197394" lon="-84.901476"><ele>217.6</ele><time>2026-08-13T20:06:56Z</time></trkpt>
<trkpt lat="35.197414" lon="-84.90145"><ele>217.6</ele><time>2026-08-13T20:06:58Z</time></trkpt>
<trkpt lat="35.197436" lon="-84.901423"><ele>217.6</ele><time>2026-08-13T20:07:00Z</time></trkpt>
<trkpt lat="35.197457" lon="-84.901396"><ele>217.6</ele><time>2026-08-13T20:07:02Z</time></trkpt>
<trkpt lat="35.197478" lon="-84.901371"><ele>217.9</ele><time>2026-08-13T20:07:04Z</time></trkpt>
<trkpt lat="35.197495" lon="-84.901343"><ele>217.9</ele><time>2026-08-13T20:07:06Z</time></trkpt>
<trkpt lat="35.197513" lon="-84.901315"><ele>217.9</ele><time>2026-08-13T20:07:08Z</time></trkpt>
<trkpt lat="35.197533" lon="-84.90129"><ele>217.6</ele><time>2026-08-13T20:07:10Z</time></trkpt>
<trkpt lat="35.197552" lon="-84.901265"><ele>217.6</ele><time>2026-08-13T20:07:12Z</time></trkpt>
<trkpt lat="35.197572" lon="-84.901238"><ele>217.6</ele><time>2026-08-13T20:07:14Z</time></trkpt>
<trkpt lat="35.197591" lon="-84.901211"><ele>217.6</ele><time>2026-08-13T20:07:16Z</time></trkpt>
<trkpt lat="35.197612" lon="-84.901187"><ele>217.6</ele><time>2026-08-13T20:07:18Z</time></trkpt>
<trkpt lat="35.197632" lon="-84.901161"><ele>217.6</ele><time>2026-08-13T20:07:20Z</time></trkpt>
<trkpt lat="35.197653" lon="-84.901136"><ele>217.6</ele><time>2026-08-13T20:07:22Z</time></trkpt>
<trkpt lat="35.197675" lon="-84.901112"><ele>217.3</ele><time>2026-08-13T20:07:24Z</time></trkpt>
<trkpt lat="35.197695" lon="-84.901087"><ele>217.0</ele><time>2026-08-13T20:07:26Z</time></trkpt>
<trkpt lat="35.19771" lon="-84.901055"><ele>217.0</ele><time>2026-08-13T20:07:28Z</time></trkpt>
<trkpt lat="35.197727" lon="-84.901024"><ele>216.7</ele><time>2026-08-13T20:07:30Z</time></trkpt>
<trkpt lat="35.197744" lon="-84.900995"><ele>216.7</ele><time>2026-08-13T20:07:32Z</time></trkpt>
<trkpt lat="35.19776" lon="-84.900965"><ele>216.7</ele><time>2026-08-13T20:07:34Z</time></trkpt>
<trkpt lat="35.197774" lon="-84.900935"><ele>216.7</ele><time>2026-08-13T20:07:36Z</time></trkpt>
<trkpt lat="35.197786" lon="-84.900901"><ele>216.4</ele><time>2026-08-13T20:07:38Z</time></trkpt>
<trkpt lat="35.197795" lon="-84.900866"><ele>215.8</ele><time>2026-08-13T20:07:40Z</time></trkpt>
<trkpt lat="35.197803" lon="-84.900832"><ele>216.4</ele><time>2026-08-13T20:07:42Z</time></trkpt>
<trkpt lat="35.197811" lon="-84.900777"><ele>217.3</ele><time>2026-08-13T20:07:45Z</time></trkpt>
<trkpt lat="35.197815" lon="-84.90074"><ele>217.3</ele><time>2026-08-13T20:07:47Z</time></trkpt>
<trkpt lat="35.197823" lon="-84.900704"><ele>217.3</ele><time>2026-08-13T20:07:49Z</time></trkpt>
<trkpt lat="35.197829" lon="-84.900667"><ele>217.0</ele><time>2026-08-13T20:07:51Z</time></trkpt>
<trkpt lat="35.197837" lon="-84.900629"><ele>217.3</ele><time>2026-08-13T20:07:53Z</time></trkpt>
<trkpt lat="35.197847" lon="-84.900593"><ele>216.7</ele><time>2026-08-13T20:07:55Z</time></trkpt>
<trkpt lat="35.197862" lon="-84.900559"><ele>216.4</ele><time>2026-08-13T20:07:57Z</time></trkpt>
<trkpt lat="35.197887" lon="-84.900533"><ele>216.1</ele><time>2026-08-13T20:07:59Z</time></trkpt>
<trkpt lat="35.19791" lon="-84.900505"><ele>216.4</ele><time>2026-08-13T20:08:01Z</time></trkpt>
<trkpt lat="35.197926" lon="-84.900478"><ele>216.7</ele><time>2026-08-13T20:08:03Z</time></trkpt>
<trkpt lat="35.197945" lon="-84.900448"><ele>216.7</ele><time>2026-08-13T20:08:05Z</time></trkpt>
<trkpt lat="35.197967" lon="-84.900424"><ele>217.3</ele><time>2026-08-13T20:08:07Z</time></trkpt>
<trkpt lat="35.197992" lon="-84.900401"><ele>217.9</ele><time>2026-08-13T20:08:09Z</time></trkpt>
<trkpt lat="35.198015" lon="-84.900379"><ele>217.3</ele><time>2026-08-13T20:08:11Z</time></trkpt>
<trkpt lat="35.198038" lon="-84.900359"><ele>217.0</ele><time>2026-08-13T20:08:13Z</time></trkpt>
<trkpt lat="35.19806" lon="-84.900336"><ele>217.6</ele><time>2026-08-13T20:08:15Z</time></trkpt>
<trkpt lat="35.198083" lon="-84.900311"><ele>217.6</ele><time>2026-08-13T20:08:17Z</time></trkpt>
<trkpt lat="35.198107" lon="-84.900288"><ele>217.9</ele><time>2026-08-13T20:08:19Z</time></trkpt>
<trkpt lat="35.198143" lon="-84.900263"><ele>218.2</ele><time>2026-08-13T20:08:22Z</time></trkpt>
<trkpt lat="35.19817" lon="-84.900247"><ele>217.3</ele><time>2026-08-13T20:08:24Z</time></trkpt>
<trkpt lat="35.198195" lon="-84.90023"><ele>216.7</ele><time>2026-08-13T20:08:26Z</time></trkpt>
<trkpt lat="35.198222" lon="-84.90021"><ele>217.6</ele><time>2026-08-13T20:08:28Z</time></trkpt>
<trkpt lat="35.198248" lon="-84.90019"><ele>217.9</ele><time>2026-08-13T20:08:30Z</time></trkpt>
<trkpt lat="35.198275" lon="-84.900169"><ele>217.6</ele><time>2026-08-13T20:08:32Z</time></trkpt>
<trkpt lat="35.198294" lon="-84.900138"><ele>217.6</ele><time>2026-08-13T20:08:34Z</time></trkpt>
<trkpt lat="35.19831" lon="-84.900104"><ele>217.6</ele><time>2026-08-13T20:08:36Z</time></trkpt>
<trkpt lat="35.198329" lon="-84.900073"><ele>217.9</ele><time>2026-08-13T20:08:38Z</time></trkpt>
<trkpt lat="35.19836" lon="-84.900073"><ele>218.2</ele><time>2026-08-13T20:08:40Z</time></trkpt>
<trkpt lat="35.198388" lon="-84.900083"><ele>218.8</ele><time>2026-08-13T20:08:42Z</time></trkpt>
<trkpt lat="35.198418" lon="-84.900083"><ele>219.5</ele><time>2026-08-13T20:08:44Z</time></trkpt>
<trkpt lat="35.198449" lon="-84.900073"><ele>219.8</ele><time>2026-08-13T20:08:46Z</time></trkpt>
<trkpt lat="35.198475" lon="-84.90006"><ele>219.8</ele><time>2026-08-13T20:08:48Z</time></trkpt>
<trkpt lat="35.198503" lon="-84.900047"><ele>220.7</ele><time>2026-08-13T20:08:50Z</time></trkpt>
<trkpt lat="35.198528" lon="-84.900032"><ele>220.1</ele><time>2026-08-13T20:08:52Z</time></trkpt>
<trkpt lat="35.198557" lon="-84.900017"><ele>220.7</ele><time>2026-08-13T20:08:54Z</time></trkpt>
<trkpt lat="35.198584" lon="-84.900007"><ele>220.7</ele><time>2026-08-13T20:08:56Z</time></trkpt>
<trkpt lat="35.198613" lon="-84.9"><ele>220.7</ele><time>2026-08-13T20:08:58Z</time></trkpt>
<trkpt lat="35.198641" lon="-84.899996"><ele>220.4</ele><time>2026-08-13T20:09:00Z</time></trkpt>
<trkpt lat="35.198669" lon="-84.89999"><ele>221.0</ele><time>2026-08-13T20:09:02Z</time></trkpt>
<trkpt lat="35.198698" lon="-84.899981"><ele>221.3</ele><time>2026-08-13T20:09:04Z</time></trkpt>
<trkpt lat="35.198727" lon="-84.89997"><ele>221.9</ele><time>2026-08-13T20:09:06Z</time></trkpt>
<trkpt lat="35.198755" lon="-84.899958"><ele>222.5</ele><time>2026-08-13T20:09:08Z</time></trkpt>
<trkpt lat="35.198786" lon="-84.899934"><ele>222.8</ele><time>2026-08-13T20:09:11Z</time></trkpt>
<trkpt lat="35.198783" lon="-84.899896"><ele>222.5</ele><time>2026-08-13T20:09:14Z</time></trkpt>
<trkpt lat="35.19877" lon="-84.899854"><ele>221.9</ele><time>2026-08-13T20:09:17Z</time></trkpt>
<trkpt lat="35.198757" lon="-84.899824"><ele>221.6</ele><time>2026-08-13T20:09:19Z</time></trkpt>
<trkpt lat="35.198739" lon="-84.899779"><ele>221.6</ele><time>2026-08-13T20:09:22Z</time></trkpt>
<trkpt lat="35.198726" lon="-84.899747"><ele>221.3</ele><time>2026-08-13T20:09:24Z</time></trkpt>
<trkpt lat="35.198713" lon="-84.899713"><ele>221.0</ele><time>2026-08-13T20:09:26Z</time></trkpt>
<trkpt lat="35.198701" lon="-84.899679"><ele>220.7</ele><time>2026-08-13T20:09:28Z</time></trkpt>
<trkpt lat="35.198689" lon="-84.899646"><ele>221.0</ele><time>2026-08-13T20:09:30Z</time></trkpt>
<trkpt lat="35.198677" lon="-84.899613"><ele>220.7</ele><time>2026-08-13T20:09:32Z</time></trkpt>
<trkpt lat="35.198665" lon="-84.899578"><ele>220.7</ele><time>2026-08-13T20:09:34Z</time></trkpt>
<trkpt lat="35.198655" lon="-84.899543"><ele>220.4</ele><time>2026-08-13T20:09:36Z</time></trkpt>
<trkpt lat="35.198639" lon="-84.899511"><ele>220.7</ele><time>2026-08-13T20:09:38Z</time></trkpt>
<trkpt lat="35.198626" lon="-84.899477"><ele>220.4</ele><time>2026-08-13T20:09:40Z</time></trkpt>
<trkpt lat="35.198615" lon="-84.899444"><ele>220.4</ele><time>2026-08-13T20:09:42Z</time></trkpt>
<trkpt lat="35.198605" lon="-84.899408"><ele>220.4</ele><time>2026-08-13T20:09:44Z</time></trkpt>
<trkpt lat="35.198591" lon="-84.899375"><ele>220.4</ele><time>2026-08-13T20:09:46Z</time></trkpt>
<trkpt lat="35.198576" lon="-84.89934"><ele>220.7</ele><time>2026-08-13T20:09:48Z</time></trkpt>
<trkpt lat="35.198564" lon="-84.899307"><ele>220.4</ele><time>2026-08-13T20:09:50Z</time></trkpt>
<trkpt lat="35.198552" lon="-84.89927"><ele>220.4</ele><time>2026-08-13T20:09:52Z</time></trkpt>
<trkpt lat="35.198539" lon="-84.899237"><ele>220.4</ele><time>2026-08-13T20:09:54Z</time></trkpt>
<trkpt lat="35.198525" lon="-84.899202"><ele>220.7</ele><time>2026-08-13T20:09:56Z</time></trkpt>
<trkpt lat="35.198514" lon="-84.899168"><ele>221.0</ele><time>2026-08-13T20:09:58Z</time></trkpt>
<trkpt lat="35.198495" lon="-84.899141"><ele>220.4</ele><time>2026-08-13T20:10:00Z</time></trkpt>
<trkpt lat="35.198484" lon="-84.899108"><ele>219.8</ele><time>2026-08-13T20:10:02Z</time></trkpt>
<trkpt lat="35.198472" lon="-84.899073"><ele>219.8</ele><time>2026-08-13T20:10:04Z</time></trkpt>
<trkpt lat="35.198458" lon="-84.899038"><ele>220.7</ele><time>2026-08-13T20:10:06Z</time></trkpt>
<trkpt lat="35.198449" lon="-84.899006"><ele>221.3</ele><time>2026-08-13T20:10:08Z</time></trkpt>
<trkpt lat="35.198437" lon="-84.898971"><ele>221.3</ele><time>2026-08-13T20:10:10Z</time></trkpt>
<trkpt lat="35.198424" lon="-84.898938"><ele>221.9</ele><time>2026-08-13T20:10:12Z</time></trkpt>
<trkpt lat="35.198413" lon="-84.898906"><ele>222.2</ele><time>2026-08-13T20:10:14Z</time></trkpt>
<trkpt lat="35.1984" lon="-84.898872"><ele>222.2</ele><time>2026-08-13T20:10:16Z</time></trkpt>
<trkpt lat="35.198386" lon="-84.89884"><ele>222.8</ele><time>2026-08-13T20:10:18Z</time></trkpt>
<trkpt lat="35.198372" lon="-84.898808"><ele>223.1</ele><time>2026-08-13T20:10:20Z</time></trkpt>
<trkpt lat="35.198361" lon="-84.898775"><ele>223.1</ele><time>2026-08-13T20:10:22Z</time></trkpt>
<trkpt lat="35.198351" lon="-84.898741"><ele>223.4</ele><time>2026-08-13T20:10:24Z</time></trkpt>
<trkpt lat="35.19834" lon="-84.898709"><ele>223.7</ele><time>2026-08-13T20:10:26Z</time></trkpt>
<trkpt lat="35.198327" lon="-84.898678"><ele>223.4</ele><time>2026-08-13T20:10:28Z</time></trkpt>
<trkpt lat="35.198315" lon="-84.898646"><ele>223.1</ele><time>2026-08-13T20:10:30Z</time></trkpt>
<trkpt lat="35.198298" lon="-84.898607"><ele>223.4</ele><time>2026-08-13T20:10:33Z</time></trkpt>
<trkpt lat="35.198283" lon="-84.898567"><ele>223.4</ele><time>2026-08-13T20:10:36Z</time></trkpt>
<trkpt lat="35.198272" lon="-84.898533"><ele>223.4</ele><time>2026-08-13T20:10:38Z</time></trkpt>
<trkpt lat="35.198254" lon="-84.898492"><ele>223.1</ele><time>2026-08-13T20:10:41Z</time></trkpt>
<trkpt lat="35.198236" lon="-84.898448"><ele>223.1</ele><time>2026-08-13T20:10:44Z</time></trkpt>
<trkpt lat="35.198218" lon="-84.898416"><ele>222.8</ele><time>2026-08-13T20:10:47Z</time></trkpt>
<trkpt lat="35.198209" lon="-84.898378"><ele>223.1</ele><time>2026-08-13T20:10:50Z</time></trkpt>
<trkpt lat="35.198198" lon="-84.898345"><ele>223.1</ele><time>2026-08-13T20:10:53Z</time></trkpt>
<trkpt lat="35.19818" lon="-84.898304"><ele>223.4</ele><time>2026-08-13T20:10:56Z</time></trkpt>
<trkpt lat="35.198167" lon="-84.898264"><ele>222.8</ele><time>2026-08-13T20:10:59Z</time></trkpt>
<trkpt lat="35.198149" lon="-84.898234"><ele>222.8</ele><time>2026-08-13T20:11:01Z</time></trkpt>
<trkpt lat="35.198121" lon="-84.898202"><ele>223.4</ele><time>2026-08-13T20:11:03Z</time></trkpt>
<trkpt lat="35.198093" lon="-84.898158"><ele>224.0</ele><time>2026-08-13T20:11:05Z</time></trkpt>
<trkpt lat="35.198077" lon="-84.898108"><ele>223.4</ele><time>2026-08-13T20:11:07Z</time></trkpt>
<trkpt lat="35.198078" lon="-84.898063"><ele>224.0</ele><time>2026-08-13T20:11:09Z</time></trkpt>
<trkpt lat="35.198087" lon="-84.89803"><ele>224.0</ele><time>2026-08-13T20:11:11Z</time></trkpt>
<trkpt lat="35.198075" lon="-84.897989"><ele>223.4</ele><time>2026-08-13T20:11:14Z</time></trkpt>
<trkpt lat="35.198056" lon="-84.897947"><ele>223.7</ele><time>2026-08-13T20:11:17Z</time></trkpt>
<trkpt lat="35.198041" lon="-84.897916"><ele>223.4</ele><time>2026-08-13T20:11:19Z</time></trkpt>
<trkpt lat="35.198022" lon="-84.897873"><ele>223.7</ele><time>2026-08-13T20:11:22Z</time></trkpt>
<trkpt lat="35.198003" lon="-84.897828"><ele>224.0</ele><time>2026-08-13T20:11:25Z</time></trkpt>
<trkpt lat="35.197992" lon="-84.897794"><ele>224.3</ele><time>2026-08-13T20:11:27Z</time></trkpt>
<trkpt lat="35.197982" lon="-84.897761"><ele>224.6</ele><time>2026-08-13T20:11:29Z</time></trkpt>
<trkpt lat="35.197972" lon="-84.897726"><ele>225.2</ele><time>2026-08-13T20:11:31Z</time></trkpt>
<trkpt lat="35.197958" lon="-84.897693"><ele>224.6</ele><time>2026-08-13T20:11:33Z</time></trkpt>
<trkpt lat="35.197945" lon="-84.89766"><ele>225.2</ele><time>2026-08-13T20:11:35Z</time></trkpt>
<trkpt lat="35.197932" lon="-84.897629"><ele>225.2</ele><time>2026-08-13T20:11:37Z</time></trkpt>
<trkpt lat="35.197917" lon="-84.897584"><ele>225.6</ele><time>2026-08-13T20:11:40Z</time></trkpt>
<trkpt lat="35.1979" lon="-84.897542"><ele>225.6</ele><time>2026-08-13T20:11:43Z</time></trkpt>
<trkpt lat="35.197889" lon="-84.897494"><ele>224.6</ele><time>2026-08-13T20:11:46Z</time></trkpt>
<trkpt lat="35.197878" lon="-84.897462"><ele>224.3</ele><time>2026-08-13T20:11:48Z</time></trkpt>
<trkpt lat="35.197866" lon="-84.89743"><ele>223.4</ele><time>2026-08-13T20:11:50Z</time></trkpt>
<trkpt lat="35.19784" lon="-84.89741"><ele>222.8</ele><time>2026-08-13T20:11:52Z</time></trkpt>
<trkpt lat="35.19781" lon="-84.89742"><ele>223.1</ele><time>2026-08-13T20:11:54Z</time></trkpt>
<trkpt lat="35.197781" lon="-84.897433"><ele>222.8</ele><time>2026-08-13T20:11:56Z</time></trkpt>
<trkpt lat="35.197754" lon="-84.897448"><ele>222.2</ele><time>2026-08-13T20:11:58Z</time></trkpt>
<trkpt lat="35.197716" lon="-84.897469"><ele>222.5</ele><time>2026-08-13T20:12:01Z</time></trkpt>
<trkpt lat="35.197691" lon="-84.897487"><ele>222.5</ele><time>2026-08-13T20:12:03Z</time></trkpt>
<trkpt lat="35.197664" lon="-84.897505"><ele>222.5</ele><time>2026-08-13T20:12:05Z</time></trkpt>
<trkpt lat="35.197638" lon="-84.897519"><ele>223.1</ele><time>2026-08-13T20:12:07Z</time></trkpt>
<trkpt lat="35.197605" lon="-84.897547"><ele>222.2</ele><time>2026-08-13T20:12:10Z</time></trkpt>
<trkpt lat="35.197575" lon="-84.897561"><ele>221.9</ele><time>2026-08-13T20:12:12Z</time></trkpt>
<trkpt lat="35.197547" lon="-84.897575"><ele>221.6</ele><time>2026-08-13T20:12:14Z</time></trkpt>
<trkpt lat="35.197517" lon="-84.897587"><ele>221.6</ele><time>2026-08-13T20:12:16Z</time></trkpt>
<trkpt lat="35.197487" lon="-84.897599"><ele>221.3</ele><time>2026-08-13T20:12:18Z</time></trkpt>
<trkpt lat="35.197457" lon="-84.89761"><ele>220.7</ele><time>2026-08-13T20:12:20Z</time></trkpt>
<trkpt lat="35.197425" lon="-84.897611"><ele>220.7</ele><time>2026-08-13T20:12:22Z</time></trkpt>
<trkpt lat="35.197395" lon="-84.897604"><ele>221.0</ele><time>2026-08-13T20:12:24Z</time></trkpt>
<trkpt lat="35.197368" lon="-84.897585"><ele>221.0</ele><time>2026-08-13T20:12:26Z</time></trkpt>
<trkpt lat="35.197355" lon="-84.897555"><ele>220.4</ele><time>2026-08-13T20:12:28Z</time></trkpt>
<trkpt lat="35.197365" lon="-84.89752"><ele>220.1</ele><time>2026-08-13T20:12:30Z</time></trkpt>
<trkpt lat="35.19739" lon="-84.89749"><ele>220.1</ele><time>2026-08-13T20:12:32Z</time></trkpt>
<trkpt lat="35.197414" lon="-84.897462"><ele>220.1</ele><time>2026-08-13T20:12:34Z</time></trkpt>
<trkpt lat="35.197435" lon="-84.897435"><ele>220.1</ele><time>2026-08-13T20:12:36Z</time></trkpt>
<trkpt lat="35.197458" lon="-84.897409"><ele>220.1</ele><time>2026-08-13T20:12:38Z</time></trkpt>
<trkpt lat="35.19748" lon="-84.897387"><ele>219.8</ele><time>2026-08-13T20:12:40Z</time></trkpt>
<trkpt lat="35.1975" lon="-84.897363"><ele>219.8</ele><time>2026-08-13T20:12:42Z</time></trkpt>
<trkpt lat="35.19753" lon="-84.897329"><ele>219.8</ele><time>2026-08-13T20:12:45Z</time></trkpt>
<trkpt lat="35.197553" lon="-84.89731"><ele>219.5</ele><time>2026-08-13T20:12:47Z</time></trkpt>
<trkpt lat="35.197574" lon="-84.897289"><ele>219.8</ele><time>2026-08-13T20:12:49Z</time></trkpt>
<trkpt lat="35.197596" lon="-84.897267"><ele>219.5</ele><time>2026-08-13T20:12:51Z</time></trkpt>
<trkpt lat="35.197618" lon="-84.897244"><ele>219.8</ele><time>2026-08-13T20:12:53Z</time></trkpt>
<trkpt lat="35.19764" lon="-84.897205"><ele>220.1</ele><time>2026-08-13T20:12:56Z</time></trkpt>
<trkpt lat="35.197649" lon="-84.897174"><ele>220.1</ele><time>2026-08-13T20:12:58Z</time></trkpt>
<trkpt lat="35.197656" lon="-84.897141"><ele>219.8</ele><time>2026-08-13T20:13:00Z</time></trkpt>
<trkpt lat="35.197661" lon="-84.897106"><ele>220.1</ele><time>2026-08-13T20:13:02Z</time></trkpt>
<trkpt lat="35.197669" lon="-84.897073"><ele>219.2</ele><time>2026-08-13T20:13:04Z</time></trkpt>
<trkpt lat="35.197684" lon="-84.897042"><ele>218.8</ele><time>2026-08-13T20:13:06Z</time></trkpt>
<trkpt lat="35.1977" lon="-84.897013"><ele>218.5</ele><time>2026-08-13T20:13:08Z</time></trkpt>
<trkpt lat="35.197717" lon="-84.896985"><ele>218.5</ele><time>2026-08-13T20:13:10Z</time></trkpt>
<trkpt lat="35.197733" lon="-84.896956"><ele>219.5</ele><time>2026-08-13T20:13:12Z</time></trkpt>
<trkpt lat="35.197752" lon="-84.896928"><ele>220.1</ele><time>2026-08-13T20:13:14Z</time></trkpt>
<trkpt lat="35.197777" lon="-84.896908"><ele>220.7</ele><time>2026-08-13T20:13:16Z</time></trkpt>
<trkpt lat="35.1978" lon="-84.896886"><ele>220.4</ele><time>2026-08-13T20:13:18Z</time></trkpt>
<trkpt lat="35.197827" lon="-84.896868"><ele>220.4</ele><time>2026-08-13T20:13:20Z</time></trkpt>
<trkpt lat="35.197858" lon="-84.896861"><ele>221.0</ele><time>2026-08-13T20:13:22Z</time></trkpt>
<trkpt lat="35.197885" lon="-84.896865"><ele>221.6</ele><time>2026-08-13T20:13:24Z</time></trkpt>
<trkpt lat="35.197907" lon="-84.896894"><ele>221.0</ele><time>2026-08-13T20:13:26Z</time></trkpt>
<trkpt lat="35.197926" lon="-84.896926"><ele>221.3</ele><time>2026-08-13T20:13:28Z</time></trkpt>
<trkpt lat="35.19794" lon="-84.896973"><ele>221.0</ele><time>2026-08-13T20:13:31Z</time></trkpt>
<trkpt lat="35.197952" lon="-84.897007"><ele>221.0</ele><time>2026-08-13T20:13:33Z</time></trkpt>
<trkpt lat="35.197962" lon="-84.897041"><ele>220.7</ele><time>2026-08-13T20:13:35Z</time></trkpt>
<trkpt lat="35.197967" lon="-84.897089"><ele>221.0</ele><time>2026-08-13T20:13:38Z</time></trkpt>
<trkpt lat="35.197967" lon="-84.897124"><ele>221.3</ele><time>2026-08-13T20:13:40Z</time></trkpt>
<trkpt lat="35.197967" lon="-84.897159"><ele>220.7</ele><time>2026-08-13T20:13:42Z</time></trkpt>
<trkpt lat="35.197969" lon="-84.897196"><ele>220.7</ele><time>2026-08-13T20:13:44Z</time></trkpt>
<trkpt lat="35.197976" lon="-84.897233"><ele>221.0</ele><time>2026-08-13T20:13:46Z</time></trkpt>
<trkpt lat="35.197987" lon="-84.897265"><ele>221.0</ele><time>2026-08-13T20:13:48Z</time></trkpt>
<trkpt lat="35.198002" lon="-84.897293"><ele>220.7</ele><time>2026-08-13T20:13:50Z</time></trkpt>
<trkpt lat="35.198028" lon="-84.897326"><ele>220.7</ele><time>2026-08-13T20:13:53Z</time></trkpt>
<trkpt lat="35.198049" lon="-84.897352"><ele>220.7</ele><time>2026-08-13T20:13:55Z</time></trkpt>
<trkpt lat="35.198069" lon="-84.897376"><ele>220.7</ele><time>2026-08-13T20:13:57Z</time></trkpt>
<trkpt lat="35.198102" lon="-84.897401"><ele>220.4</ele><time>2026-08-13T20:14:00Z</time></trkpt>
<trkpt lat="35.198129" lon="-84.897411"><ele>220.1</ele><time>2026-08-13T20:14:02Z</time></trkpt>
<trkpt lat="35.198159" lon="-84.897413"><ele>220.1</ele><time>2026-08-13T20:14:04Z</time></trkpt>
<trkpt lat="35.198187" lon="-84.897423"><ele>220.4</ele><time>2026-08-13T20:14:06Z</time></trkpt>
<trkpt lat="35.198218" lon="-84.89743"><ele>220.1</ele><time>2026-08-13T20:14:08Z</time></trkpt>
<trkpt lat="35.19825" lon="-84.897436"><ele>220.7</ele><time>2026-08-13T20:14:10Z</time></trkpt>
<trkpt lat="35.198277" lon="-84.897446"><ele>221.0</ele><time>2026-08-13T20:14:12Z</time></trkpt>
<trkpt lat="35.198299" lon="-84.897473"><ele>221.6</ele><time>2026-08-13T20:14:14Z</time></trkpt>
<trkpt lat="35.198313" lon="-84.897512"><ele>223.1</ele><time>2026-08-13T20:14:17Z</time></trkpt>
<trkpt lat="35.198318" lon="-84.897546"><ele>224.9</ele><time>2026-08-13T20:14:20Z</time></trkpt>
<trkpt lat="35.198282" lon="-84.897564"><ele>224.0</ele><time>2026-08-13T20:14:23Z</time></trkpt>
<trkpt lat="35.198253" lon="-84.897582"><ele>224.0</ele><time>2026-08-13T20:14:25Z</time></trkpt>
<trkpt lat="35.198226" lon="-84.897596"><ele>224.0</ele><time>2026-08-13T20:14:27Z</time></trkpt>
<trkpt lat="35.198192" lon="-84.897619"><ele>225.2</ele><time>2026-08-13T20:14:30Z</time></trkpt>
<trkpt lat="35.198187" lon="-84.897623"><ele>225.2</ele><time>2026-08-13T20:14:31Z</time></trkpt>
<trkpt lat="35.198186" lon="-84.897622"><ele>225.2</ele><time>2026-08-13T20:14:32Z</time></trkpt>
<trkpt lat="35.198186" lon="-84.897622"><ele>225.2</ele><time>2026-08-13T20:14:35Z</time></trkpt>
<trkpt lat="35.198176" lon="-84.897632"><ele>225.6</ele><time>2026-08-13T20:14:36Z</time></trkpt>
<trkpt lat="35.198174" lon="-84.897633"><ele>225.6</ele><time>2026-08-13T20:14:37Z</time></trkpt>
</trkseg></trk></gpx>